[[{"header":{"parameterUnit":"m.s-1","parameterCategory":1,"la1":30.6,"la2":29.2853,"lo1":-89.7004,"lo2":-87.6739,"dy":0.0162,"dx":0.0183,"nx":112,"ny":82,"refTime":"2024-03-25T12:00:00:Z","depth":0,"parameterNumber":2,"parameterNumberName":"U-component_of_WINDS"},"data":[0.0,0.0,0.0,0.0,0.0,0.0,0.0,0.0,0.0,0.0,0.0,0.0,0.0,0.0,0.0,0.0,0.0,0.0,0.0,0.0,0.0,0.0,0.0,0.0,0.0,0.0,0.0,0.0,0.0,0.0,0.0,0.0,0.0,0.0,0.0,0.0,0.0,0.0,0.0,0.0,0.0,0.0,0.0,0.0,0.0,0.0,0.0,0.0,0.0,0.0,0.0,0.0,0.0,0.0,0.0,0.0,0.0,0.0,0.0,0.0,0.0,0.0,0.0,0.0,0.0,0.0,0.0,0.0,0.0,0.0,0.0,0.0,0.0,0.0,0.0,0.0,0.0,0.0,0.0,0.0,0.0,0.0,0.0,0.0,0.0,0.0,0.0,0.0,0.0,0.0,2.1392,2.2947,2.737,2.9583,2.8035,2.7661,2.5457,2.0612,0.0,0.0,0.0,0.0,0.0,0.0,0.0,0.0,0.0,0.0,0.0,0.0,0.0,0.0,0.0,0.0,0.0,0.0,0.0,0.0,0.0,0.0,0.0,0.0,0.0,0.0,0.0,0.0,0.0,0.0,0.0,0.0,0.0,0.0,0.0,0.0,0.0,0.0,0.0,0.0,0.0,0.0,0.0,0.0,0.0,0.0,0.0,0.0,0.0,0.0,0.0,0.0,0.0,0.0,0.0,0.0,0.0,0.0,0.0,0.0,0.0,0.0,0.0,0.0,0.0,0.0,0.0,0.0,0.0,0.0,0.0,0.0,0.0,0.0,0.0,0.0,0.0,0.0,0.0,0.0,0.0,0.0,0.0,0.0,0.0,0.0,0.0,0.0,0.0,0.0,0.0,0.0,0.0,0.0,0.0,0.0,0.0,0.0,0.0,0.0,0.0,0.0,0.0,0.0,2.0732,2.5325,2.7892,2.892,2.7979,2.661,2.4207,2.0537,0.0,0.0,0.0,0.0,0.0,0.0,0.0,0.0,0.0,0.0,0.0,0.0,0.0,0.0,0.0,0.0,0.0,0.0,0.0,0.0,0.0,0.0,0.0,0.0,0.0,0.0,0.0,0.0,0.0,0.0,0.0,0.0,0.0,0.0,0.0,0.0,0.0,0.0,0.0,0.0,0.0,0.0,0.0,0.0,0.0,0.0,0.0,0.0,0.0,0.0,0.0,0.0,0.0,0.0,0.0,0.0,0.0,0.0,0.0,0.0,0.0,0.0,0.0,0.0,0.0,0.0,0.0,0.0,0.0,0.0,0.0,0.0,0.0,0.0,0.0,0.0,0.0,0.0,0.0,0.0,0.0,0.0,0.0,0.0,0.0,0.0,0.0,0.0,0.0,0.0,0.0,0.0,0.0,0.0,0.0,0.0,0.0,0.0,0.0,0.0,0.0,0.0,0.0,1.9861,2.1725,2.6047,2.7668,2.8104,2.7267,2.5698,2.3878,2.1833,1.9993,0.0,0.0,0.0,0.0,0.0,0.0,0.0,0.0,0.0,0.0,0.0,0.0,0.0,0.0,0.0,0.0,0.0,0.0,0.0,0.0,0.0,0.0,0.0,0.0,0.0,0.0,0.0,0.0,0.0,0.0,0.0,0.0,0.0,0.0,0.0,0.0,0.0,0.0,0.0,0.0,0.0,0.0,0.0,0.0,0.0,0.0,0.0,0.0,0.0,0.0,0.0,0.0,0.0,0.0,0.0,0.0,0.0,0.0,0.0,0.0,0.0,0.0,0.0,0.0,0.0,0.0,0.0,0.0,0.0,0.0,0.0,0.0,0.0,0.0,0.0,0.0,0.0,0.0,0.0,0.0,0.0,0.0,0.0,0.0,0.0,0.0,0.0,0.0,0.0,0.0,0.0,0.0,0.0,0.0,0.0,0.0,0.0,0.0,0.0,0.0,0.0,0.0,2.1948,2.3073,2.5976,2.6891,2.6959,2.6111,2.4359,2.3033,2.2372,1.9368,0.0,0.0,0.0,0.0,0.0,0.0,0.0,0.0,0.0,0.0,0.0,0.0,0.0,0.0,0.0,0.0,0.0,0.0,0.0,0.0,0.0,0.0,0.0,0.0,0.0,0.0,0.0,0.0,0.0,0.0,0.0,0.0,0.0,0.0,0.0,0.0,0.0,0.0,0.0,0.0,0.0,0.0,0.0,0.0,0.0,0.0,0.0,0.0,0.0,0.0,0.0,0.0,0.0,0.0,0.0,0.0,0.0,0.0,0.0,0.0,0.0,0.0,0.0,0.0,0.0,0.0,0.0,0.0,0.0,0.0,0.0,0.0,0.0,0.0,0.0,0.0,0.0,0.0,0.0,0.0,0.0,0.0,0.0,0.0,0.0,0.0,0.0,0.0,0.0,0.0,0.0,0.0,0.0,0.0,0.0,0.0,0.0,0.0,0.0,0.0,0.0,0.0,2.2365,2.4284,2.5284,2.5505,2.5245,2.4446,2.2085,2.0677,2.0666,1.8223,0.0,0.0,0.0,0.0,0.0,0.0,0.0,0.0,0.0,0.0,0.0,0.0,0.0,0.0,0.0,0.0,0.0,0.0,0.0,0.0,0.0,0.0,0.0,0.0,0.0,0.0,0.0,0.0,0.0,0.0,0.0,0.0,0.0,0.0,0.0,0.0,0.0,0.0,0.0,0.0,0.0,0.0,0.0,0.0,0.0,0.0,0.0,0.0,0.0,0.0,0.0,0.0,0.0,0.0,0.0,0.0,0.0,0.0,0.0,0.0,0.0,0.0,0.0,0.0,0.0,0.0,0.0,0.0,0.0,0.0,0.0,0.0,0.0,0.0,0.0,0.0,0.0,0.0,0.0,0.0,0.0,0.0,0.0,0.0,0.0,0.0,0.0,0.0,0.0,0.0,0.0,0.0,0.0,0.0,0.0,0.0,0.0,0.0,0.0,0.0,0.0,0.0,2.1723,2.2968,2.4399,2.4561,2.4058,2.2742,2.1301,2.0681,2.1227,0.0,0.0,0.0,0.0,0.0,0.0,0.0,0.0,0.0,0.0,0.0,0.0,0.0,0.0,0.0,0.0,0.0,0.0,0.0,0.0,0.0,0.0,0.0,0.0,0.0,0.0,0.0,0.0,0.0,0.0,0.0,0.0,0.0,0.0,0.0,0.0,0.0,0.0,0.0,0.0,0.0,0.0,0.0,0.0,0.0,0.0,0.0,0.0,0.0,0.0,0.0,0.0,0.0,0.0,0.0,0.0,0.0,0.0,0.0,0.0,0.0,0.0,0.0,0.0,0.0,0.0,0.0,0.0,0.0,0.0,0.0,0.0,0.0,0.0,0.0,0.0,0.0,0.0,0.0,0.0,0.0,0.0,0.0,0.0,0.0,0.0,0.0,0.0,0.0,0.0,0.0,0.0,0.0,0.0,0.0,0.0,0.0,0.0,0.0,0.0,0.0,0.0,2.0133,2.1034,2.1825,2.278,2.289,2.2234,2.0623,1.974,1.9722,2.0847,0.0,0.0,0.0,0.0,0.0,0.0,0.0,0.0,0.0,0.0,0.0,0.0,0.0,0.0,0.0,0.0,0.0,0.0,0.0,0.0,0.0,0.0,0.0,0.0,0.0,0.0,0.0,0.0,0.0,0.0,0.0,0.0,0.0,0.0,0.0,0.0,0.0,0.0,0.0,0.0,0.0,0.0,0.0,0.0,0.0,0.0,0.0,0.0,0.0,0.0,0.0,0.0,0.0,0.0,0.0,0.0,0.0,0.0,0.0,0.0,0.0,0.0,0.0,0.0,0.0,0.0,0.0,0.0,0.0,0.0,0.0,0.0,0.0,0.0,0.0,0.0,0.0,0.0,0.0,0.0,0.0,0.0,0.0,0.0,0.0,0.0,0.0,0.0,0.0,0.0,0.0,0.0,0.0,0.0,0.0,0.0,0.0,0.0,0.0,0.0,0.0,0.0,1.8802,2.0444,2.1255,2.0395,2.0301,1.9638,1.8023,1.7098,1.7346,0.0,0.0,0.0,0.0,0.0,0.0,0.0,0.0,0.0,0.0,0.0,0.0,0.0,0.0,0.0,0.0,0.0,0.0,0.0,0.0,0.0,0.0,0.0,0.0,0.0,0.0,0.0,0.0,0.0,0.0,0.0,0.0,0.0,0.0,0.0,0.0,0.0,0.0,0.0,0.0,0.0,0.0,0.0,0.0,0.0,0.0,0.0,0.0,0.0,0.0,0.0,0.0,0.0,0.0,0.0,0.0,0.0,0.0,0.0,0.0,0.0,0.0,0.0,0.0,0.0,0.0,0.0,0.0,0.0,0.0,0.0,0.0,0.0,0.0,0.0,0.0,0.0,0.0,0.0,0.0,0.0,0.0,0.0,0.0,0.0,0.0,0.0,0.0,0.0,0.0,0.0,0.0,0.0,0.0,0.0,0.0,0.0,0.0,0.0,0.0,0.0,0.0,0.0,2.0257,2.0591,2.0581,2.0339,1.9786,1.8783,1.7123,1.6751,1.7349,1.9085,0.0,0.0,0.0,0.0,0.0,0.0,0.0,0.0,0.0,0.0,0.0,0.0,0.0,0.0,0.0,0.0,0.0,0.0,0.0,0.0,0.0,0.0,0.0,0.0,0.0,0.0,0.0,0.0,0.0,0.0,0.0,0.0,0.0,0.0,0.0,0.0,0.0,0.0,0.0,0.0,0.0,0.0,0.0,0.0,0.0,0.0,0.0,0.0,0.0,0.0,0.0,0.0,0.0,0.0,0.0,0.0,0.0,0.0,0.0,0.0,0.0,0.0,0.0,0.0,0.0,0.0,0.0,0.0,0.0,0.0,0.0,0.0,0.0,0.0,0.0,0.0,0.0,0.0,0.0,0.0,0.0,0.0,0.0,0.0,0.0,0.0,0.0,0.0,0.0,0.0,0.0,0.0,0.0,0.0,0.0,0.0,0.0,0.0,0.0,0.0,0.0,0.0,2.0048,1.9698,1.9303,1.9297,1.8589,1.757,1.6222,1.6118,1.6412,1.7126,0.0,0.0,0.0,0.0,0.0,0.0,0.0,0.0,0.0,0.0,0.0,0.0,0.0,0.0,0.0,0.0,0.0,0.0,0.0,0.0,0.0,0.0,0.0,0.0,0.0,0.0,0.0,0.0,0.0,0.0,0.0,0.0,0.0,0.0,0.0,0.0,0.0,0.0,0.0,0.0,0.0,0.0,0.0,0.0,0.0,0.0,0.0,0.0,0.0,0.0,0.0,0.0,0.0,0.0,0.0,0.0,0.0,0.0,0.0,0.0,0.0,0.0,0.0,0.0,0.0,0.0,0.0,0.0,0.0,0.0,0.0,0.0,0.0,0.0,0.0,0.0,0.0,0.0,0.0,0.0,0.0,0.0,0.0,0.0,0.0,0.0,0.0,0.0,0.0,0.0,0.0,0.0,0.0,0.0,0.0,0.0,0.0,0.0,0.0,0.0,0.0,0.0,1.8878,1.8186,1.7702,1.7794,1.7006,1.6174,1.5444,1.5394,1.5154,1.4602,0.0,0.0,0.0,0.0,0.0,0.0,0.0,0.0,0.0,0.0,0.0,0.0,0.0,0.0,0.0,0.0,0.0,0.0,0.0,0.0,0.0,0.0,0.0,0.0,0.0,0.0,0.0,0.0,0.0,0.0,0.0,0.0,0.0,0.0,0.0,0.0,0.0,0.0,0.0,0.0,0.0,0.0,0.0,0.0,0.0,0.0,0.0,0.0,0.0,0.0,0.0,0.0,0.0,0.0,0.0,0.0,0.0,0.0,0.0,0.0,2.5908,2.5833,0.0,0.0,0.0,0.0,0.0,0.0,0.0,0.0,0.0,0.0,0.0,0.0,0.0,0.0,0.0,0.0,0.0,0.0,0.0,0.0,0.0,0.0,0.0,0.0,0.0,0.0,0.0,0.0,0.0,0.0,0.0,0.0,0.0,0.0,0.0,0.0,0.0,0.0,0.0,0.0,1.9563,1.8018,1.7045,1.7736,1.6464,1.5516,1.5347,1.5365,1.6179,1.8008,1.6263,0.0,0.0,0.0,0.0,0.0,0.0,0.0,0.0,0.0,0.0,0.0,0.0,0.0,0.0,0.0,0.0,0.0,0.0,0.0,0.0,0.0,0.0,0.0,0.0,0.0,0.0,0.0,0.0,0.0,0.0,0.0,0.0,0.0,0.0,0.0,0.0,0.0,0.0,0.0,0.0,0.0,0.0,0.0,0.0,0.0,0.0,0.0,0.0,0.0,0.0,0.0,0.0,0.0,0.0,0.0,0.0,0.0,0.0,0.0,2.6776,2.6303,0.0,0.0,0.0,0.0,0.0,0.0,0.0,0.0,0.0,0.0,0.0,0.0,0.0,0.0,0.0,0.0,0.0,0.0,0.0,0.0,0.0,0.0,0.0,0.0,0.0,0.0,0.0,0.0,0.0,0.0,0.0,0.0,0.0,0.0,0.0,0.0,0.0,0.0,0.0,0.0,1.9821,1.7963,1.6987,1.8291,1.7272,1.6503,1.6547,1.6577,1.6825,1.7335,1.7242,0.0,0.0,0.0,0.0,0.0,0.0,0.0,0.0,0.0,0.0,0.0,0.0,0.0,0.0,0.0,0.0,0.0,0.0,0.0,0.0,0.0,0.0,0.0,0.0,0.0,0.0,0.0,0.0,0.0,0.0,0.0,0.0,0.0,0.0,0.0,0.0,0.0,0.0,0.0,0.0,0.0,0.0,0.0,0.0,0.0,0.0,0.0,0.0,0.0,0.0,0.0,0.0,0.0,3.0559,3.0965,3.0849,3.1661,3.1352,3.0095,2.8454,2.7383,2.6882,2.7451,0.0,0.0,0.0,0.0,0.0,0.0,0.0,0.0,0.0,0.0,0.0,0.0,0.0,0.0,0.0,0.0,0.0,0.0,0.0,0.0,0.0,0.0,2.3485,2.4148,2.4449,2.3915,2.1395,0.0,0.0,0.0,0.0,0.0,0.0,0.0,0.0,0.0,0.0,0.0,2.0114,1.8222,1.7335,1.8929,1.8316,1.7819,1.7882,1.7883,1.7368,1.6136,1.8292,1.9062,0.0,0.0,0.0,0.0,0.0,0.0,0.0,0.0,0.0,0.0,0.0,0.0,0.0,0.0,0.0,0.0,0.0,0.0,0.0,0.0,0.0,0.0,0.0,0.0,0.0,0.0,0.0,0.0,0.0,0.0,0.0,0.0,2.8456,2.6958,0.0,0.0,0.0,0.0,0.0,0.0,0.0,0.0,0.0,0.0,0.0,0.0,0.0,2.8936,2.8945,3.0511,3.0994,3.0443,3.2029,3.2367,3.1681,3.2541,3.3228,3.3673,3.2676,0.0,2.7765,2.7065,0.0,0.0,0.0,0.0,0.0,0.0,0.0,0.0,0.0,0.0,0.0,0.0,0.0,0.0,0.0,0.0,0.0,0.0,0.0,0.0,0.0,0.0,2.6197,2.6294,2.6852,2.6881,2.5063,2.3539,2.2479,2.235,2.23,2.2291,0.0,0.0,0.0,0.0,0.0,0.0,2.11,1.9126,1.8011,1.8987,1.8316,1.7794,1.7813,1.7877,1.8125,1.8671,1.7045,1.793,2.207,2.0348,0.0,0.0,0.0,0.0,0.0,0.0,0.0,0.0,0.0,0.0,0.0,0.0,0.0,0.0,0.0,0.0,0.0,0.0,0.0,0.0,0.0,0.0,0.0,0.0,0.0,0.0,0.0,0.0,0.0,2.9943,2.9957,2.8319,2.9593,2.9979,0.0,0.0,0.0,0.0,0.0,0.0,0.0,0.0,0.0,3.0849,3.17,3.2396,3.288,3.4079,3.4485,3.4156,3.5375,3.5278,3.4021,3.4872,3.5201,3.5085,3.4214,3.2977,3.1487,3.0105,2.8657,2.7316,0.0,0.0,0.0,0.0,2.6995,2.7911,2.7213,2.6968,2.6841,2.6106,0.0,0.0,0.0,0.0,0.0,0.0,0.0,2.4079,2.5548,2.6243,2.6781,2.77,2.7752,2.7504,2.7256,2.6154,2.4974,2.4219,2.395,2.3701,2.3227,2.2324,0.0,0.0,0.0,2.0384,2.1389,2.0157,1.9362,1.9799,1.9496,1.9264,1.9264,1.9747,2.021,2.062,2.0072,2.0762,2.3066,2.2519,2.2846,0.0,0.0,0.0,0.0,0.0,0.0,0.0,0.0,0.0,0.0,0.0,0.0,0.0,0.0,0.0,0.0,0.0,0.0,0.0,0.0,0.0,0.0,0.0,0.0,0.0,0.0,0.0,0.0,3.0704,3.1071,2.9186,3.0849,3.1391,0.0,0.0,0.0,0.0,0.0,0.0,3.2396,3.288,3.3305,3.375,3.5027,3.5897,3.6342,3.7386,3.7909,3.7909,3.8334,3.8102,3.7309,3.7483,3.7464,3.7251,3.6168,3.5452,3.4872,3.2706,3.0666,2.8974,2.9187,2.9322,2.9363,2.8942,2.9406,3.0216,2.9819,2.9806,2.9647,2.7689,2.7459,2.747,2.5021,0.0,0.0,0.0,0.0,2.5145,2.6762,2.7121,2.7414,2.8855,2.8565,2.813,2.879,2.8383,2.7498,2.6159,2.555,2.5108,2.4557,2.3206,0.0,2.3133,2.1998,2.133,2.2142,2.149,2.0983,2.103,2.1037,2.1043,2.1043,2.1643,2.2055,2.2103,2.2724,2.3223,2.3496,2.4082,2.4219,2.3848,0.0,0.0,0.0,0.0,0.0,0.0,0.0,0.0,0.0,0.0,0.0,0.0,0.0,0.0,0.0,0.0,0.0,0.0,0.0,0.0,0.0,0.0,0.0,0.0,0.0,0.0,0.0,0.0,0.0,2.8365,3.1004,0.0,0.0,0.0,0.0,3.1681,3.3209,3.4176,3.4253,3.5781,3.6303,3.5588,3.7947,3.8876,3.8083,3.9765,4.0597,4.0578,3.9804,4.021,4.1622,4.0075,4.021,4.1583,3.9939,3.8295,3.6516,3.3189,3.1679,3.1356,2.9803,2.9632,3.0054,2.8508,2.8906,2.9992,2.8525,2.8472,2.904,2.8906,2.8855,2.8493,2.6631,2.6548,0.0,0.0,2.6871,2.7668,2.8779,2.8917,2.8989,2.9836,2.9897,2.9788,2.9826,2.9657,2.9093,2.7733,2.6866,2.6312,2.6278,0.0,2.4927,2.4981,2.4205,2.3694,2.3937,2.3268,2.2779,2.2774,2.2777,2.2765,2.2765,2.2875,2.2933,2.2933,2.3037,2.3477,2.4316,2.4375,2.4766,2.5566,2.1445,0.0,0.0,0.0,0.0,0.0,0.0,0.0,0.0,0.0,0.0,0.0,0.0,0.0,0.0,0.0,0.0,0.0,0.0,0.0,0.0,0.0,0.0,0.0,0.0,0.0,0.0,0.0,0.0,3.377,3.5222,0.0,3.5113,3.4515,3.4426,3.5035,3.5665,3.6497,3.763,3.8779,3.9514,3.9746,4.1177,4.2067,4.2318,4.2937,4.3247,4.3247,4.2937,4.2802,4.2821,4.2222,4.197,4.1932,4.081,3.9669,3.8392,3.6052,3.4097,3.2529,3.193,3.1881,3.2034,3.1457,3.16,3.1896,3.0755,3.0529,3.054,2.9327,2.8606,2.8065,2.7331,2.735,2.7714,2.8118,2.8429,2.8852,2.9794,2.989,2.9807,3.0046,2.9992,2.9902,2.9902,2.9853,2.968,2.9279,2.8455,2.7471,2.6388,2.5662,2.5203,2.5107,2.4462,2.4015,2.4081,2.3848,2.348,2.2956,2.2894,2.2902,2.2905,2.3446,2.379,2.383,2.4397,2.4869,2.5215,2.5234,2.5371,2.5684,2.2598,2.2051,0.0,0.0,0.0,0.0,0.0,0.0,0.0,0.0,0.0,0.0,0.0,0.0,0.0,0.0,0.0,0.0,0.0,0.0,0.0,0.0,0.0,0.0,0.0,0.0,0.0,3.468,3.6658,3.75,3.8541,3.8988,3.8521,3.7685,3.7332,3.7674,3.8272,3.9127,4.0268,4.1448,4.2183,4.2434,4.3496,4.423,4.4601,4.4766,4.4751,4.4525,4.4461,4.3983,4.3153,4.2908,4.2323,4.1454,4.0681,3.9688,3.8528,3.7386,3.5762,3.3963,3.3654,3.3538,3.3479,3.287,3.3014,3.3338,3.2396,3.1698,3.102,2.978,2.9034,2.8624,2.853,2.8556,2.8775,2.9424,2.9599,2.9734,3.0344,3.0352,3.0171,3.0122,2.9992,2.9902,2.9902,2.9902,2.9934,3.0022,2.9262,2.8195,2.6923,2.6101,2.5625,2.5611,2.4985,2.461,2.4908,2.4706,2.433,2.3807,2.3739,2.3747,2.3771,2.4563,2.4965,2.4772,2.5556,2.5908,2.5703,2.5977,2.6133,2.6133,2.3633,2.3457,2.5703,0.0,0.0,0.0,0.0,0.0,0.0,0.0,0.0,0.0,0.0,0.0,0.0,0.0,0.0,0.0,0.0,0.0,0.0,0.0,0.0,0.0,0.0,0.0,3.3887,3.6115,3.8116,3.9085,4.0633,4.1034,3.9391,4.0063,4.0288,3.9514,4.1092,4.2086,4.2125,4.373,4.4239,4.3388,4.4832,4.5279,4.4626,4.5143,4.5053,4.4437,4.4208,4.3675,4.2925,4.2181,4.1343,4.0453,3.9825,3.8547,3.6942,3.6903,3.6439,3.5646,3.4775,3.4427,3.4234,3.2551,3.2875,3.4032,3.3114,3.1711,3.0324,3.0292,3.0312,3.0324,3.0292,3.0312,3.0318,3.0394,3.0417,3.0428,3.0479,3.0352,3.0184,3.0136,3.0007,2.9918,2.9918,2.9918,2.9918,2.9918,2.9238,2.8479,2.8019,2.7079,2.6458,2.6619,2.5928,0.0,2.6486,2.5919,2.5437,2.5437,2.5436,2.5473,2.5567,2.6283,2.6474,2.582,2.6446,2.6512,2.5801,2.6582,2.7051,2.707,2.4668,2.3418,2.3437,0.0,0.0,0.0,0.0,0.0,0.0,0.0,0.0,0.0,0.0,0.0,0.0,0.0,0.0,0.0,0.0,0.0,0.0,0.0,0.0,0.0,3.4035,3.5571,3.5678,3.8973,4.1953,4.3465,4.4476,4.4914,4.4557,4.3674,4.3073,4.2941,4.3525,4.4136,4.4717,4.5128,4.5221,4.497,4.5278,4.5378,4.5184,4.5323,4.5304,4.513,4.444,4.3981,4.3751,4.3063,4.1917,4.0492,4.0462,3.9456,3.7793,3.7154,3.6767,3.6497,3.5665,3.5336,3.5278,3.4795,3.4116,3.3379,3.3106,3.1918,3.0499,3.0394,3.0447,3.0499,3.0394,3.0447,3.0519,3.054,3.055,3.054,3.051,3.046,3.0409,3.0394,3.0328,3.026,3.026,3.0267,3.026,3.026,2.995,2.9456,2.8753,2.8452,2.8145,2.7621,2.7332,2.7044,2.6659,2.6419,2.6265,2.6265,2.6275,2.6554,2.7249,2.7526,2.7605,2.7527,2.7706,2.7746,2.7598,2.7812,2.8242,2.8867,2.8203,2.8144,0.0,0.0,0.0,0.0,0.0,0.0,0.0,0.0,0.0,0.0,0.0,0.0,0.0,0.0,0.0,0.0,0.0,0.0,0.0,0.0,0.0,0.0,3.6632,3.8588,3.9353,4.1604,4.4067,4.6511,4.7124,4.7258,4.695,4.6139,4.5341,4.4729,4.4833,4.5147,4.561,4.5563,4.551,4.551,4.5381,4.5169,4.4844,4.509,4.4876,4.4288,4.4036,4.3555,4.2869,4.2161,4.0927,3.9314,3.9518,3.864,3.7057,3.6949,3.6709,3.6342,0.0,0.0,0.0,0.0,3.406,3.256,3.256,3.17,3.0588,3.05,3.054,3.0588,3.05,3.054,3.0598,3.0598,3.0598,3.0666,3.0975,3.1042,3.1032,3.103,3.1009,3.0901,3.0516,3.0725,3.0868,3.0502,3.0636,0.0,2.9704,2.9262,2.889,2.8467,2.8121,2.7832,2.7659,2.7351,2.714,2.714,2.7171,2.743,2.7989,2.8388,0.0,0.0,0.0,2.8778,2.8848,2.8848,0.0,0.0,0.0,3.0391,3.0898,3.0898,0.0,0.0,2.9531,2.9121,0.0,0.0,0.0,0.0,0.0,0.0,0.0,0.0,0.0,0.0,0.0,0.0,0.0,0.0,0.0,0.0,3.9873,4.2109,4.3872,4.4289,4.5464,4.8344,4.8761,4.8458,4.7491,4.7476,4.6908,4.5325,4.5321,4.54,4.54,4.5381,0.0,0.0,0.0,4.4834,4.4212,4.4661,4.425,4.294,4.3472,4.2867,4.1313,4.0573,3.9338,3.7755,3.802,3.7178,3.5708,3.6559,3.6439,3.5704,3.5704,3.5704,3.5607,3.4833,3.3518,3.2087,3.2087,0.0,0.0,3.0888,3.0888,3.0888,3.0888,3.0888,3.0888,3.0888,3.0888,3.1052,3.1758,3.1941,3.195,3.1948,3.1956,3.1725,3.0953,3.132,3.156,3.0788,3.1193,3.1405,3.0634,2.9709,2.9104,2.9236,2.8651,2.8409,2.9036,2.8497,2.8055,2.8055,2.8116,0.0,2.8384,2.9101,2.9272,2.8635,2.9255,2.9679,2.9746,2.9746,3.0117,3.0879,3.0898,3.0898,3.0898,3.0898,3.0898,3.0879,3.0215,2.9434,0.0,0.0,0.0,0.0,0.0,0.0,0.0,0.0,0.0,0.0,0.0,0.0,0.0,0.0,0.0,4.0025,4.2014,4.4023,4.6354,4.7851,4.8685,4.8685,4.9254,4.9064,4.7548,4.6944,4.626,4.5268,4.5321,4.54,4.54,4.53,4.5256,4.5256,4.5061,4.4891,4.4767,4.4843,4.4768,4.4469,4.3952,0.0,4.2147,4.1468,4.0234,3.8651,3.8942,3.8064,3.6485,3.6779,3.6439,3.5704,3.5704,3.5704,3.5684,3.551,3.4795,3.3905,3.3905,3.3325,3.2618,3.2618,3.2618,3.2618,3.2618,3.2618,0.0,3.2618,3.2618,3.2638,3.2812,3.285,3.285,3.284,3.2849,3.28,3.2626,3.218,3.1763,3.159,3.1116,3.0692,3.0518,3.0282,3.0144,3.0227,3.0059,2.9729,2.9244,2.904,2.8953,2.8945,2.9013,2.9361,3.0133,3.0347,3.043,3.0411,3.0535,3.0643,3.0644,3.0644,3.0723,3.0898,3.0898,3.0898,3.0898,3.0898,3.0898,3.0918,3.1445,3.123,0.0,0.0,0.0,0.0,0.0,0.0,0.0,0.0,0.0,0.0,0.0,3.5861,3.7711,0.0,4.0524,4.3261,4.4743,4.6278,4.8344,5.0088,5.0694,4.9443,5.0391,5.0163,4.7643,4.7498,4.6863,4.5171,4.5109,4.5154,4.5154,4.5084,4.5057,4.5057,4.4943,4.4706,4.4308,4.4706,4.4706,4.4289,4.3891,4.3246,4.2356,4.1193,3.9981,3.8822,3.9076,3.8458,3.7228,3.6999,3.6439,3.5704,3.5704,3.5704,3.5646,3.5201,3.4775,3.4331,3.3905,3.346,3.3102,3.3102,3.3102,3.3102,3.3102,3.3102,3.3102,3.3102,3.3102,3.3198,3.3634,3.375,3.375,3.375,3.374,3.3633,3.3188,3.31,3.2984,3.2529,3.2452,3.2173,3.1293,3.1118,3.0962,3.0557,3.0477,3.0293,2.9901,2.9852,2.9852,2.9843,2.9941,3.0189,3.0665,3.0754,3.0826,3.0894,3.0896,3.0898,3.0898,3.0898,3.0898,3.0898,3.0898,3.1113,3.1543,3.1543,3.1758,3.2168,3.3002,3.2483,0.0,0.0,0.0,0.0,0.0,0.0,0.0,3.4055,3.5211,3.6268,3.7356,3.8858,4.1254,4.2201,4.349,4.6131,4.7181,4.823,4.9917,5.1319,5.1679,5.0296,5.1338,5.0978,4.7946,4.7984,4.7283,4.5066,4.4895,4.4895,4.4895,4.4895,4.4895,4.4895,4.4895,4.4592,4.3947,4.4573,4.4573,4.3929,4.3929,4.3398,4.2356,4.101,3.9854,3.8928,3.9066,3.8722,3.8078,3.7411,3.6767,3.6187,3.6187,3.6187,3.6071,3.5201,3.4988,3.5046,3.4331,3.4088,3.4088,3.4088,3.4088,3.4088,3.4088,3.4088,3.4088,3.4088,3.3972,3.404,3.4911,3.5007,3.493,3.5104,3.5007,3.4679,3.4002,3.4272,3.4389,3.3518,3.3924,3.3905,3.2319,3.2048,3.1709,3.0674,3.0509,3.0509,3.0519,3.0509,3.049,3.0519,3.0625,3.0719,3.0737,3.0833,3.0905,3.0905,3.1053,3.1152,3.1152,3.1309,3.1387,3.1387,3.1387,3.1738,3.2422,3.2422,3.2773,3.3418,3.4241,3.3432,3.246,3.1743,3.1648,3.2956,3.3486,3.4813,0.0,3.9646,3.9766,4.1762,4.2283,4.2632,4.3379,4.4416,4.5762,4.7586,4.8258,4.914,5.0827,5.1225,5.1263,5.1092,5.1225,5.0599,4.8723,4.7283,4.6032,4.499,4.4895,4.4895,4.4895,4.4895,4.4895,4.4895,4.4895,4.4857,4.4762,4.4857,4.4857,4.4762,4.4762,4.3929,4.2393,4.2223,4.1275,3.974,3.9279,3.9181,3.9238,3.84,3.8005,3.7928,3.7928,3.7928,3.7812,3.6942,3.7116,3.7754,3.7657,3.7638,3.7638,3.7638,3.7638,3.7638,3.7638,3.7638,3.7638,3.7638,3.7077,3.669,3.756,3.7193,3.6826,3.7599,3.7174,3.6593,3.6497,3.5994,3.5298,3.4408,3.4331,3.4079,3.3121,3.2947,3.2425,3.082,3.053,3.0519,3.0588,3.055,3.052,3.0588,3.0656,3.0756,3.0873,3.0898,3.0898,3.0898,3.1621,3.2051,3.2051,3.2734,3.3125,3.3125,3.3125,3.3164,3.3262,3.3262,3.3301,3.3418,3.428,3.4124,3.4092,3.3979,3.415,3.4358,3.6253,3.849,4.0081,4.1137,4.2152,4.3567,4.4284,4.4938,4.5853,4.6801,4.7778,4.8708,4.9155,4.9822,5.1035,5.077,5.0637,5.1149,5.0334,4.9273,4.806,4.7757,4.6885,4.5047,4.5369,4.5653,4.5653,4.5653,4.5653,4.5653,4.5653,4.5407,4.4895,4.5407,4.5407,4.4895,4.4895,4.4023,4.2412,4.2412,4.1529,4.0001,3.9868,3.9631,3.9347,3.9064,3.8663,3.8199,3.8199,3.8508,3.8856,3.7986,3.7889,3.8199,3.8199,3.8199,3.8199,3.8199,3.8199,3.8199,3.8199,3.8199,3.8199,3.8199,3.7947,3.7735,3.8121,3.7928,3.7754,3.8121,3.7928,3.7657,3.7657,3.7386,3.7058,3.669,3.6613,3.6187,3.4833,3.4621,3.404,3.2319,3.1603,3.1091,3.0656,3.0588,3.0608,3.0714,3.0733,3.0801,3.0897,3.0898,3.1113,3.1621,3.1992,3.2402,3.2871,3.3223,3.3398,3.3398,3.3398,3.3652,3.416,3.416,3.4414,3.4922,3.5243,3.5212,3.4813,3.5533,3.6481,3.6329,3.9115,4.1821,4.1539,4.3043,4.4674,4.5357,4.5833,4.6379,4.7167,4.7847,4.8466,4.8851,4.9397,5.0099,5.1045,5.0258,4.9879,5.0751,4.9349,4.8003,4.715,4.7624,4.7245,4.5407,4.5843,4.6297,4.6525,4.6525,4.6525,4.6525,4.6525,4.6222,4.5596,4.5994,4.588,4.5255,4.5009,4.4023,4.2393,4.192,4.1117,4.0101,4.0248,4.0191,3.9991,4.0134,3.9959,3.9611,3.9611,3.9997,4.0462,3.9843,3.9321,3.8914,3.8914,3.9069,3.9204,3.8992,3.9069,3.9204,3.8992,3.8914,3.8914,3.8914,3.874,3.8605,3.8856,3.874,3.8624,3.8856,3.8914,3.8914,3.8914,3.9088,3.9108,3.8644,3.876,3.8373,3.6671,3.6187,3.553,3.404,3.3073,3.2126,3.1062,3.0733,3.0656,3.0791,3.0791,3.0918,3.1229,3.1269,3.1621,3.248,3.2754,3.3144,3.373,3.3984,3.4121,3.4121,3.4121,3.4434,3.5059,3.5059,3.5371,3.5996,3.5957,3.5952,3.396,3.5514,3.775,3.9361,4.1711,4.395,4.5153,4.6749,4.7991,4.8163,4.7553,4.6945,4.6608,4.6885,4.7242,4.7593,4.8664,4.9838,5.1017,4.9784,4.9026,4.9822,4.8458,4.7112,4.6297,4.6259,4.6241,4.6165,4.6184,4.6544,4.7321,4.7359,4.7359,4.7359,4.7359,4.734,4.7321,4.6582,4.6184,4.6146,4.5293,4.4023,4.2356,4.0704,4.0015,4.0101,4.0248,4.0844,4.174,4.1873,4.2415,4.315,4.315,4.3169,4.3189,4.315,4.2125,4.0713,4.0713,4.1235,4.1757,4.0965,4.1255,4.1738,4.0965,4.0713,4.0713,4.0713,4.0113,3.9661,4.05,4.0075,3.9681,4.052,4.0713,4.0713,4.0713,4.1332,4.139,3.9765,4.0133,4.0172,3.8431,3.7425,3.6574,3.5742,3.4872,3.3692,3.199,3.1081,3.0656,3.0791,3.0791,3.117,3.2089,3.2168,3.25,3.3301,3.416,3.4648,3.4668,3.5469,3.5918,3.5918,3.5918,3.5937,3.5957,3.5957,3.5976,3.5996,3.5996,3.5996,3.6784,3.8831,4.1079,4.253,4.4361,4.6168,4.7415,4.7983,4.8236,4.8271,4.6612,4.4924,4.4243,4.4455,4.4994,4.5862,4.7467,4.901,5.0174,4.9386,4.859,4.8268,4.7264,4.6259,4.5426,4.5862,4.5956,4.5388,4.6373,4.7112,4.7378,4.7946,4.8249,4.8249,4.8249,4.7719,4.6601,4.6866,4.643,4.5331,4.4497,4.3512,4.2375,4.1275,4.0786,4.0832,4.0959,4.1608,4.2535,4.2668,4.2965,4.3305,4.3305,4.3305,4.3305,4.3305,4.2937,4.2454,4.2454,4.2647,4.2725,4.1874,4.1777,4.1951,4.168,4.1603,4.1719,4.2299,4.2241,4.2086,4.2376,4.2241,4.2106,4.2396,4.2454,4.2454,4.2454,4.2667,4.2512,4.1371,4.139,4.1061,3.9359,3.8818,3.8141,3.6709,3.4844,3.3209,3.2087,3.2232,3.2047,3.0973,3.1861,3.2443,3.2226,3.2695,3.3359,3.4219,3.4531,3.4961,3.5547,3.584,3.5996,3.5996,3.5996,3.5996,3.5996,3.5996,3.5996,3.5996,3.5996,3.6309,3.9369,4.169,4.39,4.5225,4.6557,4.7764,4.8472,4.8237,4.7662,4.6941,4.4906,4.2918,4.1832,4.1681,4.2179,4.3633,4.5036,4.6657,4.8715,4.8306,4.7813,4.7851,4.7131,4.6411,4.5843,4.6297,4.6392,4.5843,4.7074,4.7984,4.8268,4.8818,4.9121,4.9121,4.9121,4.8609,4.7529,4.7738,4.7018,4.535,4.4516,4.3682,4.2848,4.2014,4.1635,4.1635,4.1855,4.247,4.3329,4.3538,4.3854,4.4214,4.4543,4.4659,4.4697,4.5007,4.5123,4.4949,4.373,4.3498,4.3614,4.2744,4.2686,4.2879,4.257,4.2454,4.2589,4.315,4.3305,4.3305,4.3305,4.3305,4.3305,4.3305,4.3537,4.3769,4.3769,4.3982,4.3846,4.2686,4.2454,4.1932,4.0249,3.9719,3.8914,3.7193,3.5599,3.4187,3.3028,3.3197,3.2992,3.1913,3.2754,3.332,3.3105,3.3574,3.4238,3.5117,3.5156,3.543,3.5976,3.5996,3.5996,3.5996,3.5996,3.5996,3.5996,3.5996,3.5996,3.6016,3.6281,3.6723,4.1619,4.3968,4.61,4.7341,4.8187,4.862,4.8271,4.7479,4.6286,4.43,4.2574,4.0944,3.9369,3.8751,3.9087,4.107,4.1764,4.3348,4.6973,4.6828,4.6961,4.8496,4.7965,4.7434,4.7371,4.7434,4.7472,4.7472,4.823,4.9026,4.9784,4.986,4.9898,4.9898,4.9898,4.9879,4.9822,4.9026,4.7795,4.6184,4.5369,4.4516,4.3663,4.2848,4.2469,4.2492,4.2794,4.3426,4.423,4.4562,4.5186,4.6013,4.6844,4.7173,4.727,4.8101,4.8392,4.7947,4.4697,4.4078,4.4581,4.3711,4.3962,4.4446,4.3614,4.3363,4.3382,4.3421,4.344,4.344,4.344,4.344,4.344,4.344,4.4059,4.4659,4.4659,4.5258,4.5297,4.3634,4.3227,4.2667,4.1081,4.0113,3.9011,3.7375,3.7166,3.6523,3.475,3.3942,3.3498,3.3417,3.3476,3.3848,3.4629,3.4746,3.5117,3.5957,3.5996,3.5996,3.5996,3.5996,3.5996,3.5996,3.5996,3.5996,3.5996,3.6035,3.6074,3.6094,3.6878,3.7276,4.4116,4.5948,4.7332,4.7978,4.7832,4.7407,4.7059,4.494,4.274,4.1633,3.9224,3.6834,3.5222,3.6462,3.8147,3.9547,4.2557,4.5584,4.8034,4.8704,4.8775,4.8305,4.8304,4.8018,4.7118,4.7832,4.8363,4.8363,4.8553,4.878,4.8988,4.9557,4.9898,4.9898,4.9898,4.9595,4.9007,4.8155,4.7207,4.6203,4.5975,4.5103,4.3682,4.3474,4.3379,4.336,4.3453,4.4386,4.5831,4.6071,4.6698,4.7554,4.7917,4.8063,4.8101,4.8314,4.8392,4.8275,4.7405,4.6825,4.6322,4.5452,4.491,4.4562,4.4349,4.4272,4.4388,4.4987,4.5162,4.5162,4.5162,4.5162,4.5162,4.5162,4.5336,4.549,4.549,4.5664,4.5297,4.3634,4.228,4.1313,4.0926,4.0687,4.0191,3.9173,3.8523,3.729,3.4875,3.5012,3.4834,3.3535,3.4551,3.5156,3.4746,3.5293,3.5762,3.5996,3.5996,3.5996,3.5996,3.5996,3.5996,3.5996,3.5996,3.5996,3.5996,3.6641,3.6973,3.6992,3.7789,3.8549,4.6426,4.7939,4.903,4.9084,4.8214,4.7004,4.5729,4.3244,4.0564,3.8373,3.6236,3.4262,3.2632,3.3744,3.5602,3.7731,4.0321,4.336,4.7093,4.784,4.8192,4.8638,4.8713,4.8464,4.7791,4.834,4.8743,4.8743,4.9041,4.9216,4.9216,4.9633,4.9898,4.9898,4.9898,4.9671,4.9216,4.8723,4.8079,4.7283,4.7283,4.6601,4.5312,4.5312,4.5312,4.5331,4.5428,4.6035,4.6988,4.7222,4.7625,4.8158,4.8752,4.8972,4.901,4.9378,4.9494,4.9494,4.9494,4.8952,4.8101,4.7212,4.6631,4.6206,4.5819,4.5703,4.5703,4.578,4.58,4.58,4.58,4.6071,4.6264,4.5877,4.609,4.6264,4.5877,4.58,4.5297,4.3634,4.226,4.1274,4.0945,4.0923,4.0664,3.9862,3.9045,3.7834,3.6013,3.5919,3.5625,3.4648,3.543,3.5801,3.5312,3.5723,3.5996,3.5996,3.5996,3.5996,3.5996,3.5996,3.5989,3.5948,3.5968,3.6122,3.6482,3.697,3.7419,3.7809,3.8607,3.9257,4.8527,4.9691,5.056,5.0101,4.8568,4.6595,4.4168,4.1506,3.8536,3.4878,3.3484,3.2451,3.0948,3.1317,3.2873,3.6117,3.7216,3.9596,4.5268,4.5857,4.6566,4.8821,4.893,4.8781,4.8746,4.8781,4.8816,4.8816,4.9389,4.9797,4.9824,4.9824,4.9852,4.9898,4.9898,4.9898,4.9898,4.9898,4.9481,4.8685,4.8685,4.823,4.7397,4.7397,4.7397,4.7422,4.7571,4.7719,4.7838,4.8125,4.8315,4.8507,4.947,4.9861,4.9939,5.0654,5.0906,5.0906,5.0906,5.0442,4.9726,4.8856,4.8488,4.8237,4.7366,4.7096,4.6922,4.6051,4.58,4.58,4.58,4.6361,4.6728,4.5974,4.638,4.6709,4.5955,4.5722,4.52,4.3769,4.2841,4.2028,4.1228,4.114,4.089,4.0111,3.9247,3.8431,3.7725,3.6676,3.5996,3.5996,3.5996,3.5996,3.5996,3.5996,3.5996,3.5996,3.5996,3.5996,3.5996,3.5996,3.5971,3.5921,3.5891,3.6241,3.6936,3.7163,3.7649,3.8415,3.9342,3.9792,5.0435,5.0533,5.0276,4.9489,4.6985,4.4095,4.1687,3.7757,3.4063,3.2035,3.0966,3.0133,2.9192,3.0899,3.332,3.5938,3.779,4.04,4.4748,4.5892,4.6568,4.7406,4.8287,4.8676,4.8402,4.8658,4.8816,4.8816,4.8919,4.9137,4.9476,4.9506,4.9607,4.9879,4.9898,4.9898,4.9898,4.9898,4.9481,4.8685,4.8685,4.823,4.7397,4.7397,4.7397,4.7397,4.7448,4.7846,4.8561,4.8881,4.9391,5.0045,5.0518,5.0693,5.0712,5.0848,5.0906,5.0906,5.0906,5.0809,5.0558,4.9745,4.8991,4.8237,4.7366,4.7096,4.6922,4.6051,4.58,4.58,4.58,4.5896,4.5993,4.5838,4.5916,4.5974,4.5819,4.5278,4.4736,4.4498,4.3763,4.2931,4.2189,4.2071,4.182,4.1069,4.0221,3.9607,3.9471,3.744,3.5996,3.5996,3.5996,3.5996,3.5996,3.5996,3.5996,3.5996,3.5996,3.5996,3.5996,3.5996,3.5995,3.5986,3.5931,3.5977,3.6105,3.7497,3.826,3.8435,3.9971,4.0694,5.1203,5.154,5.1431,5.058,4.7552,4.3955,4.0673,3.6544,3.2705,3.026,2.9445,2.9065,2.8659,3.01,3.2176,3.4668,3.594,3.8372,4.3267,4.4114,4.4934,4.6875,4.7792,4.8153,4.801,4.8132,4.8231,4.8231,4.8231,4.8477,4.9038,4.9302,4.9548,4.9898,4.9898,4.9898,4.9898,4.9898,4.9709,4.9311,4.9311,4.9102,4.8685,4.8685,4.8685,4.8685,4.8685,4.901,4.9518,4.972,5.0122,5.0567,5.0805,5.0906,5.0906,5.0906,5.0906,5.0906,5.0906,5.0906,5.0848,5.0461,5.0035,4.9552,4.8701,4.814,4.7579,4.6709,4.6477,4.6477,4.6477,4.7154,4.7599,4.6689,4.6129,4.5819,4.5877,4.5587,4.52,4.4833,4.4446,4.3918,4.3111,4.2624,4.2232,4.1874,4.073,3.9906,3.9901,3.8418,3.7187,3.6719,3.6269,3.5996,3.5996,3.5996,3.5996,3.5996,3.5996,3.5996,3.5996,3.5996,3.5976,3.5957,3.5923,3.6312,3.7146,3.7955,3.8806,3.9676,4.0481,4.0868,5.1532,5.2309,5.2543,5.1508,4.7938,4.3703,4.0002,3.562,3.1655,2.9112,2.8316,2.8171,2.8533,2.915,3.0509,3.3348,3.3825,3.5766,4.1304,4.1926,4.299,4.6084,4.7034,4.7518,4.7681,4.7717,4.7717,4.7717,4.7717,4.7992,4.8658,4.9155,4.9537,4.9769,4.9852,4.9898,4.9898,4.9898,4.9898,4.9898,4.9898,4.9898,4.9898,4.9898,4.9898,4.9898,4.9898,5.0012,5.0212,5.0339,5.0527,5.072,5.0858,5.0906,5.0906,5.0906,5.0906,5.0906,5.0906,5.0906,5.0906,5.0906,5.079,5.05,4.9668,4.8933,4.8217,4.7347,4.7231,4.7386,4.7386,4.8256,4.8759,4.7231,4.6457,4.609,4.6027,4.6009,4.5841,4.522,4.5128,4.4912,4.4044,4.3372,4.2891,4.2715,4.1406,4.0449,4.0449,3.9512,3.8613,3.793,3.6914,3.6289,3.6289,3.6113,3.5996,3.5996,3.5996,3.5996,3.5996,3.5996,3.6055,3.6191,3.6191,3.6889,3.8345,3.8487,3.9255,4.0539,4.0713,4.079,5.1756,5.2395,5.2441,5.0891,4.623,4.1379,3.8862,3.3502,2.8949,2.8641,2.7453,2.6874,2.8316,2.8069,2.8909,3.2817,3.2863,3.4127,3.9,4.0254,4.156,4.41,4.5711,4.6902,4.7645,4.7717,4.7717,4.7717,4.7717,4.7888,4.8326,4.9023,4.9396,4.9427,4.9741,4.9898,4.9898,4.9898,4.9898,4.9898,4.9898,4.9898,4.9898,4.9898,4.9898,4.9898,4.9898,5.0012,5.0212,5.0339,5.0527,5.072,5.0858,5.0906,5.0906,5.0906,5.0906,5.0906,5.0906,5.0906,5.0906,5.0906,5.0422,4.9649,4.8778,4.8469,4.8217,4.7347,4.7676,4.8275,4.8275,4.7811,4.7134,4.6297,4.6593,4.6902,4.6239,4.6094,4.6093,4.6067,4.6085,4.5828,4.5004,4.4804,4.4492,4.3691,4.2773,4.2168,4.2168,4.0762,3.9746,3.9668,3.8164,3.7187,3.7187,3.6465,3.5996,3.5996,3.5996,3.5996,3.5996,3.5996,3.6367,3.7168,3.7109,3.7539,3.8473,3.9146,3.9565,3.9739,4.0462,4.079,4.9655,5.089,5.0964,4.9294,4.4978,4.04,3.7787,3.2595,2.8218,2.7751,2.6745,2.6363,2.7646,2.7634,2.8413,3.1455,3.1274,3.227,3.6616,3.7504,3.9097,4.2918,4.4367,4.5743,4.7536,4.7717,4.7717,4.7717,4.7717,4.7783,4.7929,4.8439,4.8922,4.9384,4.9537,4.9712,4.9898,4.9898,4.9898,4.9898,4.9898,4.9898,4.9898,4.9898,4.9898,4.9898,4.9898,5.0012,5.0212,5.0339,5.0527,5.072,5.0858,5.0906,5.0906,5.0906,5.0906,5.0906,5.0906,5.0906,5.0906,5.0906,5.0364,4.9726,4.9861,4.9571,4.9107,4.8759,4.8914,4.9184,4.9184,4.8546,4.7811,4.7579,4.7347,4.7149,4.6989,4.7352,4.7592,4.7138,4.7039,4.6772,4.5936,4.5351,4.4883,4.4531,4.373,4.2988,4.2461,4.1816,4.1211,4.0723,3.9121,3.8086,3.8086,3.7754,3.7559,3.7559,3.7559,3.7324,3.6797,3.7285,3.748,3.7305,3.7793,3.8457,3.9277,3.9538,3.9898,4.0397,4.0655,4.079,4.6686,4.8415,4.8972,4.7543,4.3485,3.9155,3.6716,3.1594,2.7299,2.7049,2.591,2.5479,2.6993,2.7202,2.7949,3.045,3.0474,3.1409,3.4956,3.5742,3.7458,4.1397,4.2774,4.4349,4.6757,4.7428,4.7717,4.7717,4.7717,4.7717,4.7717,4.797,4.8458,4.9188,4.9334,4.9566,4.9898,4.9898,4.9898,4.9898,4.9898,4.9898,4.9898,4.9898,4.9898,4.9898,4.9898,5.0012,5.0212,5.0339,5.0527,5.072,5.0858,5.0906,5.0906,5.0906,5.0906,5.0906,5.0906,5.0906,5.0906,5.0906,5.0519,5.0171,5.0732,5.0345,4.9707,4.9707,4.9881,4.9997,4.9765,4.9455,4.9088,4.8638,4.8271,4.8017,4.7922,4.8399,4.8655,4.8082,4.7988,4.7715,4.6836,4.6172,4.5683,4.543,4.4648,4.3867,4.3242,4.2949,4.2578,4.1992,4.0605,3.9512,3.9023,3.875,3.8594,3.8594,3.8594,3.832,3.7715,3.8262,3.8437,3.8086,3.8672,3.9372,4.018,4.0115,4.036,4.09,4.0829,4.079,4.2904,4.5018,4.6542,4.5724,4.1594,3.7309,3.5697,3.0201,2.5728,2.6783,2.4949,2.3929,2.6542,2.6719,2.7395,3.0053,3.084,3.1918,3.4279,3.5636,3.7147,3.9189,4.08,4.2683,4.5091,4.6776,4.7717,4.7717,4.7717,4.7717,4.7717,4.7699,4.8053,4.8781,4.9188,4.9566,4.9898,4.9898,4.9898,4.9898,4.9898,4.9898,4.9898,4.9898,4.9898,4.9898,4.9898,5.0012,5.0212,5.0339,5.0527,5.072,5.0858,5.0906,5.0906,5.0906,5.0906,5.0906,5.0906,5.0906,5.0906,5.0906,5.0906,5.0906,5.0906,5.0345,4.9707,4.9707,5.0268,5.0712,4.9919,5.0384,5.065,4.8977,4.9296,4.977,4.9031,4.8886,4.8906,4.8887,4.8887,4.8613,4.7734,4.7578,4.7285,4.6426,4.5547,4.498,4.4961,4.4219,4.3672,4.3672,4.2891,4.1699,4.0039,3.9101,3.8594,3.8594,3.8594,3.8594,3.8594,3.8594,3.9004,3.9863,3.9883,4.029,4.1105,4.1019,4.0952,4.09,4.0829,4.079,3.79,3.9297,4.0009,3.9222,3.6524,3.3683,3.2092,2.8315,2.5122,2.5086,2.3885,2.3293,2.4864,2.5068,2.5948,2.8935,2.9515,3.049,3.2997,3.4178,3.6107,3.9732,4.3516,4.6106,4.6866,4.7409,4.7717,4.7717,4.7717,4.7717,4.7717,4.7717,4.7929,4.8421,4.88,4.9169,4.9548,4.9797,4.9898,4.9898,4.9898,4.9898,4.9898,4.9898,4.9898,4.9898,4.9898,4.9952,5.0012,5.0193,5.0358,5.0527,5.0682,5.0825,5.0906,5.0906,5.0906,5.0906,5.0906,5.0906,5.0906,5.0906,5.0906,5.0906,5.0906,5.0732,5.0519,5.0519,5.0712,5.0848,5.0596,5.0364,5.0095,4.9604,4.9749,4.9955,4.9814,5.0215,5.0449,4.9902,4.9785,4.9512,4.8633,4.7988,4.7519,4.7226,4.6953,4.6348,4.5156,4.5273,4.5019,4.3828,4.3457,4.2832,4.1699,4.0859,4.0371,4.0371,4.0371,4.0117,3.9512,4.0059,4.0234,3.9902,4.0485,4.0888,4.1093,4.1067,4.1009,4.09,4.0829,4.079,3.317,3.4854,3.5738,3.5207,3.3442,3.1407,2.9866,2.7061,2.4689,2.4162,2.3256,2.2873,2.392,2.4475,2.5646,2.8285,2.9176,3.0299,3.2481,3.4008,3.6412,4.0492,4.4421,4.6794,4.6794,4.7355,4.7717,4.7717,4.7717,4.7717,4.7717,4.7717,4.7824,4.809,4.8421,4.8887,4.9396,4.9625,4.9769,4.9898,4.9898,4.9898,4.9898,4.9898,4.9898,4.9898,4.9898,4.9898,0.0,5.0114,5.0287,5.0425,5.0625,5.0791,5.0906,5.0906,5.0906,5.0906,5.0906,5.0906,5.0906,5.0906,5.0906,5.0906,5.0906,5.0906,5.0925,5.0964,5.0983,5.0983,5.1022,5.0693,5.0385,5.0425,5.0491,5.0563,5.0622,5.1055,5.125,5.0742,5.0644,5.0371,4.9531,4.8945,4.8476,4.8144,4.8086,4.7695,4.6601,4.666,4.6367,4.5293,4.457,4.3965,4.3437,4.2324,4.1641,4.1641,4.1367,4.0957,4.041,4.0918,4.0937,4.0391,4.0922,4.114,4.1062,4.1013,4.0938,4.0848,4.081,4.079,0.0,3.1258,3.2931,3.2931,3.1637,2.9954,2.8499,2.625,0.0,2.3887,2.3033,2.27,2.3721,2.476,2.6111,2.8144,2.9609,3.1063,3.2631,3.513,3.8026,4.1397,4.3969,4.5454,4.5399,4.6794,4.7681,4.7627,4.7681,4.7681,4.7627,4.7681,4.7717,4.7717,4.8032,4.8605,4.9334,4.9384,4.9566,4.9898,4.9898,4.9898,4.9898,4.9898,4.9898,4.9898,4.9898,4.9898,4.9906,5.0089,5.0264,5.0404,5.0606,5.0754,5.089,5.089,5.0906,5.0906,5.0906,5.0906,5.0906,5.0906,5.0906,5.0906,5.0906,5.0925,5.0945,5.1061,5.1095,5.1111,5.1169,5.125,5.1293,5.1293,5.1347,5.1406,5.1406,5.1406,5.1406,5.1406,5.1406,5.1152,5.041,5.0234,4.9922,4.9101,4.8984,4.8965,4.8906,4.8242,4.7754,4.7695,4.6191,4.5176,4.5176,4.3535,4.2461,4.2402,4.1699,4.1269,4.1191,4.1191,4.1191,4.1191,4.1191,4.1136,4.1013,4.0925,4.0887,4.0887,4.0945,4.0984,2.4748,0.0,2.6625,2.6625,2.6322,2.5794,0.0,2.4684,2.4364,2.3887,2.3443,2.3575,2.4941,2.4503,2.4997,2.832,2.942,3.0663,3.3002,3.7435,4.098,4.2448,4.5291,4.6902,4.6287,4.712,4.7446,4.683,4.7355,4.7446,4.6812,4.7373,4.7717,4.7717,4.7783,4.821,4.8919,4.927,4.9566,4.9898,4.9898,4.9898,4.9898,4.9898,4.9898,4.9898,4.9898,4.9898,4.9906,4.9933,5.0089,5.0264,5.0423,5.0587,5.0756,5.0858,5.0906,5.0906,5.0906,5.0906,5.0906,5.0906,5.0906,5.0906,5.0906,5.0983,5.1061,5.1099,5.1153,5.1172,5.1191,5.125,5.1293,5.1293,5.1347,5.1406,5.1406,5.1406,5.1406,5.1406,5.1406,5.1348,5.1152,5.0605,5.0137,4.9922,4.9883,4.9648,4.8984,4.9297,4.9336,4.8672,4.7637,4.6992,4.6992,4.4785,4.3105,4.2441,4.2226,4.1836,4.123,4.1191,4.1191,4.1191,4.115,4.1115,4.1078,4.155,4.1783,4.1803,4.2434,4.2705,2.3393,2.4188,2.5,2.5,2.5,2.4859,2.4262,2.4054,2.3926,2.3665,2.351,2.3849,2.5338,2.5057,2.576,2.9229,3.0229,3.178,3.5169,3.8545,4.1343,4.3226,4.5309,4.6721,4.7029,4.712,4.6975,4.654,4.6558,4.6576,4.6504,4.692,4.7319,4.7699,4.7717,4.8053,4.8781,4.9005,4.9377,4.9898,4.9898,4.9898,4.9898,4.9898,4.9898,4.9898,4.9898,4.9898,4.9925,4.9986,5.012,5.031,5.0466,5.0644,5.0808,5.0874,5.0906,5.0906,5.0906,5.0906,5.0906,5.0906,5.0906,5.0925,5.0983,5.1061,5.1149,5.1153,5.1183,5.1249,5.1283,5.1323,5.1354,5.1354,5.1371,5.1406,5.1406,5.1406,5.1406,5.1406,5.1406,5.1406,5.1406,5.1035,5.0742,5.0742,5.0742,5.0586,5.0117,5.0137,4.9863,4.8984,4.8125,4.7441,4.7031,4.5703,4.4512,4.3652,4.3223,4.2793,4.2363,4.2344,4.2344,4.2344,4.2255,4.2192,4.2199,4.2504,4.2653,4.2653,4.3111,4.3305,2.3562,2.456,2.5575,2.5456,2.5439,2.527,2.4659,2.4002,2.3562,2.3562,2.3562,2.4049,2.5554,2.6196,2.7431,3.0473,3.187,3.4028,3.8158,3.9514,4.1107,4.3769,4.5037,4.6106,4.7228,4.6939,4.654,4.616,4.5725,4.5671,4.6106,4.625,4.6631,4.7319,4.7337,4.7743,4.863,4.8742,4.9182,4.9898,4.9898,4.9898,4.9898,4.9898,4.9898,4.9898,4.9898,4.9925,4.9959,5.0139,5.0287,5.0425,5.0625,5.0773,5.0874,5.089,5.0906,5.0906,5.0906,5.0906,5.0906,5.0906,5.0925,5.0964,5.108,5.1157,5.1218,5.1229,5.1256,5.1322,5.1396,5.1406,5.1406,5.1406,5.1406,5.1406,5.1406,5.1406,5.1406,5.1406,5.1406,5.1406,5.1406,5.1406,5.1406,5.1406,5.1406,5.1406,5.1406,5.0801,5.0098,4.9355,4.8398,4.75,4.6758,4.6445,4.5976,4.5254,4.4375,4.3848,4.3711,4.3691,4.369,4.3681,4.3565,4.3514,4.3475,4.3501,4.3518,4.3498,4.3614,4.3672,2.4337,2.4949,2.5456,2.4814,2.4661,2.4659,2.454,2.4421,2.4337,2.4337,2.4337,2.4856,2.6639,2.7607,2.9012,3.1653,3.4658,3.7756,4.0727,4.2448,4.3552,4.4041,4.6015,4.6902,4.578,4.6794,4.6667,4.4621,4.5617,4.578,4.453,4.511,4.5544,4.5653,4.5671,4.6375,4.7757,4.8463,4.9182,4.9898,4.9898,4.9898,4.9898,4.9898,4.9898,4.9898,4.9898,4.9986,5.0163,5.0188,5.0287,5.0425,5.0625,5.072,5.0738,5.0858,5.0906,5.0906,5.0906,5.0906,5.0906,5.0906,5.0983,5.108,5.1099,5.1196,5.1289,5.1276,5.1334,5.1398,5.1406,5.1406,5.1406,5.1406,5.1406,5.1406,5.1406,5.1406,5.1406,5.1406,5.1406,5.1406,5.1406,5.1406,5.1406,5.1406,5.1406,5.1406,5.1406,5.1289,5.1152,5.1035,4.9629,4.8652,4.8516,4.7148,4.623,4.6113,4.5273,4.4473,4.373,4.3691,4.3677,4.3618,4.3608,4.3537,4.3414,4.415,4.4452,4.4427,4.5104,4.5413,2.4625,2.5321,2.6116,2.5761,2.5389,2.5084,2.5084,2.478,2.4743,2.5507,2.5676,2.6383,2.8612,2.9551,3.1017,3.4327,3.7271,3.9752,4.1469,4.1977,4.281,4.453,4.4965,4.5327,4.5888,4.5834,4.5291,4.4168,4.4385,4.4421,4.4114,4.444,4.4838,4.5291,4.5469,4.6012,4.694,4.7495,4.8476,4.9898,4.9898,4.9898,4.9898,4.9898,4.9898,4.9898,4.9898,5.0012,5.0212,5.0287,5.0402,5.0567,5.0736,5.0808,5.0825,5.0874,5.0906,5.0906,5.0906,5.0906,5.0925,5.0983,5.1061,5.1119,5.1196,5.1254,5.1312,5.1331,5.139,5.1406,5.1406,5.1406,5.1406,5.1406,5.1406,5.1406,5.1406,5.1406,5.1406,5.1406,5.1406,5.1406,5.1406,5.1406,5.1406,5.1406,5.1406,5.1406,5.1406,5.1406,5.123,5.0801,4.9648,4.8711,4.8242,4.7461,4.6797,4.6328,4.5918,4.5527,4.5117,4.506,4.5045,4.5007,4.4935,4.4858,4.4813,4.5142,4.5278,4.5258,4.5626,4.58,2.5152,2.5828,2.6691,2.6691,2.6285,2.5979,2.6417,2.5956,2.5868,2.7334,2.7691,2.8288,2.9989,3.1323,3.329,3.685,3.9316,4.1071,4.1886,4.1615,4.2266,4.4729,4.4095,4.4114,4.578,4.4983,4.4222,4.3842,4.3407,4.3353,4.3788,4.3806,4.4095,4.4711,4.5058,4.5528,4.6104,4.6469,4.7636,4.9614,4.9614,4.9709,4.9898,4.9898,4.9898,4.9879,4.9933,5.0089,5.0264,5.0423,5.0567,5.0756,5.0858,5.0906,5.0906,5.0906,5.0906,5.0906,5.0906,5.0925,5.0964,5.108,5.1119,5.1177,5.1273,5.1312,5.1324,5.1386,5.1408,5.1406,5.1406,5.1406,5.1406,5.1406,5.1406,5.1406,5.1406,5.1406,5.1406,5.1406,5.1406,5.1406,5.1406,5.1406,5.1406,5.1406,5.1406,5.1406,5.1406,5.1406,5.1152,5.0547,4.9726,4.8848,4.7988,4.7891,4.7539,4.666,4.6406,4.6287,4.6287,4.6231,4.6201,4.6143,4.6046,4.5988,4.5949,4.5838,4.58,4.58,4.58,4.58,2.6556,2.6607,2.6691,2.6691,2.6657,2.7097,2.8903,2.8743,2.8639,3.0128,3.0712,3.067,2.9679,3.2474,3.5756,3.8258,4.0347,4.1904,4.2701,4.3407,4.3914,4.415,4.4729,4.4892,4.4331,4.4838,4.4584,4.3081,4.3607,4.3697,4.3009,4.2973,4.3009,4.3063,4.3378,4.411,4.53,4.5608,4.6788,4.878,4.878,4.9178,4.9898,4.9898,4.9898,4.9906,5.0089,5.0264,5.0404,5.0606,5.0773,5.089,5.089,5.0906,5.0906,5.0906,5.0906,5.0906,5.0906,5.0983,5.1099,5.1099,5.1177,5.1293,5.1293,5.1331,5.1391,5.1394,5.1406,5.1406,5.1406,5.1406,5.1406,5.1406,5.1406,5.1406,5.1406,5.1406,5.1406,5.1406,5.1406,5.1406,5.1406,5.1406,5.1406,5.1406,5.1406,5.1406,5.1406,5.1406,5.1387,5.1328,5.0586,4.9746,4.8887,4.8808,4.8437,4.7558,4.6758,4.6273,4.6203,4.6209,4.6143,4.6027,4.6007,4.5949,4.58,4.58,4.58,4.58,4.58,4.58,2.6133,2.6691,2.7283,2.681,2.7046,2.7707,2.8954,2.9593,3.0266,3.1452,3.303,3.3988,3.3526,3.542,3.7286,3.7936,4.0112,4.1995,4.2774,4.3154,4.3715,4.4729,4.4222,4.3878,4.4077,4.3914,4.3552,4.2936,4.3172,4.3208,4.29,4.2882,4.2882,4.2882,4.344,4.3934,4.4395,4.4918,4.5855,4.715,4.8193,4.9102,4.9898,4.9898,4.9898,4.9906,5.0114,5.0287,5.0425,5.0625,5.0791,5.0906,5.0906,5.0906,5.0906,5.0906,5.0906,5.0925,5.1003,5.1061,5.1119,5.1196,5.1254,5.131,5.1359,5.1375,5.1391,5.1403,5.1406,5.1406,5.1406,5.1406,5.1406,5.1406,5.1406,5.1406,5.1406,5.1406,5.1406,5.1406,5.1406,5.1406,5.1406,5.1406,5.1406,5.1406,5.1406,5.1406,5.1406,5.1406,5.1406,5.1406,5.0683,5.0025,4.9624,4.8632,4.8086,4.8216,4.7489,4.6795,4.6234,4.6123,4.6046,4.6007,4.593,4.5838,4.58,4.58,4.58,4.58,4.6361,4.6612,2.5744,2.6353,2.6996,2.6488,2.7097,2.8181,2.9547,3.0711,3.196,3.3768,3.507,3.6,3.6394,3.7292,3.8005,3.799,4.0274,4.2194,4.2484,4.2737,4.3208,4.4059,4.3407,4.3009,4.3317,4.2846,4.252,4.252,4.2285,4.2357,4.2864,4.2647,4.2629,4.2882,4.3557,4.3912,4.3912,4.4557,4.5331,4.6203,4.7359,4.8325,4.9102,4.9102,4.9102,4.9129,4.9363,4.9682,5.0023,4.9989,5.0188,5.0519,5.0519,5.0693,5.0848,5.0306,5.048,5.0945,5.0751,5.0906,5.1177,5.1273,5.1308,5.1346,5.1396,5.1406,5.1406,5.1406,5.1406,5.1406,5.1406,5.1406,5.1406,5.1406,5.1406,5.1406,5.1406,5.1406,5.1406,5.1406,5.1406,5.1406,5.1406,5.1406,5.1406,5.1406,5.1406,5.1406,5.1406,5.1406,5.1406,5.1406,5.0918,5.0527,5.0429,4.9374,4.8658,4.8594,4.8354,4.7608,4.6201,4.6283,4.6361,4.6341,4.6535,4.6477,4.6206,4.6477,4.6477,4.6225,4.7096,4.7502,2.5625,2.5625,2.5625,2.5625,2.6742,2.8523,3.1214,3.2409,3.3887,3.7404,3.6921,3.6174,3.738,3.7632,3.79,3.8669,4.1086,4.2592,4.1814,4.2375,4.2574,4.1796,4.2393,4.2556,4.1778,4.1668,4.1668,4.1668,4.0963,4.1198,4.2774,4.2122,4.2067,4.2846,4.3557,4.3893,4.3912,4.4557,4.5331,4.6184,4.6184,4.6601,4.7397,4.7397,4.7397,4.7422,4.7764,4.8391,4.9161,4.861,4.8914,4.9687,4.9687,5.0171,5.0693,4.901,4.9533,5.0945,5.0109,5.0457,5.1293,5.1308,5.1354,5.1406,5.1406,5.1406,5.1406,5.1406,5.1406,5.1406,5.1406,5.1406,5.1406,5.1406,5.1406,5.1406,5.1406,5.1406,5.1406,5.1406,5.1406,5.1406,5.1406,5.1406,5.1406,5.1406,5.1406,5.1406,5.1406,5.1406,5.1406,5.1406,5.1406,5.1367,5.1296,5.1293,5.0515,4.872,4.935,4.8658,4.6123,4.6786,4.7192,4.7115,4.7966,4.7985,4.7115,4.7985,4.7966,4.7134,4.8005,4.8411,2.637,2.6759,2.7165,2.7165,2.8298,3.0102,3.2783,3.3588,3.4961,3.9301,3.9384,3.8605,3.8472,3.9103,3.9103,3.7399,3.9428,4.0963,4.0184,4.0727,4.1126,4.089,4.1071,4.1126,4.089,4.0872,4.0872,4.0872,4.0637,4.0727,4.1198,4.0999,4.1324,4.2353,4.282,4.3439,4.4223,4.4681,4.5028,4.5293,4.5293,4.6032,4.7416,4.8022,4.7965,4.7441,4.8395,4.8602,4.8277,4.8359,4.8546,4.8798,4.8798,4.8933,4.9088,4.8643,4.8802,4.9343,4.9769,5.0136,5.0482,5.1167,5.1374,5.1406,5.1406,5.1406,5.1406,5.1406,5.1406,5.1406,5.1406,5.1406,5.1406,5.1406,5.1406,5.1406,5.1406,5.1406,5.1406,5.1406,5.1406,5.1406,5.1406,5.1406,5.1406,5.1406,5.1406,5.1406,5.1406,5.1406,5.1406,5.1406,5.1356,5.1306,5.1229,5.061,5.0012,4.9412,4.9025,4.8217,4.6902,4.7618,4.8024,4.8005,4.8275,4.8275,4.8024,4.8275,4.8275,4.8043,4.8914,4.932,2.5744,2.615,2.6708,2.757,2.8975,3.0913,3.4007,3.5821,3.7778,4.0869,4.0569,3.966,3.9517,3.9535,3.9155,3.7791,3.9229,4.0256,3.9496,4.0039,4.0401,4.0111,4.0329,4.0401,4.0093,4.0057,4.0057,4.0057,3.9767,3.9858,4.0492,4.022,4.0722,4.2139,4.2532,4.3256,4.4383,4.4732,4.4895,4.4895,4.4895,4.5426,4.643,4.7017,4.7029,4.6597,4.7775,4.7818,4.7141,4.8021,4.8198,4.7869,4.7869,4.8101,4.8372,4.7734,4.7951,4.8671,4.9301,4.9763,5.0224,5.1105,5.1406,5.1406,5.1406,5.1406,5.1328,5.1016,5.1152,5.1328,5.1016,5.1152,5.1406,5.1406,5.1406,5.1406,5.1406,5.1406,5.1406,5.1406,5.1406,5.1406,5.1406,5.1406,5.1406,5.1406,5.1406,5.1406,5.1406,5.1406,5.1381,5.1355,5.1307,5.1252,5.1167,5.0635,5.0132,4.9726,4.9513,4.903,4.8237,4.8662,4.8914,4.8914,4.9223,4.9243,4.8914,4.9243,4.9223,4.8933,4.9784,5.019,2.4458,2.4659,2.5118,2.7368,2.9265,3.1489,3.4972,3.844,4.1141,4.1889,4.0811,3.9894,4.051,3.946,3.8699,3.9297,3.9967,4.0148,3.9387,3.9876,4.0039,3.9369,3.9876,4.0039,3.9351,3.9278,3.9278,3.9278,3.8608,3.8842,4.0255,3.9675,4.0172,4.2018,4.2446,4.3173,4.4344,4.4714,4.4857,4.4781,4.4857,4.4857,4.4806,4.5163,4.5328,4.5409,4.6377,4.641,4.5916,4.7502,4.7695,4.698,4.698,4.7521,4.8101,4.6563,4.711,4.8613,4.8761,4.9425,5.0332,5.1133,5.1406,5.1387,5.1308,5.1289,5.1133,5.041,5.0723,5.1133,5.0488,5.0859,5.1406,5.1406,5.1406,5.1406,5.1406,5.1406,5.1406,5.1406,5.1406,5.1406,5.1406,5.1406,5.1406,5.1406,5.1406,5.1406,5.1406,5.1386,5.1372,5.1315,5.1293,5.1235,5.1119,5.1099,5.0732,4.9861,5.05,5.0577,4.9842,4.9803,4.9803,4.9803,5.0538,5.0538,4.9803,5.0538,5.0519,4.9823,5.0558,5.0906,2.5862,2.5795,2.5913,2.818,3.1432,3.4616,3.6646,3.844,3.99,4.0634,4.1497,4.1995,4.1542,4.118,4.0619,3.9568,3.9532,3.9351,3.8554,3.859,3.8627,3.8464,3.859,3.8627,3.8464,3.8445,3.8445,3.8445,3.8282,3.8452,3.9004,3.8857,3.9448,4.0969,4.1761,4.2716,4.3831,4.4549,4.4573,4.3966,4.4592,4.4607,4.4176,4.5513,4.6296,4.651,4.608,4.5851,4.5819,4.6187,4.6245,4.6071,4.6071,4.6264,4.6505,4.6183,4.6782,4.7876,4.8625,4.9467,5.0332,5.1133,5.1406,5.1289,5.0644,5.0469,5.043,5.0254,5.0312,5.0566,5.1016,5.1269,5.1406,5.1406,5.1406,5.1406,5.1406,5.1406,5.1406,5.1406,5.1406,5.1406,5.1406,5.1406,5.1406,5.1406,5.1406,5.1406,5.1406,5.1362,5.1321,5.1308,5.1215,5.1138,5.1099,5.1003,5.0867,5.0654,5.0809,5.0828,5.0654,5.0654,5.0654,5.0654,5.0809,5.0809,5.0654,5.0828,5.0809,5.0654,5.0828,5.0906,2.4898,2.5465,2.6461,2.9056,3.2286,3.5147,3.6327,3.756,3.8649,3.9417,4.0123,4.0513,4.0326,3.993,3.95,3.89,3.8826,3.8663,3.8246,3.8192,3.8047,3.7649,3.7957,3.8047,3.7649,3.7957,3.8192,3.8192,3.8192,3.8322,3.8585,3.8585,3.9246,4.0666,4.1142,4.1927,4.3076,4.3493,4.3493,4.3076,4.3512,4.3593,4.3483,4.5227,4.6146,4.6329,4.5499,4.5375,4.5761,4.5374,4.5452,4.58,4.5858,4.5969,4.606,4.6119,4.6735,4.7678,4.8588,4.9199,4.9726,5.0547,5.0547,5.0117,4.9707,4.957,4.9492,4.9062,4.9258,4.9668,5.0098,5.0508,5.0918,5.1308,5.1406,5.1406,5.1406,5.1406,5.1406,5.1406,5.1406,5.1406,5.1406,5.1406,5.1381,5.1349,5.1347,5.133,5.126,5.1239,5.1237,5.1161,5.1122,5.108,5.1022,5.0945,5.0906,5.0906,5.0906,5.0906,5.0906,5.0906,5.0906,5.0906,5.0906,5.0906,5.0906,5.0906,5.0906,5.0906,5.0906,5.0906,2.3511,2.4919,2.6937,2.9627,3.2222,3.4304,3.5118,3.6174,3.7153,3.7759,3.8091,3.843,3.8727,3.82,3.7828,3.8218,3.8231,3.8192,3.8192,3.8192,3.7884,3.712,3.7703,3.7866,3.7102,3.7721,3.8225,3.8274,3.8274,3.8401,3.8748,3.8748,3.9314,4.0534,4.0704,4.1235,4.2185,4.2337,4.2337,4.2204,4.2253,4.2482,4.2964,4.4504,4.5268,4.5336,4.4659,4.4755,4.5316,4.4659,4.4852,4.5606,4.5736,4.5918,4.6113,4.6176,4.6789,4.7695,4.8437,4.8769,4.9023,4.9746,4.9492,4.8867,4.8711,4.8672,4.8535,4.7793,4.8125,4.8711,4.8867,4.9551,5.0332,5.0859,5.1074,5.123,5.1367,5.1406,5.1406,5.1406,5.1406,5.1406,5.1406,5.1289,5.1222,5.1286,5.1164,5.1072,5.1097,5.1132,5.1117,5.1013,5.1032,5.1006,5.0925,5.0906,5.0906,5.0906,5.0906,5.0906,5.0906,5.0906,5.0906,5.0906,5.0906,5.0906,5.0906,5.0906,5.0906,5.0906,5.0906,5.089,2.4002,2.5658,2.7439,2.9128,3.1063,3.2802,3.3928,3.4584,3.4923,3.5028,3.7229,3.9159,3.92,3.8827,3.8577,3.8615,3.8383,3.8192,3.8192,3.8192,3.7884,3.712,3.7703,3.7866,3.7102,3.7721,3.8307,3.8541,3.8541,3.8778,3.9357,3.9383,3.9564,3.9996,4.0757,4.1192,4.137,4.2052,4.2052,4.137,4.1589,4.2142,4.2926,4.3404,4.362,4.3634,4.3518,4.3537,4.3634,4.3518,4.3982,4.4775,4.4846,4.537,4.6111,4.6177,4.6789,4.7617,4.7734,4.8262,4.8926,4.9043,4.8984,4.8769,4.8008,4.7773,4.7754,4.7637,4.7676,4.7949,4.8691,4.9551,5.0039,4.9394,4.9805,5.0547,5.125,5.1406,5.1406,5.1406,5.1406,5.1406,5.1406,5.082,5.0578,5.1208,5.0657,5.0393,5.1015,5.1015,5.096,5.0999,5.0957,5.0916,5.089,5.0906,5.0906,5.0906,5.0906,5.0906,5.0906,5.0906,5.0906,5.0906,5.0906,5.0906,5.0906,5.0906,5.0906,5.0906,5.0906,5.0805,2.4643,2.5565,2.6539,2.8242,2.9764,3.1219,3.2664,3.3434,3.3946,3.4403,3.5633,3.6837,3.7491,3.7128,3.7059,3.8222,3.791,3.7522,3.7522,3.7522,3.7051,3.5802,3.6743,3.7196,3.6399,3.7051,3.7849,3.8566,3.7759,3.7701,3.8726,3.877,3.8907,3.9229,4.0044,4.0479,4.0479,4.0385,4.0182,3.9925,4.0557,4.1119,4.1569,4.1788,4.2415,4.3266,4.2783,4.286,4.3266,4.2821,4.3137,4.3987,4.4581,4.5066,4.5491,4.6052,4.6827,4.7598,4.7598,4.7851,4.8164,4.8164,4.7832,4.7363,4.6992,4.6875,4.6875,4.6875,4.6875,4.7187,4.8555,4.918,4.9492,4.9609,4.9922,5.0156,5.0039,5.0,5.0137,5.0625,5.1065,5.1369,5.1385,5.0635,5.0308,5.1122,5.0433,5.01,5.0831,5.0889,5.0833,5.0833,5.0866,5.0899,5.0913,5.0909,5.0906,5.0906,5.0906,5.0906,5.0906,5.0906,5.0906,5.0906,5.0906,5.0906,5.0906,5.0906,5.0839,5.0736,5.0736,5.0681,2.4647,2.4971,2.5428,2.7076,2.834,2.9585,3.112,3.1945,3.2647,3.3458,3.3776,3.4251,3.5361,3.5309,3.5611,3.7156,3.7018,3.6689,3.6689,3.6689,3.6164,3.4769,3.5838,3.6381,3.5584,3.6263,3.7143,3.8044,3.7063,3.6864,3.7939,3.7999,3.8128,3.8357,3.8944,3.9267,3.9267,3.866,3.8439,3.8575,3.9312,3.9849,4.0203,4.0404,4.1274,4.2628,4.197,4.2067,4.2647,4.2048,4.2318,4.3179,4.395,4.4523,4.4983,4.5714,4.6523,4.7266,4.7266,4.7266,4.7266,4.7266,4.6836,4.6308,4.6308,4.6308,4.6308,4.6308,4.6465,4.6875,4.7969,4.873,4.9238,4.9219,4.9726,4.9961,4.9082,4.8906,4.916,5.0039,5.0641,5.1103,5.1338,5.0563,5.0208,5.1055,5.0331,4.9958,5.0713,5.0793,5.0757,5.0701,5.0793,5.0863,5.0899,5.0913,5.0909,5.0906,5.0906,5.0874,5.0841,5.0874,5.0874,5.0822,5.0874,5.0906,5.0906,5.0858,5.0771,5.0663,5.0567,5.0507,2.3448,2.3974,2.4592,2.5585,2.6677,2.7846,2.9144,2.9735,3.0207,3.102,3.1779,3.2557,3.34,3.4401,3.5134,3.5239,3.5612,3.5874,3.5874,3.5874,3.5566,3.4715,3.5367,3.5566,3.4751,3.5611,3.6389,3.6671,3.687,3.7111,3.7427,3.7427,3.7447,3.7466,3.7504,3.7523,3.7523,3.7485,3.7527,3.7661,3.7857,3.8428,3.9374,3.9496,4.0055,4.0926,4.0868,4.0906,4.1023,4.0965,4.148,4.2279,4.2399,4.3453,4.4905,4.5031,4.5625,4.6367,4.6367,4.6367,4.6367,4.6367,4.6348,4.6308,4.6308,4.6308,4.6308,4.6308,4.6894,4.7363,4.6621,4.8262,4.9512,4.707,4.8398,4.9961,4.9082,4.8906,4.916,5.0039,5.0234,5.0477,5.1186,5.0588,5.0264,5.0979,5.0298,4.998,5.0696,5.0738,5.0701,5.0701,5.0701,5.0757,5.0899,5.0899,5.0897,5.089,5.0906,5.0805,5.0606,5.0789,5.0805,5.0625,5.0805,5.0906,5.0906,5.0718,5.0718,5.0874,5.0427,5.023,2.3629,2.4104,2.4944,2.5799,2.593,2.6374,2.8386,2.8951,2.9264,3.0043,3.0858,3.151,3.1799,3.3051,3.4366,3.5393,3.5255,3.5041,3.5041,3.5041,3.4733,3.3936,3.4552,3.4975,3.4874,3.5209,3.5836,3.6777,3.5979,3.58,3.6594,3.6632,3.6632,3.6632,3.7125,3.7144,3.6632,3.7224,3.7355,3.6958,3.7621,3.8469,3.9425,3.9482,3.999,4.079,4.0848,4.0868,4.0919,4.0996,4.1199,4.1548,4.2136,4.2759,4.3426,4.4586,4.5195,4.5547,4.6113,4.6308,4.6308,4.6308,4.6308,4.6308,4.6308,4.6308,4.6285,4.6247,4.6463,4.6765,4.7006,4.7773,4.8379,4.8047,4.8672,4.9277,4.8965,4.9274,4.9711,5.0001,5.0425,5.0817,5.1125,5.0347,4.9994,5.0899,5.0209,4.9884,5.0767,5.0775,5.0701,5.0701,5.0701,5.0739,5.0829,5.0883,5.0897,5.089,5.0771,5.0682,5.0587,5.0508,5.0406,5.0342,5.0406,5.0548,5.0718,5.0644,5.0467,5.0191,5.0019,4.9943,2.3764,2.4042,2.4703,2.5584,2.519,2.5153,2.7327,2.7598,2.7707,2.8757,2.9626,3.0278,3.055,3.1691,3.294,3.4027,3.3737,3.3393,3.3393,3.3698,3.372,3.3174,3.3829,3.4436,3.4723,3.4731,3.5136,3.6114,3.5268,3.5016,3.5742,3.5761,3.5761,3.5761,3.6272,3.633,3.5837,3.6443,3.6583,3.6234,3.6862,3.7829,3.905,3.905,3.9707,4.0829,4.09,4.0928,4.0945,4.1052,4.1108,4.1198,4.1765,4.2344,4.2988,4.4141,4.4922,4.5527,4.6094,4.6308,4.6308,4.6308,4.6308,4.6308,4.6308,4.6278,4.6267,4.6208,4.6588,4.7017,4.7041,4.7237,4.7742,4.8984,4.9039,4.8965,4.9577,4.9642,4.9647,4.9933,5.0317,5.069,5.0992,5.0438,5.0195,5.0829,5.0366,5.0173,5.0805,5.0793,5.072,5.0701,5.0625,5.0587,5.0663,5.0625,5.0606,5.0662,5.0528,5.0425,5.0342,5.0252,5.0159,5.0087,5.0159,5.0252,5.032,5.032,5.0187,4.9917,4.9768,4.9703,0.0,0.0,0.0,2.4765,2.4393,2.4212,2.5805,2.557,2.5443,2.7019,2.7972,2.8811,2.959,3.0387,3.0912,3.0912,3.0966,3.0985,3.0985,3.1908,3.2559,3.2603,3.3256,3.3821,3.4136,3.4165,3.426,3.4545,3.4734,3.4851,3.4908,3.4908,3.4889,3.487,3.4889,3.4963,3.5066,3.5105,3.5251,3.5515,3.5496,3.6433,3.816,3.816,3.9146,4.088,4.0919,4.0975,4.1013,4.108,4.1135,4.1191,4.1191,4.2187,4.3633,4.3672,4.4766,4.623,4.6289,4.6308,4.6308,4.6308,4.6308,4.6308,4.6308,4.6248,4.6201,4.6201,4.7323,4.814,4.6549,4.6724,4.7749,4.9564,4.9298,4.9129,5.0908,4.9946,4.9013,4.9856,4.9913,5.0067,5.0777,5.0892,5.0873,5.0812,5.0793,5.0793,5.0793,5.0793,5.0775,5.0701,5.0467,5.032,5.0404,5.014,5.0068,5.0183,5.0183,5.0068,4.9811,5.0043,5.0062,4.9803,5.0062,5.0062,4.9803,4.9803,4.9917,5.0159,4.9731,4.949,2.4082,0.0,0.0,0.0,0.0,0.0,2.5099,2.5153,2.5135,2.557,2.6783,2.7815,2.8033,2.8721,2.9264,2.9264,3.0242,3.0985,3.0985,3.1266,3.1727,3.2504,3.2247,3.2404,3.3437,3.3032,3.3023,3.3904,3.3412,3.3619,3.4832,3.4908,3.4624,3.4055,3.4696,3.4785,3.4247,3.5009,3.543,3.5496,3.5596,3.6203,3.727,3.727,3.8257,3.9952,4.0033,4.0431,4.1071,4.1134,4.1179,4.1191,4.1191,4.1484,4.2031,4.3242,4.4004,4.4609,4.5859,4.6308,4.6308,4.6308,4.6308,4.6308,4.6308,4.6248,4.6201,4.6143,4.6413,4.6748,4.6864,4.7126,4.7804,4.952,4.9732,4.9858,5.0966,5.0761,5.0422,5.0604,5.0528,5.051,5.0721,5.076,5.076,5.0739,5.072,5.0775,5.0863,5.0846,5.081,5.0846,5.0527,5.0342,5.0446,5.0164,5.0068,5.0183,5.0019,4.9884,4.9784,4.9722,4.9644,4.9574,4.9644,4.9644,4.9574,4.9731,4.9768,4.9702,4.9563,4.9574,2.4556,2.4737,2.5335,2.5878,0.0,0.0,2.5244,2.4972,2.4592,2.4936,2.5751,2.6512,2.6856,2.7556,2.808,2.808,2.9174,3.0007,3.0007,3.0384,3.0903,3.1513,3.152,3.1825,3.2702,3.2366,3.2391,3.3108,3.2691,3.2842,3.3809,3.4207,3.4225,3.3804,3.4634,3.4926,3.4557,3.5199,3.5528,3.5565,3.5662,3.611,3.6903,3.6942,3.7735,3.912,3.9549,4.0082,4.0633,4.1023,4.1191,4.1191,4.1191,4.1406,4.1855,4.3203,4.3691,4.3945,4.5703,4.6039,4.5777,4.6168,4.6265,4.6225,4.6245,4.6192,4.6104,4.6065,4.6259,4.6573,4.7038,4.7768,4.8426,4.8701,4.955,5.037,5.0554,5.0728,5.0871,5.0892,5.0797,5.0702,5.0702,5.0702,5.0702,5.0702,5.0683,5.0683,5.0644,5.0625,5.0567,5.0527,5.021,5.0062,5.0197,4.9884,4.9768,4.9895,4.9759,4.9665,4.9665,4.9544,4.9509,4.9509,4.9509,4.9509,4.9509,4.9615,4.9615,4.9509,4.9509,4.9615,2.5153,2.4683,2.4683,2.6765,2.566,0.0,2.5769,2.4954,2.4103,2.4737,2.4936,2.5226,2.5932,2.6801,2.7381,2.729,2.8008,2.8587,2.8587,2.9418,3.0063,3.0226,3.0946,3.1576,3.1975,3.1899,3.1977,3.2256,3.2349,3.2368,3.2274,3.3106,3.3633,3.3751,3.4566,3.5097,3.5348,3.5457,3.5584,3.5704,3.5704,3.6071,3.6767,3.6833,3.7356,3.8315,3.9146,3.9654,3.9964,4.0737,4.1113,4.1191,4.1191,4.1641,4.2363,4.3242,4.3555,4.3789,4.5427,4.5514,4.5047,4.5859,4.6117,4.6107,4.6164,4.6104,4.6007,4.5988,4.6438,4.698,4.7076,4.8179,4.8933,4.7647,4.9015,5.0436,4.9837,5.0216,5.074,5.0835,5.0778,5.0702,5.0702,5.0702,5.0702,5.0702,5.0702,5.0585,5.032,5.0298,5.023,5.0043,4.9776,4.9646,4.9788,4.9476,4.9358,4.949,4.9509,4.9509,4.9509,4.9509,4.9509,4.9509,4.9509,4.9509,4.9509,4.9509,4.9509,4.9509,4.9521,4.9673,2.6149,2.6331,0.0,0.0,2.6077,0.0,2.5316,2.499,2.4628,2.4139,2.4556,2.5045,2.5208,2.6421,2.72,2.6548,2.7646,2.8587,2.8587,2.8764,2.9296,3.032,3.0033,3.0183,3.1277,3.0727,3.0631,3.1383,3.2027,3.2122,3.1478,3.2319,3.2822,3.2855,3.3839,3.4404,3.4455,3.5261,3.5673,3.5704,3.5704,3.5781,3.5936,3.5955,3.6508,3.7428,3.7622,3.8541,3.9908,4.0077,4.0566,4.1191,4.1191,4.1308,4.1523,4.2344,4.2656,4.279,4.3783,4.4463,4.4924,4.5045,4.5541,4.6107,4.6125,4.6065,4.5988,4.5858,4.5935,4.6206,4.6922,4.6825,4.6825,4.7908,4.8477,4.8948,4.9509,5.0195,5.072,5.072,5.0721,5.0702,5.0683,5.0702,5.0702,5.0702,5.0702,5.0585,5.032,5.0298,5.0233,5.0092,4.9803,4.9655,4.9795,4.9469,4.9358,4.949,4.9509,4.9509,4.9509,4.9509,4.9509,4.9509,4.9509,4.9509,4.9509,4.9509,4.9509,4.949,4.9665,4.9884,2.6928,0.0,0.0,2.7455,0.0,0.0,0.0,2.5986,2.5479,2.5081,2.5009,2.5009,2.5009,2.566,2.625,2.6362,2.7059,2.7885,2.8828,2.8845,2.9062,2.9811,2.9638,2.9701,3.0337,3.0084,3.0078,3.053,3.0928,3.0985,3.0587,3.1461,3.2218,3.2675,3.3692,3.4448,3.4932,3.545,3.5704,3.5704,3.5704,3.5704,3.5695,3.5736,3.6047,3.6607,3.752,3.817,3.8672,3.9531,4.0156,4.0586,4.1035,4.1191,4.1308,4.2109,4.2112,4.1935,4.3167,4.3834,4.4219,4.4664,4.5311,4.5956,4.6028,4.5988,4.5877,4.5819,4.6109,4.6438,4.6438,4.6767,4.7096,4.7096,4.8017,4.8916,4.8935,4.987,5.0702,5.0702,5.0702,5.0702,5.0702,5.0702,5.0702,5.0702,5.0565,5.0358,5.0087,4.9917,4.9803,4.9684,4.9499,4.9457,4.9655,4.9514,4.944,4.9509,4.9509,4.9509,4.9509,4.9509,4.9509,4.9509,4.9509,4.9509,4.9509,4.9509,4.9563,4.9655,4.9768,5.0019,0.0,0.0,0.0,0.0,0.0,2.7173,0.0,0.0,0.0,2.6358,2.5834,2.5324,2.516,2.5269,2.5512,2.6105,2.6528,2.7216,2.8479,2.8783,2.9,2.9316,2.9363,2.9457,2.9644,2.9786,2.9888,2.9888,2.9888,2.9888,2.9888,3.0731,3.1609,3.2524,3.3481,3.4465,3.5433,3.5626,3.5704,3.5704,3.5704,3.5704,3.5715,3.5795,3.5857,3.6004,3.7463,3.7793,3.7402,3.8828,3.9492,3.9746,4.0605,4.1055,4.1289,4.1906,4.1708,4.1287,4.2627,4.3118,4.3272,4.4026,4.4736,4.5374,4.5645,4.5645,4.5587,4.5761,4.6303,4.6689,4.5993,4.6844,4.754,4.6129,4.7445,4.8885,4.84,4.943,5.0491,5.0586,5.0604,5.0624,5.0683,5.0702,5.0683,5.0604,5.0358,5.0068,4.9776,4.9529,4.9352,4.9211,4.9197,4.9262,4.9459,4.9509,4.9509,4.9509,4.9509,4.9509,4.9509,4.9509,4.9509,4.9509,4.9509,4.9509,4.9509,4.9509,4.9574,4.974,4.983,5.0092,0.0,0.0,0.0,0.0,2.9641,0.0,0.0,0.0,2.7675,2.697,0.0,2.6469,2.5746,0.0,0.0,2.4855,2.6451,2.7474,2.6441,2.7546,2.8727,2.9476,2.897,2.8891,2.978,2.9888,2.9888,2.9888,2.9888,2.9888,2.9888,3.0233,3.0797,3.1629,3.2667,3.3643,3.4543,3.5298,3.5704,3.5704,3.5704,3.5723,3.5781,3.5852,3.593,3.5992,3.6211,3.668,3.7324,3.7519,3.8047,3.8828,3.9707,4.0527,4.1208,4.1232,4.118,4.1112,4.119,4.1661,4.2267,4.2299,4.2899,4.373,4.4523,4.4755,4.4891,4.5587,4.5858,4.5916,4.5815,4.596,4.6051,4.5834,4.6561,4.7458,4.815,4.8967,4.9682,5.0164,5.0272,5.0358,5.0663,5.0702,5.0604,5.0294,5.023,5.0012,4.9499,4.9415,4.9352,4.9211,4.9197,4.9262,4.9459,4.9509,4.9509,4.9509,4.9509,4.9509,4.9509,4.9509,4.9509,4.9509,4.9509,4.9509,4.9509,4.9509,4.9521,4.9532,4.9955,5.0183,0.0,0.0,0.0,0.0,0.0,0.0,2.9213,0.0,2.87,0.0,0.0,0.0,0.0,0.0,0.0,0.0,2.6054,2.6255,2.6752,2.6994,2.7447,2.8277,2.807,2.8234,2.9112,2.9623,2.9888,2.9888,2.9888,2.9888,2.9888,3.0152,3.0676,3.1462,3.2543,3.3518,3.4389,3.5259,3.5704,3.5704,3.5704,3.5737,3.5795,3.5863,3.5937,3.6035,3.6523,3.668,3.6582,3.709,3.7519,3.7929,3.875,3.9629,4.0373,4.0358,4.0616,4.0977,4.0919,4.139,4.2125,4.2609,4.3343,4.4123,4.4438,4.4901,4.5351,4.5665,4.5776,4.581,4.5795,4.5791,4.5935,4.6424,4.7171,4.7989,4.8825,4.9621,5.0163,5.0195,5.0206,5.0202,5.0178,5.0178,5.013,4.9987,4.983,4.9655,4.9427,4.9225,4.9113,4.915,4.9164,4.9262,4.9358,4.9459,4.9509,4.9509,4.9509,4.9509,4.9509,4.9509,4.9509,4.9509,4.9509,4.9509,4.9509,4.9509,4.9509,4.949,4.9981,5.0342,3.0241,0.0,0.0,0.0,0.0,0.0,0.0,0.0,0.0,0.0,0.0,0.0,0.0,0.0,2.6609,2.6876,0.0,2.5789,2.6702,2.647,2.6527,2.7399,2.7702,2.8066,2.8638,2.9225,2.9661,2.9869,2.9699,2.9661,2.9888,3.0152,3.058,3.1155,3.2428,3.3402,3.404,3.5143,3.5704,3.5704,3.5723,3.5756,3.5811,3.5884,3.5943,3.6035,3.668,3.6582,3.6055,3.668,3.6934,3.7029,3.7831,3.8665,3.947,3.9927,4.0442,4.09,4.0868,4.1371,4.2067,4.2473,4.3343,4.4219,4.4158,4.4757,4.5491,4.5658,4.575,4.58,4.5781,4.5791,4.5955,4.6578,4.736,4.8163,4.8998,4.9739,5.0218,5.0121,5.0038,4.9891,4.9589,4.9693,4.9776,4.9693,4.9529,4.9384,4.927,4.9061,4.8962,4.9101,4.9183,4.9211,4.9289,4.9409,4.9509,4.9509,4.9509,4.9509,4.9509,4.9509,4.9509,4.9509,4.9509,4.9509,4.9509,4.9509,4.9563,4.9702,5.0057,5.0385,0.0,0.0,0.0,3.1295,0.0,0.0,0.0,0.0,3.0911,0.0,0.0,0.0,2.8963,2.8641,2.8089,2.6494,2.6892,0.0,0.0,2.573,2.6527,2.7399,2.8199,2.8657,2.8695,2.8714,2.9055,2.9832,2.9169,2.9074,2.9851,3.0152,3.0312,3.035,3.2138,3.3102,3.314,3.4833,3.5704,3.5704,3.5762,3.5794,3.5797,3.5947,3.5996,3.5996,3.6035,3.6035,3.5996,3.6035,3.6035,3.6111,3.6929,3.7732,3.8646,4.0268,4.0868,4.09,4.0829,4.1332,4.1874,4.1119,4.199,4.333,4.325,4.3849,4.4703,4.5484,4.575,4.58,4.5715,4.5742,4.5819,4.5834,4.6464,4.7282,4.815,4.872,4.9201,4.9713,4.9598,4.9302,4.8993,4.9401,4.9693,4.9457,4.9415,4.9289,4.8959,4.8909,4.8962,4.9101,4.9183,4.9211,4.9289,4.9409,4.9509,4.9509,4.9509,4.9509,4.9509,4.9509,4.9509,4.9509,4.9509,4.9509,4.9509,4.9509,4.9741,5.0183,5.0183,5.0206,0.0,0.0,3.1466,3.1252,0.0,0.0,0.0,0.0,0.0,0.0,0.0,0.0,0.0,2.9055,2.8351,2.7247,2.683,2.6053,0.0,2.4371,2.4864,2.5749,2.655,2.7043,2.7043,2.8141,2.8946,2.9231,2.957,2.9879,3.0147,3.0299,3.0371,3.0371,3.2141,3.3102,3.3102,3.4833,3.5704,3.5704,3.5762,3.5794,3.5797,3.5948,3.5996,3.5996,3.5996,3.5996,3.5996,3.5996,3.5971,3.6078,3.7455,3.8132,3.8465,3.9618,4.0384,4.0829,4.081,4.0984,4.1255,4.1506,4.2344,4.3327,4.3839,4.46,4.534,4.5577,4.5671,4.5722,4.5706,4.5719,4.6017,4.7179,4.7661,4.824,4.9635,4.9932,4.9905,4.9879,4.9598,4.927,4.8959,4.9075,4.9188,4.9094,4.9061,4.9027,4.889,4.8909,4.8909,4.8962,4.9083,4.9183,4.9211,4.9377,4.9509,4.9509,4.9509,4.9509,4.9509,4.9509,4.9509,4.9509,4.9509,4.9509,4.9509,4.9509,4.9593,4.9741,4.9876,5.021,3.0435,3.0549,0.0,3.1118,3.0985,0.0,3.0739,0.0,3.0966,0.0,0.0,0.0,0.0,2.9535,2.8688,2.7324,2.6612,2.5603,0.0,2.42,2.4693,2.4972,2.5712,2.6332,2.6664,2.7475,2.8235,2.8886,2.9219,2.966,3.0273,3.0359,3.0398,3.0398,3.2162,3.3102,3.3102,3.4833,3.5704,3.5704,3.5762,3.5805,3.5845,3.5942,3.5996,3.5996,3.5996,3.5996,3.5996,3.5994,3.5963,3.6074,3.7743,3.8355,3.8438,3.9598,4.0346,4.079,4.079,4.1177,4.1719,4.1938,4.2955,4.4163,4.4334,4.5015,4.5693,4.5622,4.564,4.5693,4.5693,4.5687,4.597,4.7108,4.7587,4.8169,4.9469,4.9752,4.9654,4.9394,4.9262,4.9067,4.8553,4.8723,4.8909,4.8909,4.8909,4.8909,4.8909,4.8909,4.8909,4.8909,4.9015,4.9135,4.9211,4.9409,4.9509,4.9509,4.9509,4.9509,4.9509,4.9509,4.9509,4.9509,4.9509,4.9509,4.9509,4.9509,4.9551,4.9615,4.974,5.0116]},{"header":{"parameterUnit":"m.s-1","parameterCategory":1,"la1":30.6,"la2":29.2853,"lo1":-89.7004,"lo2":-87.6739,"dy":0.0162,"dx":0.0183,"nx":112,"ny":82,"refTime":"2024-03-25T12:00:00:Z","depth":0,"parameterNumber":3,"parameterNumberName":"V-component_of_WINDS"},"data":[0.0,0.0,0.0,0.0,0.0,0.0,0.0,0.0,0.0,0.0,0.0,0.0,0.0,0.0,0.0,0.0,0.0,0.0,0.0,0.0,0.0,0.0,0.0,0.0,0.0,0.0,0.0,0.0,0.0,0.0,0.0,0.0,0.0,0.0,0.0,0.0,0.0,0.0,0.0,0.0,0.0,0.0,0.0,0.0,0.0,0.0,0.0,0.0,0.0,0.0,0.0,0.0,0.0,0.0,0.0,0.0,0.0,0.0,0.0,0.0,0.0,0.0,0.0,0.0,0.0,0.0,0.0,0.0,0.0,0.0,0.0,0.0,0.0,0.0,0.0,0.0,0.0,0.0,0.0,0.0,0.0,0.0,0.0,0.0,0.0,0.0,0.0,0.0,0.0,0.0,-0.5185,-0.514,-0.5258,-0.5216,-0.488,-0.4753,-0.4317,-0.3449,0.0,0.0,0.0,0.0,0.0,0.0,0.0,0.0,0.0,0.0,0.0,0.0,0.0,0.0,0.0,0.0,0.0,0.0,0.0,0.0,0.0,0.0,0.0,0.0,0.0,0.0,0.0,0.0,0.0,0.0,0.0,0.0,0.0,0.0,0.0,0.0,0.0,0.0,0.0,0.0,0.0,0.0,0.0,0.0,0.0,0.0,0.0,0.0,0.0,0.0,0.0,0.0,0.0,0.0,0.0,0.0,0.0,0.0,0.0,0.0,0.0,0.0,0.0,0.0,0.0,0.0,0.0,0.0,0.0,0.0,0.0,0.0,0.0,0.0,0.0,0.0,0.0,0.0,0.0,0.0,0.0,0.0,0.0,0.0,0.0,0.0,0.0,0.0,0.0,0.0,0.0,0.0,0.0,0.0,0.0,0.0,0.0,0.0,0.0,0.0,0.0,0.0,0.0,0.0,-0.5169,-0.5325,-0.5232,-0.5034,-0.4745,-0.4752,-0.4323,-0.3299,0.0,0.0,0.0,0.0,0.0,0.0,0.0,0.0,0.0,0.0,0.0,0.0,0.0,0.0,0.0,0.0,0.0,0.0,0.0,0.0,0.0,0.0,0.0,0.0,0.0,0.0,0.0,0.0,0.0,0.0,0.0,0.0,0.0,0.0,0.0,0.0,0.0,0.0,0.0,0.0,0.0,0.0,0.0,0.0,0.0,0.0,0.0,0.0,0.0,0.0,0.0,0.0,0.0,0.0,0.0,0.0,0.0,0.0,0.0,0.0,0.0,0.0,0.0,0.0,0.0,0.0,0.0,0.0,0.0,0.0,0.0,0.0,0.0,0.0,0.0,0.0,0.0,0.0,0.0,0.0,0.0,0.0,0.0,0.0,0.0,0.0,0.0,0.0,0.0,0.0,0.0,0.0,0.0,0.0,0.0,0.0,0.0,0.0,0.0,0.0,0.0,0.0,0.0,-0.4952,-0.4966,-0.5004,-0.4941,-0.4829,-0.4624,-0.4416,-0.4049,-0.336,-0.2988,0.0,0.0,0.0,0.0,0.0,0.0,0.0,0.0,0.0,0.0,0.0,0.0,0.0,0.0,0.0,0.0,0.0,0.0,0.0,0.0,0.0,0.0,0.0,0.0,0.0,0.0,0.0,0.0,0.0,0.0,0.0,0.0,0.0,0.0,0.0,0.0,0.0,0.0,0.0,0.0,0.0,0.0,0.0,0.0,0.0,0.0,0.0,0.0,0.0,0.0,0.0,0.0,0.0,0.0,0.0,0.0,0.0,0.0,0.0,0.0,0.0,0.0,0.0,0.0,0.0,0.0,0.0,0.0,0.0,0.0,0.0,0.0,0.0,0.0,0.0,0.0,0.0,0.0,0.0,0.0,0.0,0.0,0.0,0.0,0.0,0.0,0.0,0.0,0.0,0.0,0.0,0.0,0.0,0.0,0.0,0.0,0.0,0.0,0.0,0.0,0.0,0.0,-0.4866,-0.4642,-0.4639,-0.4621,-0.4572,-0.4428,-0.4131,-0.3648,-0.3045,-0.2808,0.0,0.0,0.0,0.0,0.0,0.0,0.0,0.0,0.0,0.0,0.0,0.0,0.0,0.0,0.0,0.0,0.0,0.0,0.0,0.0,0.0,0.0,0.0,0.0,0.0,0.0,0.0,0.0,0.0,0.0,0.0,0.0,0.0,0.0,0.0,0.0,0.0,0.0,0.0,0.0,0.0,0.0,0.0,0.0,0.0,0.0,0.0,0.0,0.0,0.0,0.0,0.0,0.0,0.0,0.0,0.0,0.0,0.0,0.0,0.0,0.0,0.0,0.0,0.0,0.0,0.0,0.0,0.0,0.0,0.0,0.0,0.0,0.0,0.0,0.0,0.0,0.0,0.0,0.0,0.0,0.0,0.0,0.0,0.0,0.0,0.0,0.0,0.0,0.0,0.0,0.0,0.0,0.0,0.0,0.0,0.0,0.0,0.0,0.0,0.0,0.0,0.0,-0.4398,-0.4337,-0.4515,-0.4383,-0.4281,-0.4201,-0.4093,-0.3414,-0.199,-0.2927,0.0,0.0,0.0,0.0,0.0,0.0,0.0,0.0,0.0,0.0,0.0,0.0,0.0,0.0,0.0,0.0,0.0,0.0,0.0,0.0,0.0,0.0,0.0,0.0,0.0,0.0,0.0,0.0,0.0,0.0,0.0,0.0,0.0,0.0,0.0,0.0,0.0,0.0,0.0,0.0,0.0,0.0,0.0,0.0,0.0,0.0,0.0,0.0,0.0,0.0,0.0,0.0,0.0,0.0,0.0,0.0,0.0,0.0,0.0,0.0,0.0,0.0,0.0,0.0,0.0,0.0,0.0,0.0,0.0,0.0,0.0,0.0,0.0,0.0,0.0,0.0,0.0,0.0,0.0,0.0,0.0,0.0,0.0,0.0,0.0,0.0,0.0,0.0,0.0,0.0,0.0,0.0,0.0,0.0,0.0,0.0,0.0,0.0,0.0,0.0,0.0,0.0,-0.4518,-0.4257,-0.4247,-0.411,-0.3918,-0.3857,-0.3088,-0.2402,-0.1857,0.0,0.0,0.0,0.0,0.0,0.0,0.0,0.0,0.0,0.0,0.0,0.0,0.0,0.0,0.0,0.0,0.0,0.0,0.0,0.0,0.0,0.0,0.0,0.0,0.0,0.0,0.0,0.0,0.0,0.0,0.0,0.0,0.0,0.0,0.0,0.0,0.0,0.0,0.0,0.0,0.0,0.0,0.0,0.0,0.0,0.0,0.0,0.0,0.0,0.0,0.0,0.0,0.0,0.0,0.0,0.0,0.0,0.0,0.0,0.0,0.0,0.0,0.0,0.0,0.0,0.0,0.0,0.0,0.0,0.0,0.0,0.0,0.0,0.0,0.0,0.0,0.0,0.0,0.0,0.0,0.0,0.0,0.0,0.0,0.0,0.0,0.0,0.0,0.0,0.0,0.0,0.0,0.0,0.0,0.0,0.0,0.0,0.0,0.0,0.0,0.0,0.0,-0.4741,-0.4375,-0.3996,-0.3863,-0.3677,-0.3571,-0.3497,-0.238,-0.1812,-0.2145,0.0,0.0,0.0,0.0,0.0,0.0,0.0,0.0,0.0,0.0,0.0,0.0,0.0,0.0,0.0,0.0,0.0,0.0,0.0,0.0,0.0,0.0,0.0,0.0,0.0,0.0,0.0,0.0,0.0,0.0,0.0,0.0,0.0,0.0,0.0,0.0,0.0,0.0,0.0,0.0,0.0,0.0,0.0,0.0,0.0,0.0,0.0,0.0,0.0,0.0,0.0,0.0,0.0,0.0,0.0,0.0,0.0,0.0,0.0,0.0,0.0,0.0,0.0,0.0,0.0,0.0,0.0,0.0,0.0,0.0,0.0,0.0,0.0,0.0,0.0,0.0,0.0,0.0,0.0,0.0,0.0,0.0,0.0,0.0,0.0,0.0,0.0,0.0,0.0,0.0,0.0,0.0,0.0,0.0,0.0,0.0,0.0,0.0,0.0,0.0,0.0,0.0,-0.4254,-0.3835,-0.3509,-0.3322,-0.317,-0.311,-0.3178,-0.2099,-0.1823,0.0,0.0,0.0,0.0,0.0,0.0,0.0,0.0,0.0,0.0,0.0,0.0,0.0,0.0,0.0,0.0,0.0,0.0,0.0,0.0,0.0,0.0,0.0,0.0,0.0,0.0,0.0,0.0,0.0,0.0,0.0,0.0,0.0,0.0,0.0,0.0,0.0,0.0,0.0,0.0,0.0,0.0,0.0,0.0,0.0,0.0,0.0,0.0,0.0,0.0,0.0,0.0,0.0,0.0,0.0,0.0,0.0,0.0,0.0,0.0,0.0,0.0,0.0,0.0,0.0,0.0,0.0,0.0,0.0,0.0,0.0,0.0,0.0,0.0,0.0,0.0,0.0,0.0,0.0,0.0,0.0,0.0,0.0,0.0,0.0,0.0,0.0,0.0,0.0,0.0,0.0,0.0,0.0,0.0,0.0,0.0,0.0,0.0,0.0,0.0,0.0,0.0,0.0,-0.4723,-0.4003,-0.3398,-0.3176,-0.3045,-0.2891,-0.2635,-0.1872,-0.1594,-0.209,0.0,0.0,0.0,0.0,0.0,0.0,0.0,0.0,0.0,0.0,0.0,0.0,0.0,0.0,0.0,0.0,0.0,0.0,0.0,0.0,0.0,0.0,0.0,0.0,0.0,0.0,0.0,0.0,0.0,0.0,0.0,0.0,0.0,0.0,0.0,0.0,0.0,0.0,0.0,0.0,0.0,0.0,0.0,0.0,0.0,0.0,0.0,0.0,0.0,0.0,0.0,0.0,0.0,0.0,0.0,0.0,0.0,0.0,0.0,0.0,0.0,0.0,0.0,0.0,0.0,0.0,0.0,0.0,0.0,0.0,0.0,0.0,0.0,0.0,0.0,0.0,0.0,0.0,0.0,0.0,0.0,0.0,0.0,0.0,0.0,0.0,0.0,0.0,0.0,0.0,0.0,0.0,0.0,0.0,0.0,0.0,0.0,0.0,0.0,0.0,0.0,0.0,-0.4675,-0.3784,-0.3101,-0.2884,-0.2737,-0.2548,-0.2316,-0.1908,-0.1544,-0.1198,0.0,0.0,0.0,0.0,0.0,0.0,0.0,0.0,0.0,0.0,0.0,0.0,0.0,0.0,0.0,0.0,0.0,0.0,0.0,0.0,0.0,0.0,0.0,0.0,0.0,0.0,0.0,0.0,0.0,0.0,0.0,0.0,0.0,0.0,0.0,0.0,0.0,0.0,0.0,0.0,0.0,0.0,0.0,0.0,0.0,0.0,0.0,0.0,0.0,0.0,0.0,0.0,0.0,0.0,0.0,0.0,0.0,0.0,0.0,0.0,0.0,0.0,0.0,0.0,0.0,0.0,0.0,0.0,0.0,0.0,0.0,0.0,0.0,0.0,0.0,0.0,0.0,0.0,0.0,0.0,0.0,0.0,0.0,0.0,0.0,0.0,0.0,0.0,0.0,0.0,0.0,0.0,0.0,0.0,0.0,0.0,0.0,0.0,0.0,0.0,0.0,0.0,-0.4272,-0.3371,-0.2725,-0.2501,-0.2352,-0.2237,-0.2102,-0.2027,-0.1559,-0.0478,0.0,0.0,0.0,0.0,0.0,0.0,0.0,0.0,0.0,0.0,0.0,0.0,0.0,0.0,0.0,0.0,0.0,0.0,0.0,0.0,0.0,0.0,0.0,0.0,0.0,0.0,0.0,0.0,0.0,0.0,0.0,0.0,0.0,0.0,0.0,0.0,0.0,0.0,0.0,0.0,0.0,0.0,0.0,0.0,0.0,0.0,0.0,0.0,0.0,0.0,0.0,0.0,0.0,0.0,0.0,0.0,0.0,0.0,0.0,0.0,-0.4685,-0.508,0.0,0.0,0.0,0.0,0.0,0.0,0.0,0.0,0.0,0.0,0.0,0.0,0.0,0.0,0.0,0.0,0.0,0.0,0.0,0.0,0.0,0.0,0.0,0.0,0.0,0.0,0.0,0.0,0.0,0.0,0.0,0.0,0.0,0.0,0.0,0.0,0.0,0.0,0.0,0.0,-0.4517,-0.3421,-0.2624,-0.2493,-0.2277,-0.2146,-0.2089,-0.1615,-0.1522,-0.2052,-0.1459,0.0,0.0,0.0,0.0,0.0,0.0,0.0,0.0,0.0,0.0,0.0,0.0,0.0,0.0,0.0,0.0,0.0,0.0,0.0,0.0,0.0,0.0,0.0,0.0,0.0,0.0,0.0,0.0,0.0,0.0,0.0,0.0,0.0,0.0,0.0,0.0,0.0,0.0,0.0,0.0,0.0,0.0,0.0,0.0,0.0,0.0,0.0,0.0,0.0,0.0,0.0,0.0,0.0,0.0,0.0,0.0,0.0,0.0,0.0,-0.4481,-0.4697,0.0,0.0,0.0,0.0,0.0,0.0,0.0,0.0,0.0,0.0,0.0,0.0,0.0,0.0,0.0,0.0,0.0,0.0,0.0,0.0,0.0,0.0,0.0,0.0,0.0,0.0,0.0,0.0,0.0,0.0,0.0,0.0,0.0,0.0,0.0,0.0,0.0,0.0,0.0,0.0,-0.4258,-0.3289,-0.2615,-0.2611,-0.2427,-0.2283,-0.2252,-0.1852,-0.1731,-0.209,-0.0904,0.0,0.0,0.0,0.0,0.0,0.0,0.0,0.0,0.0,0.0,0.0,0.0,0.0,0.0,0.0,0.0,0.0,0.0,0.0,0.0,0.0,0.0,0.0,0.0,0.0,0.0,0.0,0.0,0.0,0.0,0.0,0.0,0.0,0.0,0.0,0.0,0.0,0.0,0.0,0.0,0.0,0.0,0.0,0.0,0.0,0.0,0.0,0.0,0.0,0.0,0.0,0.0,0.0,-0.4295,-0.4352,-0.4336,-0.445,-0.4406,-0.423,-0.4379,-0.4398,-0.4318,-0.4471,0.0,0.0,0.0,0.0,0.0,0.0,0.0,0.0,0.0,0.0,0.0,0.0,0.0,0.0,0.0,0.0,0.0,0.0,0.0,0.0,0.0,0.0,-0.4671,-0.5133,-0.503,-0.4811,-0.4743,0.0,0.0,0.0,0.0,0.0,0.0,0.0,0.0,0.0,0.0,0.0,-0.4001,-0.3172,-0.2668,-0.2702,-0.2574,-0.2465,-0.2434,-0.2275,-0.1979,-0.1554,-0.0559,-0.0083,0.0,0.0,0.0,0.0,0.0,0.0,0.0,0.0,0.0,0.0,0.0,0.0,0.0,0.0,0.0,0.0,0.0,0.0,0.0,0.0,0.0,0.0,0.0,0.0,0.0,0.0,0.0,0.0,0.0,0.0,0.0,0.0,-0.5403,-0.4693,0.0,0.0,0.0,0.0,0.0,0.0,0.0,0.0,0.0,0.0,0.0,0.0,0.0,-0.4195,-0.4132,-0.4356,-0.4425,-0.4278,-0.4501,-0.4621,-0.4452,-0.4646,-0.467,-0.4732,-0.4665,0.0,-0.3964,-0.4287,0.0,0.0,0.0,0.0,0.0,0.0,0.0,0.0,0.0,0.0,0.0,0.0,0.0,0.0,0.0,0.0,0.0,0.0,0.0,0.0,0.0,0.0,-0.4149,-0.44,-0.4614,-0.4679,-0.4419,-0.4896,-0.5345,-0.5211,-0.5251,-0.5455,0.0,0.0,0.0,0.0,0.0,0.0,-0.4149,-0.3329,-0.2772,-0.2711,-0.2574,-0.2501,-0.2503,-0.2473,-0.2065,-0.1224,-0.0446,-0.0,-0.0048,-0.04,0.0,0.0,0.0,0.0,0.0,0.0,0.0,0.0,0.0,0.0,0.0,0.0,0.0,0.0,0.0,0.0,0.0,0.0,0.0,0.0,0.0,0.0,0.0,0.0,0.0,0.0,0.0,0.0,0.0,-0.5078,-0.4879,-0.4359,-0.4555,-0.448,0.0,0.0,0.0,0.0,0.0,0.0,0.0,0.0,0.0,-0.4336,-0.4455,-0.4553,-0.4621,-0.479,-0.4847,-0.48,-0.4972,-0.4958,-0.4781,-0.4901,-0.4947,-0.4931,-0.4809,-0.4635,-0.4425,-0.4432,-0.4475,-0.4449,0.0,0.0,0.0,0.0,-0.5247,-0.5742,-0.5351,-0.5181,-0.5217,-0.5311,0.0,0.0,0.0,0.0,0.0,0.0,0.0,-0.5173,-0.4908,-0.4805,-0.4903,-0.5196,-0.5646,-0.5972,-0.5918,-0.6098,-0.5996,-0.4983,-0.531,-0.569,-0.5576,-0.5566,0.0,0.0,0.0,-0.4426,-0.3771,-0.3328,-0.298,-0.2827,-0.274,-0.2707,-0.2707,-0.2775,-0.2392,-0.1351,-0.0482,0.0,0.0,-0.0098,-0.0499,0.0,0.0,0.0,0.0,0.0,0.0,0.0,0.0,0.0,0.0,0.0,0.0,0.0,0.0,0.0,0.0,0.0,0.0,0.0,0.0,0.0,0.0,0.0,0.0,0.0,0.0,0.0,0.0,-0.452,-0.4574,-0.4102,-0.4336,-0.4412,0.0,0.0,0.0,0.0,0.0,0.0,-0.4553,-0.4621,-0.4681,-0.4743,-0.4923,-0.5045,-0.5108,-0.5254,-0.5328,-0.5328,-0.5388,-0.5355,-0.5243,-0.5268,-0.5265,-0.5235,-0.5083,-0.4982,-0.4901,-0.4597,-0.4378,-0.4201,-0.4232,-0.4644,-0.5111,-0.4908,-0.5317,-0.5873,-0.5661,-0.5726,-0.583,-0.5759,-0.5899,-0.6216,-0.6296,0.0,0.0,0.0,0.0,-0.523,-0.49,-0.521,-0.564,-0.6002,-0.6595,-0.7144,-0.7245,-0.734,-0.6856,-0.5144,-0.5489,-0.5854,-0.5276,-0.5145,0.0,-0.5023,-0.4726,-0.4291,-0.3656,-0.3404,-0.323,-0.3049,-0.3003,-0.2957,-0.2957,-0.3042,-0.2757,-0.1934,-0.0694,0.0,0.0,0.0,0.0,0.0,0.0,0.0,0.0,0.0,0.0,0.0,0.0,0.0,0.0,0.0,0.0,0.0,0.0,0.0,0.0,0.0,0.0,0.0,0.0,0.0,0.0,0.0,0.0,0.0,0.0,0.0,0.0,0.0,0.0,-0.405,-0.4357,0.0,0.0,0.0,0.0,-0.4452,-0.4667,-0.4803,-0.4814,-0.5029,-0.5102,-0.5002,-0.5333,-0.5464,-0.5352,-0.5589,-0.5706,-0.5703,-0.5594,-0.5651,-0.585,-0.5632,-0.5651,-0.5844,-0.5613,-0.5382,-0.5132,-0.4664,-0.4735,-0.5036,-0.4854,-0.5158,-0.557,-0.4899,-0.5227,-0.5898,-0.503,-0.5213,-0.5776,-0.575,-0.6002,-0.6382,-0.6455,-0.6866,0.0,0.0,-0.5467,-0.5566,-0.4816,-0.5164,-0.5832,-0.6274,-0.6902,-0.7358,-0.7367,-0.7947,-0.7863,-0.6021,-0.5588,-0.5473,-0.5346,0.0,-0.5128,-0.5253,-0.5145,-0.4821,-0.4167,-0.3789,-0.3506,-0.3404,-0.3252,-0.3199,-0.3199,-0.3113,-0.3121,-0.3121,-0.1157,0.0,0.0,0.0,0.0,0.0,0.0,0.0,0.0,0.0,0.0,0.0,0.0,0.0,0.0,0.0,0.0,0.0,0.0,0.0,0.0,0.0,0.0,0.0,0.0,0.0,0.0,0.0,0.0,0.0,0.0,0.0,0.0,0.0,0.0,-0.4746,-0.5343,0.0,-0.5013,-0.5312,-0.5376,-0.5002,-0.5012,-0.5129,-0.5205,-0.545,-0.5553,-0.5586,-0.5787,-0.5912,-0.5947,-0.6034,-0.6078,-0.6078,-0.6034,-0.6015,-0.6018,-0.5934,-0.5899,-0.5893,-0.5735,-0.5575,-0.5396,-0.5067,-0.4944,-0.4862,-0.4772,-0.4836,-0.5002,-0.4771,-0.4864,-0.5123,-0.5078,-0.5246,-0.5522,-0.6033,-0.595,-0.5774,-0.6122,-0.6126,-0.5828,-0.5085,-0.5013,-0.5087,-0.4786,-0.527,-0.5929,-0.6318,-0.6924,-0.7386,-0.7386,-0.7582,-0.7469,-0.6357,-0.6373,-0.6469,-0.6213,-0.5338,-0.4842,-0.5222,-0.4866,-0.4397,-0.4138,-0.3991,-0.3824,-0.3636,-0.3524,-0.3474,-0.3321,-0.34,-0.3343,-0.319,-0.192,-0.0814,-0.0055,0.0,0.0,0.0,0.0,0.0,0.0,0.0,0.0,0.0,0.0,0.0,0.0,0.0,0.0,0.0,0.0,0.0,0.0,0.0,0.0,0.0,0.0,0.0,0.0,0.0,0.0,0.0,0.0,0.0,0.0,-0.6115,-0.6134,-0.6191,-0.6709,-0.6875,-0.636,-0.6391,-0.6247,-0.5715,-0.5549,-0.5499,-0.5659,-0.5825,-0.5928,-0.5964,-0.6404,-0.6512,-0.6268,-0.689,-0.6988,-0.6654,-0.6943,-0.6966,-0.6835,-0.6508,-0.6325,-0.6195,-0.5808,-0.5578,-0.5415,-0.5254,-0.5026,-0.4773,-0.473,-0.4713,-0.4705,-0.4693,-0.4787,-0.5131,-0.5567,-0.5589,-0.5609,-0.6059,-0.5907,-0.5564,-0.5934,-0.581,-0.5398,-0.499,-0.4887,-0.4909,-0.4806,-0.5352,-0.6001,-0.6334,-0.6924,-0.7386,-0.7386,-0.7386,-0.7256,-0.6793,-0.6958,-0.6965,-0.6154,-0.5429,-0.4923,-0.5094,-0.4631,-0.4284,-0.428,-0.419,-0.4071,-0.3877,-0.3813,-0.3761,-0.3606,-0.3726,-0.3675,-0.3371,-0.2348,-0.1244,-0.0056,0.0,0.0,0.0,0.0,0.0,0.0,0.0,0.0,0.0,0.0,0.0,0.0,0.0,0.0,0.0,0.0,0.0,0.0,0.0,0.0,0.0,0.0,0.0,0.0,0.0,0.0,0.0,0.0,0.0,-0.759,-0.8007,-0.8276,-0.813,-0.8359,-0.8349,-0.8193,-0.7516,-0.6923,-0.6701,-0.6233,-0.5915,-0.592,-0.6146,-0.6316,-0.6194,-0.7101,-0.7273,-0.6371,-0.796,-0.835,-0.7337,-0.8193,-0.8489,-0.8149,-0.7438,-0.7011,-0.677,-0.5863,-0.5417,-0.5192,-0.5186,-0.5121,-0.501,-0.4887,-0.4838,-0.4811,-0.4575,-0.506,-0.5848,-0.6212,-0.6164,-0.5826,-0.5888,-0.5892,-0.5826,-0.5888,-0.5892,-0.5756,-0.5223,-0.509,-0.5024,-0.4827,-0.5352,-0.5935,-0.6268,-0.6859,-0.7321,-0.7321,-0.7321,-0.7321,-0.7321,-0.7222,-0.6706,-0.5193,-0.5325,-0.5443,-0.4814,-0.4572,0.0,-0.467,-0.4395,-0.42,-0.42,-0.4086,-0.3978,-0.3878,-0.4104,-0.4016,-0.3629,-0.2488,-0.1273,-0.0056,0.0,0.0,0.0,0.0,0.0,0.0,0.0,0.0,0.0,0.0,0.0,0.0,0.0,0.0,0.0,0.0,0.0,0.0,0.0,0.0,0.0,0.0,0.0,0.0,0.0,0.0,0.0,-0.8328,-0.8458,-0.7991,-0.8284,-0.8535,-0.8744,-0.9352,-0.9547,-0.8863,-0.8391,-0.7886,-0.7282,-0.6602,-0.6203,-0.6285,-0.6845,-0.7263,-0.7223,-0.7984,-0.8308,-0.8069,-0.8605,-0.8704,-0.8364,-0.8437,-0.8449,-0.8405,-0.7496,-0.7015,-0.6776,-0.5957,-0.5545,-0.5311,-0.5222,-0.5167,-0.5129,-0.5012,-0.4966,-0.4958,-0.489,-0.4947,-0.4989,-0.5096,-0.4984,-0.4831,-0.5223,-0.5027,-0.4831,-0.5223,-0.5027,-0.4697,-0.4564,-0.4498,-0.4564,-0.4628,-0.4824,-0.502,-0.5223,-0.5484,-0.5745,-0.5745,-0.5815,-0.5951,-0.5951,-0.6298,-0.6463,-0.5915,-0.553,-0.5153,-0.487,-0.4819,-0.4769,-0.4701,-0.4599,-0.4572,-0.4572,-0.4515,-0.4265,-0.3708,-0.4114,-0.4372,-0.4237,-0.3525,-0.2184,-0.006,0.0,0.0,0.0,0.0,0.0,0.0,0.0,0.0,0.0,0.0,0.0,0.0,0.0,0.0,0.0,0.0,0.0,0.0,0.0,0.0,0.0,0.0,0.0,0.0,0.0,0.0,0.0,-0.9133,-0.9442,-0.9266,-0.9414,-0.9769,-1.0205,-1.0771,-1.0802,-1.0301,-0.9702,-0.9225,-0.8593,-0.7805,-0.7353,-0.7428,-0.7829,-0.8127,-0.8127,-0.8924,-0.9087,-0.8717,-0.9379,-0.9539,-0.901,-0.936,-0.9457,-0.921,-0.8291,-0.7678,-0.7375,-0.6436,-0.5861,-0.5621,-0.5275,-0.5159,-0.5108,0.0,0.0,0.0,0.0,-0.4787,-0.4649,-0.4649,-0.4455,-0.4367,-0.4694,-0.4564,-0.4367,-0.4694,-0.4564,-0.43,-0.43,-0.43,-0.4378,-0.456,-0.4639,-0.4707,-0.4845,-0.4981,-0.5033,-0.497,-0.5142,-0.5235,-0.5173,-0.554,0.0,-0.5639,-0.5556,-0.542,-0.502,-0.4958,-0.4908,-0.4877,-0.4823,-0.4785,-0.4785,-0.4486,-0.4099,-0.3623,-0.3737,0.0,0.0,0.0,-0.2265,-0.0063,0.0,0.0,0.0,0.0,0.0,0.0,0.0,0.0,0.0,0.0,0.0,0.0,0.0,0.0,0.0,0.0,0.0,0.0,0.0,0.0,0.0,0.0,0.0,0.0,0.0,0.0,0.0,-0.9941,-1.0499,-1.0938,-1.1042,-1.1335,-1.2054,-1.2157,-1.2082,-1.1841,-1.107,-1.0399,-1.0048,-0.9221,-0.8825,-0.8825,-0.8924,0.0,0.0,0.0,-0.9734,-0.8794,-1.0414,-1.0624,-0.9618,-1.0437,-1.0688,-1.0301,-0.9367,-0.8721,-0.837,-0.6961,-0.6222,-0.5895,-0.5382,-0.5121,-0.5018,-0.5018,-0.5018,-0.5004,-0.4896,-0.4711,-0.451,-0.451,0.0,0.0,-0.4341,-0.4341,-0.4341,-0.4341,-0.4341,-0.4341,-0.4341,-0.4341,-0.4433,-0.4605,-0.4702,-0.4775,-0.4917,-0.499,-0.4954,-0.4833,-0.4891,-0.4999,-0.4876,-0.4941,-0.4974,-0.4852,-0.5506,-0.5855,-0.5155,-0.4988,-0.5009,-0.5055,-0.4961,-0.4884,-0.4884,-0.4265,0.0,-0.3611,-0.338,-0.3077,-0.2568,-0.2431,-0.1685,-0.0065,0.0,0.0,0.0,0.0,0.0,0.0,0.0,0.0,0.0,0.0,0.0,0.0,0.0,0.0,0.0,0.0,0.0,0.0,0.0,0.0,0.0,0.0,0.0,0.0,0.0,0.0,-0.9979,-1.0475,-1.0976,-1.1557,-1.1931,-1.2139,-1.2139,-1.228,-1.2233,-1.1855,-1.0946,-1.0255,-1.0036,-0.9221,-0.8825,-0.8825,-0.9422,-0.9723,-0.9723,-1.0507,-1.0881,-1.0644,-1.1077,-1.1058,-1.0882,-1.0857,0.0,-1.0508,-0.9574,-0.892,-0.8569,-0.713,-0.637,-0.6105,-0.5497,-0.5121,-0.5018,-0.5018,-0.5018,-0.5015,-0.4991,-0.489,-0.4765,-0.4765,-0.4683,-0.4657,-0.4657,-0.4657,-0.4657,-0.4657,-0.4657,0.0,-0.4657,-0.4657,-0.466,-0.4684,-0.469,-0.469,-0.4762,-0.4836,-0.4902,-0.4876,-0.4953,-0.496,-0.4933,-0.4928,-0.4861,-0.4834,-0.5067,-0.518,-0.4923,-0.5098,-0.5175,-0.4763,-0.4795,-0.4845,-0.4649,-0.4595,-0.4257,-0.3633,-0.44,-0.3939,-0.1527,-0.0866,-0.0334,-0.0,0.0,0.0,0.0,0.0,0.0,0.0,0.0,0.0,0.0,0.0,0.0,0.0,0.0,0.0,0.0,0.0,0.0,0.0,0.0,0.0,0.0,0.0,-0.9693,-0.949,0.0,-1.0858,-1.0886,-1.1156,-1.1539,-1.2054,-1.2488,-1.2639,-1.2328,-1.2564,-1.2507,-1.1879,-1.1403,-1.1035,-1.0636,-1.0207,-1.001,-1.001,-1.0408,-1.0609,-1.0609,-1.0998,-1.1146,-1.1047,-1.1146,-1.1146,-1.1042,-1.0943,-1.0783,-1.056,-0.9889,-0.9414,-0.9052,-0.7684,-0.6954,-0.6732,-0.5612,-0.5121,-0.5018,-0.5018,-0.5018,-0.501,-0.4947,-0.4887,-0.4825,-0.4765,-0.4703,-0.4726,-0.4726,-0.4726,-0.4726,-0.4726,-0.4726,-0.4726,-0.4726,-0.4726,-0.474,-0.4727,-0.4743,-0.4743,-0.4743,-0.4817,-0.4876,-0.4812,-0.4873,-0.4856,-0.4862,-0.485,-0.4737,-0.4677,-0.4789,-0.4904,-0.484,-0.4964,-0.5001,-0.4736,-0.4795,-0.4795,-0.4727,-0.4341,-0.3974,-0.3629,-0.3368,-0.2629,-0.1214,-0.0404,0.0,0.0,0.0,0.0,0.0,0.0,0.0,0.0,0.0,0.0,0.007,0.173,0.2485,0.0,0.0,0.0,0.0,0.0,0.0,0.0,-0.8491,-0.8861,-0.9379,-1.0447,-1.1234,-1.115,-1.1902,-1.2368,-1.2038,-1.1873,-1.2025,-1.2446,-1.2795,-1.2885,-1.254,-1.28,-1.271,-1.1954,-1.1964,-1.1789,-1.1236,-1.1194,-1.1194,-1.1194,-1.1194,-1.1194,-1.1194,-1.1194,-1.1118,-1.0957,-1.1113,-1.1113,-1.0953,-1.0953,-1.082,-1.056,-1.0225,-0.9937,-0.9616,-0.8126,-0.7352,-0.6971,-0.5758,-0.5167,-0.5086,-0.5086,-0.5086,-0.5069,-0.4947,-0.4917,-0.4925,-0.4825,-0.4867,-0.4867,-0.4867,-0.4867,-0.4867,-0.4867,-0.4867,-0.4867,-0.4867,-0.485,-0.4784,-0.4906,-0.492,-0.4909,-0.4934,-0.492,-0.4874,-0.4779,-0.4817,-0.4833,-0.4711,-0.4768,-0.4765,-0.4542,-0.4647,-0.4668,-0.4721,-0.4764,-0.4764,-0.4697,-0.4764,-0.4761,-0.4697,-0.41,-0.35,-0.296,-0.1683,-0.0877,-0.0877,-0.0339,0.0,0.0,0.0,0.0,0.0,0.0,0.0,0.0,0.0,0.0,0.0073,0.3448,0.4624,-0.7943,-0.7914,-0.7891,-0.8217,-0.8349,-0.868,0.0,-0.9885,-1.0284,-1.1877,-1.2324,-1.2729,-1.3886,-1.3579,-1.323,-1.3533,-1.2705,-1.2252,-1.2673,-1.2772,-1.2781,-1.2739,-1.2772,-1.2616,-1.2148,-1.1789,-1.1477,-1.1217,-1.1194,-1.1194,-1.1194,-1.1194,-1.1194,-1.1194,-1.1194,-1.1184,-1.1161,-1.1184,-1.1184,-1.1161,-1.1161,-1.0953,-1.057,-1.0527,-1.0291,-0.9908,-0.8349,-0.6909,-0.5689,-0.5482,-0.5341,-0.533,-0.533,-0.533,-0.5314,-0.5192,-0.5216,-0.5306,-0.5292,-0.529,-0.529,-0.529,-0.529,-0.529,-0.529,-0.529,-0.529,-0.529,-0.5211,-0.5156,-0.5279,-0.5227,-0.5175,-0.5284,-0.5224,-0.5143,-0.5129,-0.5059,-0.4961,-0.4836,-0.4825,-0.479,-0.4729,-0.4704,-0.4629,-0.44,-0.4631,-0.4697,-0.4367,-0.4498,-0.4561,-0.4367,-0.4308,-0.3165,-0.0606,-0.0202,-0.0135,-0.0135,-0.0069,0.0,0.0,0.0,0.0,0.0,0.0,0.0,0.0,0.0,0.0,0.0073,0.3452,0.3436,-0.8421,-0.8472,-0.8514,-0.8566,-0.9039,-0.9597,-0.9993,-1.0831,-1.1789,-1.2596,-1.4069,-1.5145,-1.512,-1.4981,-1.4607,-1.4082,-1.3056,-1.2422,-1.2724,-1.2658,-1.2625,-1.2753,-1.255,-1.2285,-1.1983,-1.1907,-1.169,-1.1231,-1.1312,-1.1383,-1.1383,-1.1383,-1.1383,-1.1383,-1.1383,-1.1321,-1.1194,-1.1321,-1.1321,-1.1194,-1.1194,-1.0976,-1.0575,-1.0575,-1.0162,-0.9327,-0.8202,-0.7166,-0.6144,-0.5664,-0.5434,-0.5368,-0.5368,-0.5412,-0.5461,-0.5339,-0.5325,-0.5368,-0.5368,-0.5368,-0.5368,-0.5368,-0.5368,-0.5368,-0.5368,-0.5368,-0.5368,-0.5368,-0.5333,-0.5303,-0.5358,-0.533,-0.5306,-0.5358,-0.533,-0.5292,-0.5292,-0.5254,-0.5208,-0.5156,-0.5146,-0.5086,-0.4896,-0.4866,-0.4784,-0.4542,-0.4582,-0.4577,-0.4308,-0.4367,-0.437,-0.4317,-0.4319,-0.3102,-0.027,0.0,0.0,0.0,0.0,0.0,0.0,0.0,0.0,0.0,0.0,0.0,0.0,0.0,0.0,0.0,0.1462,0.2385,-0.8599,-0.8859,-0.9096,-0.9058,-0.9752,-1.0524,-1.0839,-1.1937,-1.3127,-1.3975,-1.567,-1.6881,-1.6472,-1.6358,-1.5864,-1.4702,-1.3583,-1.284,-1.2845,-1.2531,-1.2436,-1.2654,-1.2304,-1.1968,-1.1756,-1.1874,-1.1779,-1.1321,-1.143,-1.1543,-1.16,-1.16,-1.16,-1.16,-1.16,-1.1524,-1.1368,-1.1468,-1.1439,-1.1283,-1.1222,-1.0976,-1.057,-1.0452,-0.9871,-0.889,-0.8097,-0.7358,-0.6692,-0.5909,-0.5616,-0.5567,-0.5567,-0.5621,-0.5687,-0.56,-0.5526,-0.5469,-0.5469,-0.5491,-0.551,-0.548,-0.5491,-0.551,-0.548,-0.5469,-0.5469,-0.5469,-0.5445,-0.5426,-0.5461,-0.5445,-0.5428,-0.5461,-0.5469,-0.5469,-0.5469,-0.5494,-0.5496,-0.5431,-0.5447,-0.5393,-0.5154,-0.5086,-0.4993,-0.4784,-0.4648,-0.4515,-0.4365,-0.4319,-0.4308,-0.4327,-0.4327,-0.3113,-0.0273,0.0,0.0,0.0,0.0,0.0,0.0,0.0,0.0,0.0,0.0,0.0,0.0,0.0,0.0,0.0,0.0,0.1334,-0.8467,-0.8855,-0.9412,-0.9814,-1.04,-1.1264,-1.2734,-1.3405,-1.4444,-1.6937,-1.7308,-1.7435,-1.8477,-1.7763,-1.6729,-1.5579,-1.4646,-1.3821,-1.2957,-1.2413,-1.2224,-1.2422,-1.2082,-1.1746,-1.1543,-1.1534,-1.1529,-1.151,-1.1515,-1.1605,-1.1798,-1.1808,-1.1808,-1.1808,-1.1808,-1.1803,-1.1798,-1.1614,-1.1515,-1.1505,-1.1293,-1.0976,-1.056,-1.0243,-0.9607,-0.889,-0.8097,-0.7478,-0.6891,-0.6165,-0.5961,-0.6064,-0.6064,-0.6067,-0.607,-0.6064,-0.592,-0.5722,-0.5722,-0.5795,-0.5869,-0.5757,-0.5798,-0.5866,-0.5757,-0.5722,-0.5722,-0.5722,-0.5638,-0.5486,-0.5692,-0.5632,-0.5489,-0.5695,-0.5722,-0.5722,-0.5722,-0.5809,-0.5817,-0.5589,-0.564,-0.5646,-0.5401,-0.526,-0.514,-0.5023,-0.4901,-0.4735,-0.4496,-0.4368,-0.4308,-0.4327,-0.4327,-0.3139,-0.028,0.0,0.0,0.0,0.0,0.0,0.0,0.0,0.0,0.0,0.0,0.0,0.0,0.0,0.0,0.0,0.0,0.0079,-0.9171,-0.9682,-1.0433,-1.1595,-1.2302,-1.3021,-1.4723,-1.5706,-1.6609,-1.745,-1.7544,-1.7583,-1.7763,-1.6843,-1.5823,-1.4902,-1.4286,-1.3592,-1.2626,-1.2313,-1.2115,-1.2035,-1.1784,-1.1534,-1.1326,-1.1435,-1.1458,-1.1316,-1.1562,-1.1746,-1.1813,-1.1954,-1.203,-1.203,-1.203,-1.1898,-1.1619,-1.1685,-1.1576,-1.1302,-1.1094,-1.0849,-1.0565,-1.0291,-1.0075,-0.9803,-0.908,-0.8371,-0.7787,-0.714,-0.6517,-0.6086,-0.6086,-0.6086,-0.6086,-0.6086,-0.6034,-0.5966,-0.5966,-0.5994,-0.6005,-0.5885,-0.5871,-0.5896,-0.5858,-0.5847,-0.5863,-0.5945,-0.5937,-0.5915,-0.5956,-0.5937,-0.5918,-0.5958,-0.5966,-0.5966,-0.5966,-0.5996,-0.5975,-0.5814,-0.5817,-0.5771,-0.5532,-0.5455,-0.536,-0.5159,-0.482,-0.452,-0.4367,-0.4315,-0.358,-0.1623,-0.1461,-0.1062,-0.007,0.0,0.0,0.0,0.0,0.0,0.0,0.0,0.0,0.0,0.0,0.0,0.0,0.0,0.0,0.0,0.0,0.0,-1.0181,-1.0879,-1.1763,-1.3396,-1.4123,-1.4717,-1.6218,-1.6963,-1.7466,-1.7668,-1.7576,-1.734,-1.6901,-1.5896,-1.4937,-1.4177,-1.3554,-1.2939,-1.2259,-1.2044,-1.1921,-1.1931,-1.1751,-1.1572,-1.143,-1.1543,-1.1567,-1.143,-1.1737,-1.1964,-1.2035,-1.2172,-1.2247,-1.2247,-1.2247,-1.212,-1.185,-1.1902,-1.1723,-1.1307,-1.1099,-1.0891,-1.0683,-1.0475,-1.0381,-1.0381,-0.9279,-0.8641,-0.8324,-0.7384,-0.6652,-0.6214,-0.626,-0.6276,-0.6282,-0.6325,-0.6342,-0.6317,-0.6146,-0.6113,-0.613,-0.6007,-0.5999,-0.6026,-0.5983,-0.5966,-0.5986,-0.6064,-0.6086,-0.6086,-0.6086,-0.6086,-0.6086,-0.6086,-0.6119,-0.6151,-0.6151,-0.6181,-0.6162,-0.5999,-0.5966,-0.5893,-0.5657,-0.5494,-0.5469,-0.5227,-0.4924,-0.4425,-0.3763,-0.4003,-0.3177,-0.0278,0.0,0.0,0.0,0.0,0.0,0.0,0.0,0.0,0.0,0.0,0.0,0.0,0.0,0.0,0.0,0.0,0.0,0.0,0.1425,0.2005,-1.1444,-1.24,-1.3328,-1.5154,-1.5773,-1.6268,-1.745,-1.7398,-1.7191,-1.7674,-1.7201,-1.6543,-1.5906,-1.4972,-1.413,-1.3344,-1.2768,-1.2225,-1.1821,-1.1676,-1.1709,-1.2091,-1.1959,-1.1827,-1.1921,-1.1827,-1.1836,-1.1836,-1.2025,-1.2224,-1.2413,-1.2432,-1.2441,-1.2441,-1.2441,-1.2436,-1.2422,-1.2224,-1.1917,-1.1515,-1.1312,-1.1099,-1.0886,-1.0683,-1.0589,-1.0496,-0.9096,-0.854,-0.8497,-0.7058,-0.6451,-0.6467,-0.6584,-0.663,-0.6643,-0.676,-0.6801,-0.6738,-0.6282,-0.6195,-0.6265,-0.6143,-0.6179,-0.6246,-0.613,-0.6094,-0.6097,-0.6102,-0.6105,-0.6105,-0.6105,-0.6105,-0.6105,-0.6105,-0.6192,-0.6276,-0.6276,-0.6361,-0.6366,-0.6132,-0.6075,-0.5996,-0.5773,-0.5638,-0.5483,-0.5336,-0.5141,-0.4484,-0.2811,-0.3493,-0.3004,-0.0292,0.0,0.0,0.0,0.0,0.0,0.0,0.0,0.0,0.0,0.0,0.0,0.0,0.0,0.0,0.0,0.0,0.0,0.0079,0.3957,0.5737,-1.2234,-1.3501,-1.4924,-1.6637,-1.6938,-1.7138,-1.8182,-1.7702,-1.6944,-1.6821,-1.5848,-1.4882,-1.4231,-1.3905,-1.3509,-1.2659,-1.2707,-1.2642,-1.2087,-1.2143,-1.2501,-1.3283,-1.2605,-1.2307,-1.2956,-1.2482,-1.2058,-1.2058,-1.2106,-1.2162,-1.2214,-1.2356,-1.2441,-1.2441,-1.2441,-1.2365,-1.2219,-1.2006,-1.177,-1.152,-1.1463,-1.1246,-1.0891,-1.0839,-1.0816,-1.0811,-1.0432,-1.0043,-0.9742,-0.8747,-0.8024,-0.7638,-0.6948,-0.6755,-0.676,-0.679,-0.6801,-0.6785,-0.6662,-0.6581,-0.651,-0.6388,-0.6312,-0.6263,-0.6233,-0.6222,-0.6238,-0.6323,-0.6347,-0.6347,-0.6347,-0.6347,-0.6347,-0.6347,-0.6372,-0.6393,-0.6393,-0.6418,-0.6366,-0.6132,-0.5942,-0.5806,-0.5752,-0.5628,-0.5648,-0.5593,-0.5586,-0.5241,-0.4437,-0.2448,-0.0836,-0.0073,0.0,0.0,0.0,0.0,0.0,0.0,0.0,0.0,0.0,0.0,0.0,0.0,0.0,0.0,0.0,0.0,0.0,0.0081,0.3888,0.5675,-1.4083,-1.5461,-1.6763,-1.8352,-1.8387,-1.8161,-1.836,-1.7472,-1.6389,-1.5504,-1.464,-1.3843,-1.3184,-1.2532,-1.2085,-1.1987,-1.1657,-1.1517,-1.1742,-1.2372,-1.3026,-1.3832,-1.3853,-1.4011,-1.4497,-1.409,-1.3747,-1.3747,-1.2797,-1.2271,-1.2271,-1.2375,-1.2441,-1.2441,-1.2441,-1.2384,-1.2271,-1.2148,-1.1987,-1.1789,-1.1789,-1.1619,-1.1298,-1.1298,-1.1298,-1.1302,-1.0906,-1.0628,-1.0309,-0.9072,-0.8397,-0.8059,-0.7177,-0.6883,-0.6888,-0.694,-0.6956,-0.6956,-0.6956,-0.688,-0.676,-0.6635,-0.6554,-0.6494,-0.6439,-0.6423,-0.6423,-0.6434,-0.6437,-0.6437,-0.6437,-0.6475,-0.6502,-0.6448,-0.6478,-0.6502,-0.6448,-0.6437,-0.6366,-0.6132,-0.5939,-0.5801,-0.5754,-0.5025,-0.4723,-0.5602,-0.5661,-0.557,-0.5061,-0.204,0.0,0.0,0.0,0.0,0.0,0.0,0.0,0.0,0.0,0.0,0.0,0.0,0.0707,0.2199,0.22,0.1893,0.1274,0.1291,0.1307,0.132,0.4313,0.5692,-1.6237,-1.7597,-1.8527,-1.9735,-1.9623,-1.8825,-1.7845,-1.6769,-1.557,-1.4092,-1.3528,-1.3111,-1.2504,-1.1321,-1.0761,-1.1648,-1.0584,-1.024,-1.1707,-1.2825,-1.3683,-1.4461,-1.531,-1.5968,-1.6074,-1.5968,-1.5861,-1.5861,-1.4046,-1.2762,-1.2654,-1.2654,-1.2545,-1.2441,-1.2441,-1.2441,-1.2441,-1.2441,-1.2337,-1.2139,-1.2139,-1.2025,-1.1817,-1.1817,-1.1817,-1.1714,-1.1092,-1.0798,-1.0715,-0.9028,-0.8302,-0.8226,-0.7393,-0.7008,-0.7018,-0.7119,-0.7154,-0.7154,-0.7154,-0.7089,-0.6989,-0.6866,-0.6815,-0.6779,-0.6657,-0.6619,-0.6594,-0.6472,-0.6437,-0.6437,-0.6437,-0.6516,-0.6567,-0.6461,-0.6518,-0.6564,-0.6458,-0.6426,-0.6352,-0.6151,-0.6021,-0.5907,-0.5703,-0.4324,-0.3667,-0.4747,-0.5341,-0.5401,-0.4465,-0.1762,0.0,0.0,0.0,0.0,0.0,0.0,0.0,0.0,0.0,0.0,0.0,0.0,0.1335,0.4252,0.4805,0.437,0.315,0.3251,0.3294,0.3276,0.4918,0.5681,-1.6875,-1.8143,-1.9174,-1.937,-1.8745,-1.7816,-1.6843,-1.5255,-1.3762,-1.2943,-1.2511,-1.2175,-1.1794,-1.1553,-1.1636,-1.255,-1.2188,-1.2352,-1.3895,-1.436,-1.5131,-1.6439,-1.6156,-1.6287,-1.7259,-1.6399,-1.5861,-1.5861,-1.5541,-1.4905,-1.3954,-1.3846,-1.3408,-1.2436,-1.2441,-1.2441,-1.2441,-1.2441,-1.2337,-1.2139,-1.2139,-1.2025,-1.1817,-1.1817,-1.1817,-1.1817,-1.161,-1.1708,-1.1659,-0.9945,-0.9377,-0.9388,-0.7776,-0.7124,-0.7127,-0.7146,-0.7154,-0.7154,-0.7154,-0.7141,-0.7105,-0.6991,-0.6885,-0.6779,-0.6657,-0.6619,-0.6594,-0.6472,-0.6437,-0.6437,-0.6437,-0.645,-0.6464,-0.6442,-0.6453,-0.6461,-0.6439,-0.6363,-0.6287,-0.6155,-0.6053,-0.5938,-0.5742,-0.5445,-0.4211,-0.1434,-0.3696,-0.4513,-0.1292,-0.0327,0.0,0.0,0.0,0.0,0.0,0.0,0.0,0.0,0.0,0.0,0.0,0.0,0.0236,0.0864,0.3618,0.4896,0.4673,0.502,0.5207,0.5231,0.5529,0.5719,-1.8006,-1.9142,-1.9871,-1.9797,-1.8851,-1.7536,-1.6433,-1.4765,-1.3214,-1.2226,-1.1897,-1.1743,-1.1652,-1.1404,-1.1473,-1.2277,-1.1938,-1.2099,-1.385,-1.4653,-1.5582,-1.6945,-1.7395,-1.7884,-1.8429,-1.7996,-1.7674,-1.7674,-1.7674,-1.6929,-1.5227,-1.4487,-1.3624,-1.2441,-1.2441,-1.2441,-1.2441,-1.2441,-1.2394,-1.2295,-1.2295,-1.2243,-1.2139,-1.2139,-1.2139,-1.2139,-1.2139,-1.188,-1.1432,-1.0229,-0.9403,-0.903,-0.7706,-0.7154,-0.7154,-0.7154,-0.7154,-0.7154,-0.7154,-0.7154,-0.7146,-0.7092,-0.7032,-0.6964,-0.6844,-0.6766,-0.6687,-0.6564,-0.6532,-0.6532,-0.6532,-0.6627,-0.669,-0.6562,-0.6483,-0.6439,-0.6448,-0.6407,-0.6352,-0.6301,-0.6246,-0.6075,-0.5771,-0.401,-0.2121,-0.0274,-0.16,-0.2091,-0.0261,0.0,0.0,0.0,0.0,0.0,0.0,0.0,0.0,0.0,0.0,0.0,0.0,0.0,0.0,0.0,0.1568,0.3337,0.5138,0.5419,0.554,0.5664,0.5689,0.5744,-1.8883,-1.9818,-2.0301,-2.016,-1.8883,-1.7325,-1.606,-1.4392,-1.2789,-1.1836,-1.1512,-1.1453,-1.16,-1.1263,-1.1256,-1.2138,-1.1729,-1.1967,-1.382,-1.495,-1.5967,-1.7116,-1.8409,-1.9199,-1.9264,-1.9279,-1.9279,-1.9279,-1.9279,-1.8422,-1.6399,-1.4911,-1.3738,-1.2871,-1.2545,-1.2441,-1.2441,-1.2441,-1.2441,-1.2441,-1.2441,-1.2441,-1.2441,-1.2441,-1.2441,-1.2441,-1.2441,-1.1891,-1.1017,-1.0127,-0.9251,-0.8374,-0.7487,-0.7154,-0.7154,-0.7154,-0.7154,-0.7154,-0.7154,-0.7154,-0.7154,-0.7154,-0.7138,-0.7097,-0.698,-0.6877,-0.6777,-0.6654,-0.6638,-0.666,-0.666,-0.6782,-0.6853,-0.6638,-0.6529,-0.6478,-0.6366,-0.6057,-0.5832,-0.6355,-0.6443,-0.6012,-0.4726,-0.1988,0.0,0.0,0.0,0.0,0.0,0.0,0.0,0.0,0.0,0.0,0.0,0.0,0.0,0.0,0.0,0.0,0.0,0.0,0.0,0.0,0.0,0.1369,0.4199,0.4982,0.543,0.5697,0.5722,0.5733,-1.8838,-1.959,-2.013,-1.9535,-1.821,-1.6718,-1.5701,-1.3536,-1.177,-1.1645,-1.1092,-1.0858,-1.1512,-1.1341,-1.1607,-1.3093,-1.3028,-1.3443,-1.5461,-1.606,-1.6686,-1.7594,-1.8353,-1.895,-1.925,-1.9279,-1.9279,-1.9279,-1.9279,-1.8743,-1.747,-1.5339,-1.4164,-1.4056,-1.298,-1.2441,-1.2441,-1.2441,-1.2441,-1.2441,-1.2441,-1.2441,-1.2441,-1.2441,-1.2441,-1.2441,-1.2441,-1.1891,-1.1017,-1.0127,-0.9251,-0.8374,-0.7487,-0.7154,-0.7154,-0.7154,-0.7154,-0.7154,-0.7154,-0.7154,-0.7154,-0.7154,-0.7086,-0.6978,-0.6855,-0.6812,-0.6777,-0.6654,-0.67,-0.6785,-0.6785,-0.6719,-0.6624,-0.6404,-0.6548,-0.6592,-0.6396,-0.4845,-0.4033,-0.6065,-0.6374,-0.512,-0.1178,-0.0195,0.0,0.0,0.0,0.0,0.0,0.0,0.0,0.0,0.0,0.0,0.0,0.0,0.0,0.0,0.0,0.0,0.0,0.0,0.0,0.0,0.0,0.0164,0.0504,0.3856,0.5472,0.5497,0.5687,0.5733,-1.8442,-1.9154,-1.9563,-1.917,-1.7604,-1.622,-1.5749,-1.3836,-1.2051,-1.1851,-1.1422,-1.1123,-1.124,-1.1165,-1.148,-1.2709,-1.2636,-1.3038,-1.4794,-1.5153,-1.5796,-1.734,-1.7925,-1.8482,-1.9206,-1.9279,-1.9279,-1.9279,-1.9279,-1.9063,-1.8639,-1.7153,-1.566,-1.4277,-1.3738,-1.3088,-1.2441,-1.2441,-1.2441,-1.2441,-1.2441,-1.2441,-1.2441,-1.2441,-1.2441,-1.2441,-1.2441,-1.1891,-1.1017,-1.0127,-0.9251,-0.8374,-0.7487,-0.7154,-0.7154,-0.7154,-0.7154,-0.7154,-0.7154,-0.7154,-0.7154,-0.7154,-0.7078,-0.6989,-0.7008,-0.6967,-0.6902,-0.6853,-0.6874,-0.6912,-0.6912,-0.6823,-0.6719,-0.6687,-0.6654,-0.6521,-0.6395,-0.5709,-0.4583,-0.2883,-0.2568,-0.2042,-0.0301,0.0,0.0,0.0,0.0,0.0,0.0,0.0,0.0,0.0,0.0,0.0,0.0,0.0,0.0,0.0,0.0,0.0,0.0,0.0,0.0,0.0,0.0,0.0,0.0,0.2678,0.4546,0.5588,0.5714,0.5733,-1.7571,-1.8464,-1.8921,-1.8608,-1.7239,-1.6019,-1.5774,-1.3984,-1.2297,-1.2043,-1.1672,-1.1344,-1.1388,-1.1546,-1.1936,-1.2691,-1.2935,-1.3332,-1.4212,-1.4714,-1.542,-1.6726,-1.7282,-1.7918,-1.8891,-1.9162,-1.9279,-1.9279,-1.9279,-1.9279,-1.9279,-1.8534,-1.7041,-1.4804,-1.4379,-1.363,-1.2441,-1.2441,-1.2441,-1.2441,-1.2441,-1.2441,-1.2441,-1.2441,-1.2441,-1.2441,-1.2441,-1.1891,-1.1017,-1.0127,-0.9251,-0.8374,-0.7487,-0.7154,-0.7154,-0.7154,-0.7154,-0.7154,-0.7154,-0.7154,-0.7154,-0.7154,-0.71,-0.7051,-0.713,-0.7076,-0.6986,-0.6986,-0.701,-0.7027,-0.6994,-0.695,-0.6899,-0.6728,-0.6677,-0.6215,-0.4825,-0.4554,-0.3616,-0.0629,0.0,0.0,0.0,0.0,0.0,0.0,0.0,0.0,0.0,0.0,0.0,0.0,0.0,0.0,0.0,0.0,0.0,0.0,0.0,0.0,0.0,0.0,0.0,0.0,0.0,0.0515,0.1666,0.2541,0.3886,0.5657,0.5738,0.5733,-1.6362,-1.7394,-1.8216,-1.7896,-1.7123,-1.6223,-1.5522,-1.3843,-1.2341,-1.2065,-1.1568,-1.135,-1.1887,-1.253,-1.3067,-1.3459,-1.4463,-1.4969,-1.4111,-1.5219,-1.6056,-1.5933,-1.6484,-1.7245,-1.8218,-1.8899,-1.9279,-1.9279,-1.9279,-1.9279,-1.9279,-1.9272,-1.8206,-1.5968,-1.4804,-1.363,-1.2441,-1.2441,-1.2441,-1.2441,-1.2441,-1.2441,-1.2441,-1.2441,-1.2441,-1.2441,-1.2441,-1.1891,-1.1017,-1.0127,-0.9251,-0.8374,-0.7487,-0.7154,-0.7154,-0.7154,-0.7154,-0.7154,-0.7154,-0.7154,-0.7154,-0.7154,-0.7154,-0.7154,-0.7154,-0.7076,-0.6986,-0.6986,-0.7065,-0.7127,-0.7016,-0.7081,-0.7006,-0.6557,-0.6818,-0.5891,-0.107,-0.0107,-0.0,-0.0,0.0,0.0,0.0,0.0,0.0,0.0,0.0,0.0,0.0,0.0,0.0,0.0,0.0,0.0,0.0,0.0,0.0,0.0,0.0,0.0,0.0,0.0,0.0,0.0,0.0,0.1847,0.5594,0.3769,0.3853,0.5657,0.5738,0.5733,-1.6185,-1.7087,-1.7604,-1.7258,-1.6453,-1.5528,-1.4965,-1.381,-1.2731,-1.21,-1.1844,-1.1804,-1.1793,-1.1957,-1.2516,-1.3647,-1.4157,-1.438,-1.4433,-1.495,-1.5606,-1.6154,-1.7582,-1.8628,-1.8935,-1.9155,-1.9279,-1.9279,-1.9279,-1.9279,-1.9279,-1.9279,-1.8639,-1.7147,-1.5974,-1.4798,-1.3624,-1.2762,-1.2441,-1.2441,-1.2441,-1.2441,-1.2441,-1.2441,-1.2441,-1.2441,-1.2441,-1.2223,-1.1891,-1.1013,-1.0131,-0.9251,-0.8481,-0.7709,-0.7154,-0.7154,-0.7154,-0.7154,-0.7154,-0.7154,-0.7154,-0.7154,-0.7154,-0.7154,-0.7154,-0.713,-0.71,-0.71,-0.7127,-0.7146,-0.7111,-0.7078,-0.6595,-0.4886,-0.5558,-0.5471,-0.0978,0.0,0.0,0.0,0.0,0.0,0.0,0.0,0.0,0.0,0.0,0.0,0.0,0.0,0.0,0.0,0.0,0.0,0.0,0.0,0.0,0.0,0.0,0.0,0.0,0.0,0.0,0.0,0.2565,0.4478,0.5684,0.5133,0.5126,0.5657,0.5738,0.5733,-1.538,-1.6253,-1.676,-1.6604,-1.6041,-1.5403,-1.4729,-1.4087,-1.3266,-1.2378,-1.23,-1.2354,-1.2122,-1.2538,-1.3209,-1.418,-1.4626,-1.4778,-1.4632,-1.5141,-1.5738,-1.6463,-1.7947,-1.8906,-1.8906,-1.9133,-1.9279,-1.9279,-1.9279,-1.9279,-1.9279,-1.9279,-1.8959,-1.822,-1.7147,-1.5767,-1.4164,-1.3413,-1.2871,-1.2441,-1.2441,-1.2441,-1.2441,-1.2441,-1.2441,-1.2441,-1.2441,-1.2441,0.0,-1.1455,-1.0574,-0.9688,-0.8813,-0.7931,-0.7154,-0.7154,-0.7154,-0.7154,-0.7154,-0.7154,-0.7154,-0.7154,-0.7154,-0.7154,-0.7154,-0.7154,-0.7157,-0.7163,-0.7165,-0.7165,-0.7171,-0.7124,-0.6633,-0.53,-0.4417,-0.3203,-0.0552,0.0,0.0,0.0,0.0,0.0,0.0,0.0,0.0,0.0,0.0,0.0,0.0,0.0,0.0,0.0,0.0,0.0,0.0,0.0,0.0,0.0,0.0,0.0,0.0,0.0,0.0,0.0,0.3041,0.4687,0.4678,0.5399,0.5662,0.5741,0.5735,0.5733,0.0,-1.4993,-1.5796,-1.5796,-1.5774,-1.5593,-1.4835,-1.4401,0.0,-1.2902,-1.2833,-1.2908,-1.288,-1.3867,-1.4773,-1.4964,-1.5661,-1.5828,-1.4871,-1.5549,-1.6337,-1.6831,-1.7765,-1.8364,-1.8343,-1.8906,-1.9264,-1.9242,-1.9264,-1.9264,-1.9242,-1.9264,-1.9279,-1.9279,-1.8318,-1.6617,-1.4379,-1.4277,-1.363,-1.2441,-1.2441,-1.2441,-1.2441,-1.2441,-1.2441,-1.2441,-1.2441,-1.2441,-1.2327,-1.1564,-1.0684,-0.9798,-0.8923,-0.8039,-0.7265,-0.7265,-0.7154,-0.7154,-0.7154,-0.7154,-0.7154,-0.7154,-0.7154,-0.7154,-0.7154,-0.7157,-0.716,-0.7176,-0.7067,-0.6956,-0.6964,-0.7089,-0.7209,-0.7209,-0.3478,0.0,0.0,0.0,0.0,0.0,0.0,0.0,0.0,0.0,0.0,0.0,0.0,0.0,0.0,0.0,0.0,0.0,0.0,0.0,0.0,0.0,0.0,0.0,0.0,0.0,0.0,0.0,0.0,0.0,0.1798,0.2786,0.3138,0.4844,0.5746,0.5746,0.5754,0.576,-1.3648,0.0,-1.4531,-1.4531,-1.4515,-1.4298,0.0,-1.3683,-1.3854,-1.2902,-1.3061,-1.3542,-1.4183,-1.4005,-1.436,-1.6023,-1.5891,-1.5624,-1.5829,-1.6374,-1.687,-1.715,-1.8299,-1.895,-1.8701,-1.9038,-1.9169,-1.8921,-1.9133,-1.9169,-1.8913,-1.914,-1.9279,-1.9279,-1.9063,-1.7786,-1.5541,-1.4595,-1.363,-1.2441,-1.2441,-1.2441,-1.2441,-1.2441,-1.2441,-1.2441,-1.2441,-1.2441,-1.2327,-1.2219,-1.1564,-1.0684,-0.9801,-0.892,-0.8152,-0.7487,-0.7154,-0.7154,-0.7154,-0.7154,-0.7154,-0.7154,-0.7154,-0.7154,-0.7154,-0.7165,-0.7176,-0.7182,-0.5828,-0.4477,-0.4479,-0.5839,-0.7209,-0.7209,-0.3478,0.0,0.0,0.0,0.0,0.0,0.0,0.0,0.0,0.0,0.0,0.0,0.0,0.0,0.0,0.0,0.0,0.0,0.0,0.0,0.0,0.0,0.0,0.0,0.0,0.0,0.0,0.0,0.0,0.0,0.0449,0.2155,0.5044,0.5655,0.5965,0.5968,0.5964,0.6002,-1.3506,-1.3965,-1.4434,-1.4434,-1.4434,-1.4208,-1.3518,-1.3609,-1.3675,-1.3185,-1.3301,-1.3769,-1.4629,-1.4176,-1.4279,-1.6119,-1.5486,-1.4988,-1.575,-1.6163,-1.6704,-1.7465,-1.8306,-1.8877,-1.9001,-1.9038,-1.8979,-1.8803,-1.8811,-1.8818,-1.8789,-1.8957,-1.9118,-1.9272,-1.9279,-1.8206,-1.5968,-1.5334,-1.4159,-1.2441,-1.2441,-1.2441,-1.2441,-1.2441,-1.2441,-1.2441,-1.2441,-1.2441,-1.2332,-1.2001,-1.1341,-1.0464,-0.9581,-0.8702,-0.782,-0.7376,-0.7154,-0.7154,-0.7154,-0.7154,-0.7154,-0.7154,-0.7154,-0.7157,-0.7165,-0.7176,-0.6961,-0.5828,-0.538,-0.4709,-0.2575,-0.2914,-0.3929,-0.3929,-0.1906,0.0,0.0,0.0,0.0,0.0,0.0,0.0,0.0,0.0,0.0,0.0,0.0,0.0,0.0,0.0,0.0,0.0,0.0,0.0,0.0,0.0,0.0,0.0,0.0,0.0,0.0,0.0,0.0,0.0,0.0922,0.2488,0.4528,0.5596,0.6089,0.6089,0.6059,0.6086,-1.3603,-1.418,-1.4766,-1.4697,-1.4687,-1.459,-1.4165,-1.3857,-1.3603,-1.3603,-1.3603,-1.3815,-1.4605,-1.4297,-1.4432,-1.5779,-1.5116,-1.4708,-1.5514,-1.5965,-1.6608,-1.7684,-1.8196,-1.8628,-1.9081,-1.8964,-1.8803,-1.865,-1.8474,-1.8452,-1.8628,-1.8686,-1.884,-1.9118,-1.9125,-1.8088,-1.5801,-1.5837,-1.4685,-1.2441,-1.2441,-1.2441,-1.2441,-1.2441,-1.2441,-1.2441,-1.2441,-1.2332,-1.211,-1.1345,-1.0574,-0.9688,-0.8813,-0.8042,-0.7376,-0.7265,-0.7154,-0.7154,-0.7154,-0.7154,-0.7154,-0.7154,-0.7157,-0.7163,-0.7179,-0.719,-0.6743,-0.4707,-0.5048,-0.5168,-0.1009,0.0,0.0,0.0,0.0,0.0,0.0,0.0,0.0,0.0,0.0,0.0,0.0,0.0,0.0,0.0,0.0,0.0,0.0,0.0,0.0,0.0,0.0,0.0,0.0,0.0,0.0,0.0,0.0,0.0,0.0,0.0,0.0286,0.0953,0.276,0.3711,0.3708,0.5341,0.6116,0.6113,0.613,0.6138,-1.398,-1.4404,-1.4697,-1.4326,-1.4238,-1.4165,-1.4097,-1.4029,-1.398,-1.398,-1.398,-1.4134,-1.4464,-1.4602,-1.4862,-1.561,-1.5978,-1.6221,-1.6662,-1.715,-1.7596,-1.7794,-1.8591,-1.895,-1.8496,-1.8906,-1.8855,-1.8028,-1.843,-1.8496,-1.7991,-1.8225,-1.8401,-1.8445,-1.8452,-1.7454,-1.5517,-1.5747,-1.4685,-1.2441,-1.2441,-1.2441,-1.2441,-1.2441,-1.2441,-1.2441,-1.2441,-1.2001,-1.1236,-1.1126,-1.0574,-0.9688,-0.8813,-0.8374,-0.8263,-0.7487,-0.7154,-0.7154,-0.7154,-0.7154,-0.7154,-0.7154,-0.7165,-0.7179,-0.7182,-0.7195,-0.7094,-0.6751,-0.3927,-0.0897,-0.0224,0.0,0.0,0.0,0.0,0.0,0.0,0.0,0.0,0.0,0.0,0.0,0.0,0.0,0.0,0.0,0.0,0.0,0.0,0.0,0.0,0.0,0.0,0.0,0.0,0.0,0.0,0.0,0.0,0.0,0.0,0.0,0.1716,0.5356,0.5741,0.5828,0.5716,0.6107,0.6346,0.6244,0.6339,0.6382,-1.4145,-1.4619,-1.5078,-1.4873,-1.4658,-1.4482,-1.4482,-1.4307,-1.4214,-1.4727,-1.4824,-1.4927,-1.5374,-1.5138,-1.5044,-1.5194,-1.5917,-1.6568,-1.686,-1.696,-1.7296,-1.7991,-1.8167,-1.8313,-1.854,-1.8518,-1.8299,-1.7845,-1.7933,-1.7947,-1.7823,-1.7955,-1.8116,-1.8299,-1.7796,-1.6747,-1.5252,-1.4861,-1.39,-1.2441,-1.2441,-1.2441,-1.2441,-1.2441,-1.2441,-1.2441,-1.2441,-1.1891,-1.1017,-1.0574,-0.9911,-0.903,-0.8149,-0.782,-0.7709,-0.7376,-0.7154,-0.7154,-0.7154,-0.7154,-0.7157,-0.7165,-0.7176,-0.7184,-0.7195,-0.7203,-0.7211,-0.7214,-0.3706,0.0,0.0,0.0,0.0,0.0,0.0,0.0,0.0,0.0,0.0,0.0,0.0,0.0,0.0,0.0,0.0,0.0,0.0,0.0,0.0,0.0,0.0,0.0,0.0,0.0,0.0,0.0,0.0,0.0,0.0,0.0,0.0,0.2263,0.4337,0.6325,0.6415,0.6404,0.6298,0.6344,0.6363,0.6361,0.6412,0.6437,-1.4521,-1.4912,-1.541,-1.541,-1.5176,-1.4924,-1.4946,-1.461,-1.4487,-1.5386,-1.5428,-1.5439,-1.6029,-1.5617,-1.5259,-1.5358,-1.5985,-1.6594,-1.6923,-1.6813,-1.7077,-1.8072,-1.7816,-1.7823,-1.8496,-1.8174,-1.7867,-1.7713,-1.7538,-1.7516,-1.7691,-1.7699,-1.7816,-1.8064,-1.7071,-1.6011,-1.498,-1.3875,-1.2987,-1.237,-1.237,-1.2394,-1.2441,-1.2441,-1.2441,-1.2436,-1.2219,-1.1564,-1.0684,-0.9801,-0.903,-0.8152,-0.7487,-0.7154,-0.7154,-0.7154,-0.7154,-0.7154,-0.7154,-0.7157,-0.7163,-0.7179,-0.7184,-0.7192,-0.7206,-0.7211,-0.6985,-0.5855,-0.2807,0.0,0.0,0.0,0.0,0.0,0.0,0.0,0.0,0.0,0.0,0.0,0.0,0.0,0.0,0.0,0.0,0.0,0.0,0.0,0.0,0.0,0.0,0.0,0.0,0.0,0.0,0.0,0.0,0.0,0.0,0.0404,0.1414,0.4655,0.639,0.6382,0.6369,0.6361,0.6356,0.6442,0.6437,0.6437,0.6437,0.6437,-1.5332,-1.5361,-1.541,-1.541,-1.5391,-1.533,-1.5368,-1.5042,-1.4988,-1.5851,-1.5396,-1.5042,-1.5697,-1.5664,-1.5826,-1.6734,-1.6815,-1.693,-1.7252,-1.7538,-1.7743,-1.7838,-1.8072,-1.8138,-1.7911,-1.8116,-1.8013,-1.7406,-1.7618,-1.7655,-1.7377,-1.7362,-1.7377,-1.7399,-1.6434,-1.5512,-1.461,-1.3618,-1.2756,-1.2162,-1.2162,-1.2261,-1.2441,-1.2441,-1.2441,-1.2327,-1.1564,-1.0684,-0.9798,-0.8923,-0.8042,-0.7265,-0.7265,-0.7154,-0.7154,-0.7154,-0.7154,-0.7154,-0.7154,-0.7165,-0.7182,-0.7182,-0.7192,-0.7209,-0.7209,-0.7214,-0.631,-0.1795,-0.0224,0.0,0.0,0.0,0.0,0.0,0.0,0.0,0.0,0.0,0.0,0.0,0.0,0.0,0.0,0.0,0.0,0.0,0.0,0.0,0.0,0.0,0.0,0.0,0.0,0.0,0.0,0.0,0.0,0.0,0.0,0.1818,0.5775,0.6186,0.6382,0.6366,0.6364,0.6356,0.6437,0.6437,0.6437,0.6437,0.6437,0.6437,-1.5088,-1.541,-1.5752,-1.5478,-1.5615,-1.5916,-1.6132,-1.5818,-1.5924,-1.7345,-1.683,-1.6302,-1.6624,-1.6049,-1.5731,-1.6593,-1.682,-1.6967,-1.7282,-1.7435,-1.7662,-1.8072,-1.7867,-1.7728,-1.7808,-1.7743,-1.7596,-1.7347,-1.7443,-1.7457,-1.7333,-1.7326,-1.7326,-1.7326,-1.5704,-1.47,-1.4425,-1.2774,-1.1859,-1.1756,-1.2016,-1.2243,-1.2441,-1.2441,-1.2441,-1.2327,-1.1455,-1.0574,-0.9688,-0.8813,-0.7931,-0.7154,-0.7154,-0.7154,-0.7154,-0.7154,-0.7154,-0.7157,-0.7168,-0.7176,-0.7184,-0.7195,-0.7203,-0.6641,-0.3591,-0.2692,-0.2356,-0.0561,0.0,0.0,0.0,0.0,0.0,0.0,0.0,0.0,0.0,0.0,0.0,0.0,0.0,0.0,0.0,0.0,0.0,0.0,0.0,0.0,0.0,0.0,0.0,0.0,0.0,0.1201,0.4233,0.4148,0.3362,0.2105,0.3217,0.4712,0.6292,0.638,0.6369,0.6364,0.6353,0.6442,0.6437,0.6437,0.6437,0.6437,0.6516,0.6551,-1.4863,-1.5215,-1.5586,-1.5293,-1.5644,-1.6189,-1.6632,-1.6501,-1.6815,-1.8239,-1.7773,-1.7075,-1.6971,-1.6312,-1.5937,-1.6518,-1.6888,-1.7047,-1.7165,-1.7267,-1.7457,-1.7801,-1.7538,-1.7377,-1.7501,-1.7311,-1.7179,-1.7179,-1.7084,-1.7113,-1.7318,-1.723,-1.7223,-1.7326,-1.5317,-1.4268,-1.4268,-1.2252,-1.1302,-1.152,-1.1808,-1.2049,-1.2243,-1.2243,-1.2243,-1.2135,-1.1056,-1.0221,-0.961,-0.8477,-0.7613,-0.71,-0.71,-0.7124,-0.7146,-0.707,-0.7095,-0.716,-0.7133,-0.7154,-0.7192,-0.7206,-0.6186,-0.4267,-0.1009,0.0,0.0,0.0,0.0,0.0,0.0,0.0,0.0,0.0,0.0,0.0,0.0,0.0,0.0,0.0,0.0,0.0,0.0,0.0,0.0,0.0,0.0,0.0,0.0,0.0,0.0,0.0,0.0,0.1985,0.6751,0.6829,0.5974,0.4358,0.5723,0.6479,0.639,0.6505,0.6516,0.6513,0.654,0.6532,0.6494,0.6532,0.6532,0.6497,0.6619,0.6676,-1.4795,-1.4795,-1.4795,-1.4795,-1.5439,-1.622,-1.6597,-1.7051,-1.764,-1.8344,-1.7908,-1.7254,-1.6643,-1.646,-1.6578,-1.6914,-1.7124,-1.7208,-1.6894,-1.7121,-1.7201,-1.6887,-1.7128,-1.7194,-1.6879,-1.6941,-1.6941,-1.6941,-1.655,-1.6645,-1.7282,-1.7018,-1.6996,-1.7311,-1.5317,-1.4262,-1.4268,-1.2252,-1.1302,-1.1515,-1.1515,-1.1619,-1.1817,-1.1817,-1.1817,-1.1714,-1.0044,-0.9406,-0.9333,-0.759,-0.6874,-0.6983,-0.6983,-0.7051,-0.7124,-0.6888,-0.6961,-0.716,-0.6931,-0.6979,-0.7209,-0.7097,-0.3929,0.0,0.0,0.0,0.0,0.0,0.0,0.0,0.0,0.0,0.0,0.0,0.0,0.0,0.0,0.0,0.0,0.0,0.0,0.0,0.0,0.0,0.0,0.0,0.0,0.0,0.0,0.0,0.0,0.0,0.0,0.2018,0.6753,0.7209,0.6987,0.6414,0.6716,0.673,0.638,0.6575,0.6632,0.6622,0.6741,0.6744,0.6622,0.6744,0.6741,0.6624,0.6747,0.6804,-1.5225,-1.5449,-1.5684,-1.5684,-1.6338,-1.7118,-1.7431,-1.7578,-1.7814,-1.8222,-1.7948,-1.7492,-1.6928,-1.6598,-1.6397,-1.6359,-1.6533,-1.655,-1.6235,-1.6455,-1.6616,-1.6521,-1.6594,-1.6616,-1.6521,-1.6513,-1.6513,-1.6513,-1.6418,-1.6455,-1.6645,-1.6565,-1.6382,-1.5941,-1.464,-1.3696,-1.3204,-1.1868,-1.1227,-1.1293,-1.1293,-1.1477,-1.1822,-1.1973,-1.1959,-1.1719,-1.0176,-0.9447,-0.9275,-0.7551,-0.6823,-0.6858,-0.6858,-0.6877,-0.6899,-0.6836,-0.6967,-0.7045,-0.7105,-0.7158,-0.6646,-0.3242,-0.1121,0.0,0.0,0.0,0.0,0.0,0.0,0.0,0.0,0.0,0.0,0.0,0.0,0.0,0.0,0.0,0.0,0.0,0.0,0.0,0.0,0.0,0.0,0.0,0.0,0.0,0.0,0.0,0.0,0.0,0.3029,0.494,0.4707,0.6102,0.6918,0.6835,0.6781,0.6777,0.6592,0.6692,0.6749,0.6747,0.6785,0.6785,0.6749,0.6785,0.6785,0.6752,0.6874,0.6931,-1.4863,-1.5098,-1.542,-1.5998,-1.6728,-1.7668,-1.8657,-1.8449,-1.8019,-1.841,-1.764,-1.6937,-1.6774,-1.6376,-1.6019,-1.6041,-1.6249,-1.6265,-1.5957,-1.6177,-1.6323,-1.6206,-1.6294,-1.6323,-1.6199,-1.6184,-1.6184,-1.6184,-1.6067,-1.6104,-1.636,-1.625,-1.5938,-1.5337,-1.4334,-1.3431,-1.2727,-1.1673,-1.1194,-1.1194,-1.1194,-1.1326,-1.1576,-1.1396,-1.1182,-1.0972,-0.9503,-0.8647,-0.81,-0.7177,-0.6774,-0.6728,-0.6728,-0.676,-0.6798,-0.6709,-0.6846,-0.7057,-0.6929,-0.578,-0.3842,-0.0892,0.0,0.0,0.0,0.0,0.0,0.0,0.0,0.0,0.0,0.0,0.0,0.0,0.0,0.0,0.0,0.0,0.0,0.0,0.0,0.0,0.0,0.0,0.0,0.0,0.0,0.0,0.0,0.0,0.0785,0.2691,0.5506,0.6634,0.5152,0.6217,0.7046,0.6989,0.6959,0.6891,0.6779,0.6839,0.6874,0.6874,0.6918,0.6921,0.6874,0.6921,0.6918,0.6877,0.6997,0.7054,-1.4121,-1.4165,-1.4502,-1.5801,-1.6811,-1.7997,-2.009,-1.9375,-1.8425,-1.876,-1.7323,-1.6118,-1.6367,-1.5943,-1.5635,-1.5877,-1.6148,-1.6221,-1.5913,-1.6111,-1.6177,-1.5906,-1.6111,-1.6177,-1.5899,-1.587,-1.587,-1.587,-1.5599,-1.5595,-1.6162,-1.5929,-1.5521,-1.4983,-1.4099,-1.3302,-1.2506,-1.1668,-1.1184,-1.1165,-1.1184,-1.1184,-1.1068,-1.0323,-0.9945,-0.9756,-0.8386,-0.7247,-0.6453,-0.6676,-0.6703,-0.6603,-0.6603,-0.6679,-0.676,-0.6337,-0.6516,-0.7048,-0.6095,-0.3239,0.0,0.0,0.0,0.0,0.0,0.0,0.0,0.0,0.0,0.0,0.0,0.0,0.0,0.0,0.0,0.0,0.0,0.0,0.0,0.0,0.0,0.0,0.0,0.0,0.0,0.0,0.0,0.0,0.0,0.0336,0.2355,0.6756,0.7209,0.7201,0.7184,0.7182,0.713,0.7008,0.7097,0.7108,0.7005,0.6999,0.6999,0.6999,0.7103,0.7103,0.6999,0.7103,0.71,0.7002,0.7105,0.7154,-1.4932,-1.4893,-1.4961,-1.6269,-1.7423,-1.86,-1.9691,-1.9375,-1.8924,-1.9381,-1.8151,-1.6967,-1.6784,-1.6638,-1.6411,-1.5987,-1.5972,-1.5899,-1.5577,-1.5592,-1.5606,-1.554,-1.5592,-1.5606,-1.554,-1.5533,-1.5533,-1.5533,-1.5467,-1.5147,-1.4583,-1.4528,-1.3873,-1.2428,-1.237,-1.1947,-1.1336,-1.121,-1.1113,-1.0962,-1.1118,-1.0812,-0.9996,-1.0194,-0.9524,-0.8306,-0.7815,-0.716,-0.6439,-0.6491,-0.6499,-0.6475,-0.6475,-0.6502,-0.6329,-0.4549,-0.502,-0.6091,-0.2548,-0.0755,0.0,0.0,0.0,0.0,0.0,0.0,0.0,0.0,0.0,0.0,0.0,0.0,0.0,0.0,0.0,0.0,0.0,0.0,0.0,0.0,0.0,0.0,0.0,0.0,0.0,0.0,0.0,0.0,0.0,0.3254,0.6074,0.7097,0.7198,0.7187,0.7182,0.7168,0.7149,0.7119,0.7141,0.7143,0.7119,0.7119,0.7119,0.7119,0.7141,0.7141,0.7119,0.7143,0.7141,0.7119,0.7143,0.7154,-1.4375,-1.4407,-1.4667,-1.6189,-1.7896,-1.9382,-2.0033,-1.9761,-1.9481,-1.9868,-1.8816,-1.7721,-1.7117,-1.6949,-1.6564,-1.5815,-1.5687,-1.5621,-1.5452,-1.5431,-1.5372,-1.5211,-1.5335,-1.5372,-1.5211,-1.5335,-1.5431,-1.5431,-1.5431,-1.4999,-1.4139,-1.4139,-1.3322,-1.1661,-1.17,-1.1431,-1.074,-1.0844,-1.0844,-1.074,-1.0849,-1.0265,-0.9045,-0.8996,-0.8345,-0.7131,-0.7003,-0.6781,-0.6431,-0.6377,-0.6388,-0.6437,-0.6445,-0.6358,-0.6268,-0.5153,-0.4089,-0.3021,-0.0742,0.0,0.0,0.0,0.0,0.0,0.0,0.0,0.0,0.0,0.0,0.0,0.0,0.0,0.0,0.0,0.0,0.0,0.0,0.0,0.0,0.0,0.0,0.0,0.0,0.0,0.0785,0.3141,0.3478,0.3139,0.2238,0.4145,0.5951,0.7304,0.7299,0.7179,0.7171,0.716,0.7154,0.7154,0.7154,0.7154,0.7154,0.7154,0.7154,0.7154,0.7154,0.7154,0.7154,0.7154,0.7154,0.7154,0.7154,0.7154,-1.3574,-1.3742,-1.4323,-1.5919,-1.7769,-1.9408,-2.0072,-1.9743,-1.9444,-1.9761,-1.9199,-1.833,-1.7649,-1.7107,-1.6547,-1.5831,-1.5543,-1.5431,-1.5431,-1.5431,-1.5306,-1.4903,-1.5233,-1.5299,-1.4896,-1.524,-1.5347,-1.5173,-1.5173,-1.4741,-1.3626,-1.3626,-1.2869,-1.1336,-1.1384,-1.1145,-1.0518,-1.0556,-1.0556,-1.0523,-1.0242,-0.9515,-0.8254,-0.7647,-0.6967,-0.6372,-0.6276,-0.629,-0.6369,-0.6276,-0.6304,-0.641,-0.6326,-0.6147,-0.5866,-0.6284,-0.3682,0.0,0.0,0.0,0.0,0.0,0.0,0.0,0.0,0.0,0.0,0.0,0.0,0.0,0.0,0.0,0.0,0.0,0.0,0.0,0.0,0.0,0.0,0.0,0.0,0.0,0.0,0.0,0.1677,0.6524,0.7418,0.6951,0.5258,0.4698,0.526,0.751,0.7513,0.7282,0.7157,0.7154,0.7154,0.7154,0.7154,0.7154,0.7154,0.7154,0.7154,0.7154,0.7154,0.7154,0.7154,0.7154,0.7154,0.7154,0.7154,0.7265,-1.3857,-1.4222,-1.4667,-1.5733,-1.617,-1.6804,-1.823,-1.7907,-1.7412,-1.7464,-1.8258,-1.8888,-1.8803,-1.7899,-1.7075,-1.6991,-1.6095,-1.5431,-1.5431,-1.5431,-1.5306,-1.4903,-1.5233,-1.5299,-1.4896,-1.524,-1.509,-1.4314,-1.4314,-1.3542,-1.1752,-1.1666,-1.1251,-1.0251,-1.0351,-1.0461,-1.0315,-1.0485,-1.0485,-1.0315,-0.903,-0.8287,-0.8247,-0.6875,-0.6227,-0.6132,-0.6116,-0.6119,-0.6132,-0.6116,-0.6181,-0.6293,-0.6203,-0.5169,-0.3831,-0.567,-0.3682,0.0,0.0,0.0,0.0,0.0,0.0,0.0,0.0,0.0,0.0,0.0,0.0,0.0,0.0,0.0,0.0,0.0,0.0,0.0,0.0,0.0,0.0,0.0,0.0,0.0,0.0,0.0,0.1656,0.6515,0.8023,0.8433,0.7624,0.7624,0.773,0.7736,0.7616,0.7496,0.7265,0.7154,0.7154,0.7154,0.7154,0.7154,0.7154,0.7154,0.7154,0.7154,0.7154,0.7154,0.7154,0.7154,0.7154,0.7154,0.7154,0.7706,-1.3103,-1.3238,-1.3522,-1.4004,-1.4759,-1.565,-1.6643,-1.6852,-1.6833,-1.6966,-1.7476,-1.7768,-1.7482,-1.6823,-1.6306,-1.6224,-1.5606,-1.516,-1.516,-1.516,-1.497,-1.4465,-1.4845,-1.5028,-1.4706,-1.497,-1.4814,-1.4132,-1.3837,-1.289,-1.1196,-1.1117,-1.0699,-0.9781,-0.9984,-1.0093,-1.0093,-1.0069,-0.9832,-0.9309,-0.8344,-0.7714,-0.7423,-0.6338,-0.5961,-0.6081,-0.6013,-0.6024,-0.6081,-0.6018,-0.6158,-0.628,-0.6265,-0.5733,-0.4781,-0.3321,-0.1635,0.0,0.0,0.0,0.0,0.0,0.0,0.0,0.0,0.0,0.0,0.0,0.0,0.0,0.0,0.0,0.0,0.0,0.0,0.0,0.0,0.0,0.0,0.0,0.223,0.3142,0.0448,0.0994,0.2526,0.481,0.6864,0.8047,0.8051,0.806,0.8165,0.8165,0.7829,0.7607,0.7382,0.7268,0.7154,0.7154,0.7154,0.7154,0.7154,0.7154,0.7154,0.7154,0.7154,0.7154,0.7154,0.7154,0.7485,0.8149,0.8149,0.8367,-1.2021,-1.2112,-1.2334,-1.2411,-1.3215,-1.4191,-1.501,-1.5323,-1.5484,-1.578,-1.593,-1.5881,-1.5559,-1.5628,-1.5669,-1.5486,-1.505,-1.4823,-1.4823,-1.4823,-1.4611,-1.4048,-1.4479,-1.4699,-1.4377,-1.4468,-1.4258,-1.3566,-1.2943,-1.2067,-1.0611,-1.0538,-1.0216,-0.9563,-0.971,-0.979,-0.979,-0.9639,-0.9228,-0.8552,-0.7998,-0.7386,-0.6728,-0.5948,-0.5801,-0.5991,-0.5899,-0.5912,-0.5994,-0.5909,-0.5665,-0.5397,-0.5981,-0.6257,-0.5922,-0.1596,0.0,0.0,0.0,0.0,0.0,0.0,0.0,0.0,0.0,0.0,0.0,0.0,0.0,0.0,0.0,0.0,0.0,0.0,0.0,0.0,0.0,0.0,0.0,0.0,0.2876,0.4583,0.2241,0.3203,0.4282,0.4467,0.6291,0.7689,0.7919,0.8045,0.8266,0.8484,0.8045,0.7715,0.7607,0.7382,0.7268,0.7154,0.7154,0.7376,0.7598,0.7376,0.7376,0.7595,0.7376,0.7154,0.7154,0.7487,0.7928,0.8478,0.903,0.9361,-1.081,-1.1116,-1.173,-1.1727,-1.153,-1.1677,-1.3052,-1.2775,-1.2358,-1.2691,-1.3001,-1.3319,-1.3579,-1.478,-1.5734,-1.569,-1.5025,-1.4494,-1.4494,-1.4494,-1.437,-1.4026,-1.4289,-1.437,-1.404,-1.367,-1.2975,-1.2092,-1.1272,-1.0379,-0.9418,-0.9418,-0.9337,-0.9341,-0.9351,-0.9356,-0.9356,-0.9346,-0.901,-0.8435,-0.7702,-0.7122,-0.6589,-0.5815,-0.5629,-0.5752,-0.5744,-0.5749,-0.5765,-0.5757,-0.4634,-0.3235,-0.5018,-0.601,-0.5912,-0.1573,0.0,0.0,0.0,0.0,0.0,0.0,0.0,0.0,0.0,0.0,0.0,0.0,0.0,0.0,0.0,0.0,0.0,0.0,0.0,0.0,0.0,0.0,0.0,0.0,0.0219,0.1763,0.6058,0.6885,0.6952,0.7051,0.7405,0.7804,0.8029,0.8263,0.8484,0.8484,0.8484,0.8266,0.7607,0.7607,0.7493,0.7265,0.7154,0.7706,0.8809,0.7817,0.7706,0.8813,0.7706,0.7154,0.7154,0.826,0.826,0.7376,0.9574,1.0562,-1.0458,-1.0543,-1.0717,-1.0951,-1.0741,-1.079,-1.1903,-1.1918,-1.1823,-1.2138,-1.2467,-1.2731,-1.2848,-1.3606,-1.4411,-1.4842,-1.4513,-1.4157,-1.4157,-1.4157,-1.4033,-1.3711,-1.396,-1.3954,-1.33,-1.3076,-1.2427,-1.1244,-1.0572,-0.9844,-0.9124,-0.9133,-0.9133,-0.9133,-0.9256,-0.9261,-0.9133,-0.8851,-0.8281,-0.7519,-0.6973,-0.6437,-0.5892,-0.5637,-0.5531,-0.5733,-0.5741,-0.5744,-0.566,-0.567,-0.5333,-0.455,-0.2762,-0.2147,-0.2086,-0.0584,0.0,0.0,0.0,0.0,0.0,0.0,0.0,0.0,0.0,0.0,0.0606,0.3335,0.4065,0.3475,0.0718,0.0,0.0,0.0,0.0,0.0,0.0,0.2475,0.4787,0.5586,0.53,0.5117,0.5373,0.6628,0.7583,0.7607,0.7728,0.7789,0.77,0.8156,0.8484,0.8484,0.8484,0.8377,0.7937,0.7718,0.7493,0.7265,0.7928,0.8481,0.892,0.9247,0.9684,1.0014,0.9684,0.9027,0.826,0.8702,0.9467,1.0554,1.1433,1.176,-1.0148,-1.0143,-1.0232,-1.0401,-1.0177,-1.0163,-1.1041,-1.115,-1.1194,-1.1619,-1.197,-1.2233,-1.2343,-1.2804,-1.3309,-1.3748,-1.3631,-1.3492,-1.3492,-1.3359,-1.3198,-1.2984,-1.3241,-1.3133,-1.2296,-1.2214,-1.1756,-1.0526,-0.9864,-0.9301,-0.8911,-0.8916,-0.8916,-0.8916,-0.9044,-0.8974,-0.8604,-0.833,-0.7693,-0.6634,-0.6334,-0.5992,-0.5488,-0.5488,-0.5581,-0.5738,-0.5657,-0.5297,-0.4846,-0.5405,-0.4956,-0.3514,-0.1002,0.0,0.0,0.0,0.0,0.0,0.0,0.0,0.0,0.0,0.0,0.0,0.0,0.101,0.2729,0.5571,0.6444,0.5877,0.2877,0.165,0.1042,0.0214,0.0642,0.1389,0.2273,0.4889,0.7531,0.8692,0.8533,0.7689,0.6035,0.6976,0.795,0.7937,0.7865,0.7834,0.7706,0.8045,0.8374,0.8484,0.8813,0.892,0.8592,0.8813,0.8809,0.8364,0.9137,0.9688,1.0014,1.0453,1.0891,1.1219,1.0891,1.0453,1.0123,1.0123,1.0668,1.1869,1.2639,1.297,0.0,0.0,0.0,-1.0132,-0.9855,-0.9782,-1.0426,-1.0331,-1.028,-1.0916,-1.1372,-1.1641,-1.1955,-1.2277,-1.2489,-1.2489,-1.2511,-1.2519,-1.2519,-1.2089,-1.185,-1.1786,-1.2104,-1.1977,-1.1174,-1.1019,-1.072,-0.9906,-0.9145,-0.8689,-0.8703,-0.8703,-0.8699,-0.8694,-0.8699,-0.8394,-0.7774,-0.7783,-0.7092,-0.5864,-0.586,-0.5689,-0.5363,-0.5363,-0.5502,-0.5654,-0.566,-0.4578,-0.3138,-0.4862,-0.3328,0.0,0.0,0.0,0.0,0.0,0.0,0.0,0.0,0.0,0.0,0.0,0.0,0.0,0.0,0.3031,0.639,0.639,0.6546,0.6766,0.6438,0.5014,0.313,0.0757,0.1937,0.4298,0.6702,0.7242,0.7544,0.8679,0.8913,0.8716,0.8383,0.8288,0.8285,0.8048,0.8045,0.8045,0.8045,0.8045,0.8156,0.8484,0.9467,1.0123,0.9798,1.0887,1.1214,1.0781,1.0781,1.1214,1.2304,1.1324,1.1328,1.2417,1.1328,1.1328,1.2417,1.2417,1.1869,1.0891,1.3093,1.4191,-0.9791,0.0,0.0,0.0,0.0,0.0,-1.0141,-1.0163,-1.0155,-1.0331,-1.0821,-1.1238,-1.1326,-1.1604,-1.1823,-1.1823,-1.2219,-1.2519,-1.2519,-1.2395,-1.2179,-1.183,-1.1737,-1.1237,-1.0143,-0.9863,-0.9547,-0.8847,-0.8486,-0.8382,-0.8685,-0.8703,-0.8633,-0.8491,-0.817,-0.7871,-0.7592,-0.6805,-0.6247,-0.586,-0.5479,-0.5249,-0.5238,-0.5238,-0.5377,-0.5526,-0.4208,-0.416,-0.477,-0.2516,-0.0988,0.0,0.0,0.0,0.0,0.0,0.0,0.0,0.0,0.0,0.0,0.0,0.0,0.0,0.0,0.3031,0.639,0.6382,0.642,0.657,0.6586,0.61,0.5552,0.5314,0.4351,0.4252,0.671,0.7473,0.7761,0.8355,0.8569,0.8679,0.8716,0.8722,0.8608,0.8377,0.8374,0.8156,0.7715,0.7826,0.7934,0.7826,0.9251,1.0014,0.9578,1.0777,1.1214,1.0781,1.1433,1.2091,1.2413,1.2975,1.3418,1.3748,1.3418,1.3418,1.3748,1.2861,1.2639,1.3202,1.3862,1.3748,-0.9921,-0.9994,-1.0236,-1.0455,0.0,0.0,-1.0199,-1.0089,-0.9936,-1.0075,-1.0404,-1.0711,-1.085,-1.1203,-1.1417,-1.1417,-1.1787,-1.2123,-1.2123,-1.1969,-1.1708,-1.147,-1.1162,-1.0571,-0.9532,-0.9357,-0.8983,-0.8332,-0.8151,-0.8188,-0.8429,-0.8529,-0.8375,-0.8038,-0.7916,-0.7503,-0.6874,-0.6207,-0.5786,-0.5553,-0.5171,-0.5075,-0.5186,-0.5192,-0.5303,-0.5411,-0.4506,-0.4655,-0.544,-0.1612,0.0,0.0,0.0,0.0,0.0,0.0,0.0,0.0,0.0,0.1206,0.2399,0.0604,0.0606,0.1513,0.2424,0.4448,0.6377,0.6372,0.6398,0.6545,0.6611,0.6607,0.6698,0.6844,0.6084,0.5628,0.6992,0.7695,0.8171,0.8288,0.8387,0.8598,0.8826,0.894,0.8826,0.8712,0.8709,0.8709,0.8702,0.8813,0.903,0.9251,1.0558,1.1328,1.0899,1.2091,1.2639,1.2209,1.2753,1.3192,1.3192,1.3856,1.4196,1.4196,1.4196,1.4196,1.4196,1.3527,1.3527,1.4196,1.4196,1.3527,-1.0163,-0.9972,-0.9972,-1.0814,-1.0368,0.0,-1.0411,-1.0082,-0.9738,-0.9994,-1.0075,-1.0192,-1.0477,-1.0828,-1.1063,-1.1026,-1.1387,-1.1622,-1.1622,-1.1219,-1.0942,-1.0778,-1.0429,-0.988,-0.9018,-0.9072,-0.8793,-0.8117,-0.8066,-0.807,-0.8047,-0.8178,-0.7997,-0.7482,-0.7505,-0.7061,-0.5915,-0.5854,-0.5556,-0.5018,-0.5018,-0.5069,-0.5167,-0.5259,-0.5333,-0.5385,-0.5502,-0.5397,-0.4819,-0.1423,0.0,0.0,0.0,0.0,0.0,0.0,0.0,0.0096,0.0496,0.3183,0.5731,0.1902,0.1812,0.3629,0.577,0.6377,0.6364,0.6361,0.6526,0.6603,0.6616,0.6771,0.6877,0.6484,0.6998,0.7538,0.7448,0.8066,0.8491,0.8393,0.8497,0.8598,0.8826,0.894,0.894,0.894,0.894,0.9261,1.0123,1.0233,1.0562,1.1324,1.2526,1.3186,1.2876,1.3954,1.4504,1.4191,1.4196,1.4196,1.4196,1.4196,1.4196,1.4196,1.4196,1.4196,1.4196,1.4196,1.4196,1.4196,1.4083,1.331,-1.0565,-1.0638,0.0,0.0,-1.0536,0.0,-1.0228,-1.0097,-0.995,-0.9753,-0.9921,-1.0119,-1.0185,-1.0675,-1.0989,-1.0726,-1.124,-1.1622,-1.1622,-1.1549,-1.1099,-1.0145,-0.9831,-0.9228,-0.8162,-0.7947,-0.785,-0.7825,-0.7985,-0.8009,-0.7848,-0.761,-0.7427,-0.7284,-0.6578,-0.5989,-0.5689,-0.5348,-0.5093,-0.5018,-0.5018,-0.5029,-0.505,-0.5053,-0.505,-0.5094,-0.512,-0.3626,-0.1045,-0.035,0.0,0.0,0.0,0.0,0.0,0.0,0.0,0.0467,0.3542,0.5361,0.6214,0.5431,0.4285,0.3629,0.5766,0.6372,0.6361,0.6445,0.6456,0.6494,0.6594,0.6581,0.6581,0.6733,0.7029,0.7315,0.7399,0.795,0.8488,0.8488,0.8602,0.8826,0.8937,0.894,0.894,0.894,0.894,0.9261,1.0123,1.0233,1.0449,1.1105,1.2417,1.3073,1.2531,1.3835,1.4504,1.4191,1.4196,1.4196,1.4196,1.4196,1.4196,1.4196,1.4196,1.4196,1.4196,1.4196,1.4196,1.4191,1.3192,1.2091,-1.088,0.0,0.0,-1.0608,0.0,0.0,0.0,-1.0236,-1.0294,-1.0133,-1.0104,-1.0104,-1.0104,-1.0368,-1.0473,-1.0186,-1.0387,-1.0634,-1.0564,-1.0856,-1.0721,-0.9758,-0.9274,-0.8798,-0.82,-0.778,-0.7569,-0.7612,-0.7711,-0.7725,-0.7626,-0.7336,-0.6995,-0.6722,-0.6092,-0.561,-0.5299,-0.514,-0.5018,-0.5018,-0.5018,-0.5018,-0.4937,-0.4151,-0.4187,-0.4901,-0.32,-0.1583,0.0,0.0,0.0,0.0,0.0,0.0,0.0,0.0,0.1195,0.3116,0.5014,0.5966,0.6313,0.6377,0.5664,0.5033,0.606,0.6361,0.6448,0.6439,0.648,0.6526,0.6526,0.6573,0.6619,0.6619,0.7069,0.7529,0.7532,0.8122,0.8712,0.8712,0.8826,0.894,0.894,0.894,0.894,0.894,0.9372,1.0131,1.1219,1.1869,1.2417,1.2965,1.3727,1.3948,1.3305,1.3964,1.4293,1.4196,1.4196,1.4196,1.4196,1.4196,1.4196,1.4196,1.4196,1.4196,1.4196,1.4196,1.3862,1.3305,1.2639,1.1433,0.0,0.0,0.0,0.0,0.0,-1.0363,0.0,0.0,0.0,-1.025,-0.9981,-0.9784,-0.9721,-0.9763,-0.9729,-0.9308,-0.9459,-0.9504,-0.9116,-0.9631,-0.9844,-0.9384,-0.8768,-0.8377,-0.8291,-0.7842,-0.7521,-0.7521,-0.7521,-0.7521,-0.7521,-0.7024,-0.6575,-0.6175,-0.5828,-0.5382,-0.498,-0.5007,-0.5018,-0.5018,-0.5018,-0.5018,-0.494,-0.3604,-0.3374,-0.3864,-0.1145,0.0,0.0,0.0,0.0,0.0,0.0,0.0,0.009,0.0823,0.3008,0.5711,0.5707,0.5868,0.6178,0.6285,0.6287,0.6377,0.6415,0.6415,0.6407,0.6431,0.6507,0.6562,0.6464,0.6584,0.6681,0.6483,0.7197,0.7852,0.7666,0.8272,0.8903,0.9147,0.9265,0.9154,0.8937,0.894,0.8937,0.9265,1.0131,1.1214,1.2526,1.3619,1.4385,1.4928,1.5041,1.4826,1.4299,1.4196,1.4196,1.4196,1.4196,1.4196,1.4196,1.4196,1.4196,1.4196,1.4196,1.4196,1.4196,1.4196,1.3748,1.2748,1.2309,1.1105,0.0,0.0,0.0,0.0,-0.9774,0.0,0.0,0.0,-0.9126,-0.8893,0.0,-0.8728,-0.849,0.0,0.0,-0.8196,-0.8722,-0.8861,-0.7769,-0.8094,-0.8509,-0.8592,-0.8375,-0.808,-0.7632,-0.7521,-0.7521,-0.7521,-0.7521,-0.7521,-0.7521,-0.6564,-0.6056,-0.6076,-0.5247,-0.4803,-0.4855,-0.4961,-0.5018,-0.5018,-0.5018,-0.5021,-0.5029,-0.48,-0.3222,-0.055,-0.0158,0.0,0.0,0.0,0.0,0.0,0.0,0.0,0.045,0.3789,0.533,0.5687,0.5697,0.5855,0.6034,0.5945,0.6029,0.6146,0.6257,0.629,0.6309,0.6407,0.6445,0.6453,0.6745,0.6561,0.6472,0.6748,0.7166,0.7623,0.7626,0.8194,0.9096,1.0206,1.0457,1.0131,0.9047,0.894,0.9265,1.0347,1.0562,1.1546,1.3727,1.4169,1.4385,1.4928,1.5041,1.4826,1.4299,1.4196,1.4196,1.4196,1.4196,1.4196,1.4196,1.4196,1.4196,1.4196,1.4196,1.4196,1.4196,1.4196,1.4083,1.397,1.1878,1.0781,0.0,0.0,0.0,0.0,0.0,0.0,-0.8862,0.0,-0.9256,0.0,0.0,0.0,0.0,0.0,0.0,0.0,-0.7903,-0.7777,-0.7168,-0.717,-0.729,-0.7511,-0.7456,-0.7368,-0.7326,-0.7455,-0.7521,-0.7521,-0.7521,-0.7521,-0.7521,-0.6478,-0.5963,-0.6116,-0.5154,-0.4711,-0.4833,-0.4955,-0.5018,-0.5018,-0.5018,-0.4467,-0.3604,-0.4562,-0.3144,0.0,0.0,0.0,0.0,0.0,0.0,0.0248,0.2455,0.3293,0.3532,0.5134,0.5708,0.5668,0.566,0.5817,0.592,0.5988,0.6092,0.6299,0.6443,0.651,0.6677,0.6825,0.6739,0.6642,0.6742,0.6639,0.6456,0.6628,0.705,0.7386,0.7733,0.8192,0.8958,1.0441,1.0672,1.0785,1.0895,1.0895,1.1114,1.1655,1.2309,1.3073,1.4056,1.4815,1.525,1.5261,1.5148,1.4826,1.4504,1.4299,1.4196,1.4196,1.4196,1.4196,1.4196,1.4196,1.4196,1.4196,1.4196,1.4196,1.4196,1.4196,1.4196,1.4191,1.1769,1.0014,-0.9173,0.0,0.0,0.0,0.0,0.0,0.0,0.0,0.0,0.0,0.0,0.0,0.0,0.0,-0.7819,-0.7453,0.0,-0.691,-0.6658,-0.6538,-0.6552,-0.6768,-0.6843,-0.6998,-0.7207,-0.7354,-0.7464,-0.7517,-0.7474,-0.7464,-0.7521,-0.6478,-0.5944,-0.6056,-0.5136,-0.4694,-0.4784,-0.4939,-0.5018,-0.5018,-0.5021,-0.4153,-0.2504,-0.3297,-0.2277,0.0,0.0,0.0,0.0,0.0,0.0,0.0404,0.4227,0.5692,0.5723,0.57,0.5684,0.5657,0.5744,0.5814,0.5912,0.5969,0.6092,0.6313,0.6599,0.6689,0.6799,0.7129,0.7042,0.6845,0.6842,0.6639,0.6458,0.665,0.6972,0.7413,0.7761,0.8435,0.9421,1.0882,1.1437,1.1978,1.3171,1.2852,1.2526,1.2852,1.3619,1.4277,1.4595,1.5351,1.5791,1.5482,1.5154,1.4928,1.46,1.4401,1.4196,1.4196,1.4196,1.4196,1.4196,1.4196,1.4196,1.4196,1.4196,1.4196,1.4196,1.4196,1.3862,1.3202,1.1442,0.9794,0.0,0.0,0.0,-0.8093,0.0,0.0,0.0,0.0,-0.7779,0.0,0.0,0.0,-0.7356,-0.7274,-0.7069,-0.6606,-0.6705,0.0,0.0,-0.6356,-0.6552,-0.6768,-0.7031,-0.7212,-0.7221,-0.7226,-0.7312,-0.7507,-0.734,-0.7316,-0.7512,-0.6478,-0.5892,-0.5899,-0.509,-0.4726,-0.4731,-0.4896,-0.5018,-0.5018,-0.5026,-0.4157,-0.2425,-0.0863,-0.0079,0.0,0.0,0.0,0.0,0.0,0.0,0.0394,0.4208,0.5723,0.5689,0.5659,0.5744,0.5657,0.5738,0.5809,0.5885,0.5779,0.5901,0.6186,0.6464,0.6553,0.6781,0.7102,0.7042,0.6845,0.7138,0.6836,0.6439,0.6748,0.7152,0.7489,0.7626,0.914,1.0795,1.205,1.329,1.4487,1.5565,1.3932,1.2852,1.3948,1.4169,1.46,1.5672,1.5891,1.5791,1.5482,1.5154,1.4928,1.46,1.4401,1.4196,1.4196,1.4196,1.4196,1.4196,1.4196,1.4196,1.4196,1.4196,1.4196,1.4196,1.4196,1.298,1.0781,1.0781,1.0672,0.0,0.0,-0.8211,-0.7864,0.0,0.0,0.0,0.0,0.0,0.0,0.0,0.0,0.0,-0.7312,-0.7069,-0.673,-0.6627,-0.6435,0.0,-0.6076,-0.6199,-0.636,-0.662,-0.6743,-0.6743,-0.6691,-0.6683,-0.6749,-0.6488,-0.6351,-0.6408,-0.5752,-0.5355,-0.5355,-0.4947,-0.4726,-0.4726,-0.4896,-0.5018,-0.5018,-0.5026,-0.4157,-0.2425,-0.0784,0.0,0.0,0.0,0.0,0.0,0.0,0.1335,0.3315,0.3689,0.4513,0.5577,0.5656,0.5676,0.5738,0.5735,0.576,0.5798,0.5833,0.6045,0.6475,0.6747,0.7064,0.7384,0.7627,0.754,0.7344,0.7444,0.7241,0.698,0.7261,0.7336,0.7425,0.7861,0.9029,1.0494,1.186,1.329,1.4595,1.5672,1.5238,1.4804,1.5244,1.5351,1.5458,1.5885,1.5891,1.5891,1.5791,1.5476,1.5154,1.4928,1.4509,1.4196,1.4196,1.4196,1.4196,1.4196,1.4196,1.4196,1.4196,1.4196,1.4196,1.4196,1.4196,1.3753,1.298,1.2205,1.0558,-0.7588,-0.7617,0.0,-0.7758,-0.7725,0.0,-0.7664,0.0,-0.7721,0.0,0.0,0.0,0.0,-0.7159,-0.7086,-0.6497,-0.645,-0.6384,0.0,-0.6034,-0.6157,-0.6168,-0.6351,-0.6444,-0.6401,-0.628,-0.6195,-0.614,-0.5878,-0.5765,-0.5885,-0.5422,-0.5087,-0.5087,-0.4807,-0.4726,-0.4726,-0.4896,-0.5018,-0.5018,-0.5026,-0.4396,-0.3294,-0.102,0.0,0.0,0.0,0.0,0.0079,0.1257,0.3067,0.4909,0.4134,0.4455,0.5488,0.5653,0.567,0.5733,0.5733,0.5787,0.5863,0.5987,0.6324,0.6699,0.7121,0.7432,0.7646,0.7942,0.7842,0.7646,0.7646,0.7441,0.7281,0.7461,0.7431,0.7629,0.8389,0.9671,1.1008,1.2201,1.3777,1.5001,1.5659,1.5831,1.5891,1.5891,1.5891,1.5891,1.5891,1.5891,1.5891,1.5891,1.569,1.5374,1.4928,1.4401,1.4196,1.4196,1.4196,1.4196,1.4196,1.4196,1.4196,1.4196,1.4196,1.4196,1.4196,1.4196,1.3975,1.3527,1.2748,1.0996]}]]